Wetterdaten: Donnerstag, 21.02.2019
Datum Zeit Temp. A. Pool Temp. Temp. 5cm Feuchte A. Luftdruck Regen Wind Richtung Richtung Sonnenschein ET UV Solar Taupunkt Windchill Windben Empfang
21.02.2019 00:00 3,3 C 5,6 C 0,6 C 92 % 1026,6 hPa 0,0 l/m 3,4 km/h (1 Bft) SW 214 0 min 0,000 mm 0,0 UV-I 0 W/m 2,1 C 3,3 C 4,8 km/h (1 Bft) 100,00 %
21.02.2019 00:02 3,2 C 5,6 C 0,6 C 92 % 1026,6 hPa 0,0 l/m 4,3 km/h (1 Bft) S 190 0 min 0,000 mm 0,0 UV-I 0 W/m 2,0 C 3,2 C 4,8 km/h (1 Bft) 100,00 %
21.02.2019 00:04 3,0 C 5,6 C 0,6 C 92 % 1026,7 hPa 0,0 l/m 4,0 km/h (1 Bft) S 190 0 min 0,000 mm 0,0 UV-I 0 W/m 1,8 C 3,0 C 6,4 km/h (2 Bft) 98,00 %
21.02.2019 00:06 2,9 C 5,6 C 0,6 C 92 % 1026,6 hPa 0,0 l/m 4,1 km/h (1 Bft) S 190 0 min 0,000 mm 0,0 UV-I 0 W/m 1,7 C 2,9 C 4,8 km/h (1 Bft) 100,00 %
21.02.2019 00:08 2,9 C 5,6 C 0,6 C 92 % 1026,7 hPa 0,0 l/m 3,9 km/h (1 Bft) S 190 0 min 0,000 mm 0,0 UV-I 0 W/m 1,7 C 2,9 C 4,8 km/h (1 Bft) 100,00 %
21.02.2019 00:10 2,8 C 5,6 C 0,6 C 92 % 1026,6 hPa 0,0 l/m 3,9 km/h (1 Bft) S-SW 194 0 min 0,000 mm 0,0 UV-I 0 W/m 1,6 C 2,8 C 4,8 km/h (1 Bft) 100,00 %
21.02.2019 00:12 2,8 C 5,6 C 0,6 C 93 % 1026,6 hPa 0,0 l/m 3,4 km/h (1 Bft) S-SW 194 0 min 0,000 mm 0,0 UV-I 0 W/m 1,8 C 2,8 C 4,8 km/h (1 Bft) 98,11 %
21.02.2019 00:14 2,8 C 5,6 C 0,6 C 93 % 1026,7 hPa 0,0 l/m 3,2 km/h (1 Bft) S-SW 194 0 min 0,000 mm 0,0 UV-I 0 W/m 1,8 C 2,8 C 4,8 km/h (1 Bft) 100,00 %
21.02.2019 00:16 2,8 C 5,6 C 0,6 C 93 % 1026,6 hPa 0,0 l/m 3,1 km/h (1 Bft) S-SW 194 0 min 0,000 mm 0,0 UV-I 0 W/m 1,8 C 2,8 C 4,8 km/h (1 Bft) 97,87 %
21.02.2019 00:18 2,8 C 5,6 C 0,6 C 93 % 1026,6 hPa 0,0 l/m 3,4 km/h (1 Bft) S-SW 194 0 min 0,000 mm 0,0 UV-I 0 W/m 1,8 C 2,8 C 4,8 km/h (1 Bft) 97,87 %
21.02.2019 00:20 2,8 C 5,6 C 0,6 C 93 % 1026,6 hPa 0,0 l/m 3,4 km/h (1 Bft) S-SW 194 0 min 0,000 mm 0,0 UV-I 0 W/m 1,8 C 2,8 C 4,8 km/h (1 Bft) 100,00 %
21.02.2019 00:22 2,8 C 5,6 C 0,6 C 93 % 1026,7 hPa 0,0 l/m 2,7 km/h (1 Bft) S-SW 194 0 min 0,000 mm 0,0 UV-I 0 W/m 1,8 C 2,8 C 3,2 km/h (1 Bft) 98,00 %
21.02.2019 00:24 2,9 C 5,6 C 0,6 C 93 % 1026,7 hPa 0,0 l/m 1,9 km/h (1 Bft) S-SW 194 0 min 0,000 mm 0,0 UV-I 0 W/m 1,9 C 2,9 C 3,2 km/h (1 Bft) 98,00 %
21.02.2019 00:26 2,9 C 5,6 C 0,6 C 93 % 1026,6 hPa 0,0 l/m 1,1 km/h (1 Bft) S-SW 194 0 min 0,000 mm 0,0 UV-I 0 W/m 1,9 C 2,9 C 1,6 km/h (1 Bft) 97,73 %
21.02.2019 00:28 2,9 C 5,6 C 0,0 C 93 % 1026,6 hPa 0,0 l/m 1,8 km/h (1 Bft) S-SW 194 0 min 0,000 mm 0,0 UV-I 0 W/m 1,9 C 2,9 C 3,2 km/h (1 Bft) 96,23 %
21.02.2019 00:30 2,8 C 5,6 C 0,0 C 93 % 1026,7 hPa 0,0 l/m 2,9 km/h (1 Bft) S-SW 194 0 min 0,000 mm 0,0 UV-I 0 W/m 1,8 C 2,8 C 4,8 km/h (1 Bft) 97,37 %
21.02.2019 00:32 2,8 C 5,6 C 0,6 C 93 % 1026,6 hPa 0,0 l/m 3,2 km/h (1 Bft) S-SW 194 0 min 0,000 mm 0,0 UV-I 0 W/m 1,8 C 2,8 C 4,8 km/h (1 Bft) 98,00 %
21.02.2019 00:34 2,8 C 5,6 C 0,6 C 93 % 1026,6 hPa 0,0 l/m 3,5 km/h (1 Bft) S-SW 194 0 min 0,000 mm 0,0 UV-I 0 W/m 1,8 C 2,8 C 4,8 km/h (1 Bft) 98,00 %
21.02.2019 00:36 2,8 C 5,6 C 1,1 C 93 % 1026,6 hPa 0,0 l/m 4,3 km/h (1 Bft) S-SW 194 0 min 0,000 mm 0,0 UV-I 0 W/m 1,8 C 2,8 C 6,4 km/h (2 Bft) 95,74 %
21.02.2019 00:38 2,8 C 5,6 C 1,1 C 93 % 1026,6 hPa 0,0 l/m 4,0 km/h (1 Bft) S-SW 199 0 min 0,000 mm 0,0 UV-I 0 W/m 1,8 C 2,8 C 4,8 km/h (1 Bft) 95,74 %
21.02.2019 00:40 3,0 C 5,6 C 1,1 C 94 % 1026,6 hPa 0,0 l/m 4,2 km/h (1 Bft) S-SW 199 0 min 0,000 mm 0,0 UV-I 0 W/m 2,1 C 3,0 C 6,4 km/h (2 Bft) 97,87 %
21.02.2019 00:42 3,1 C 5,6 C 1,7 C 94 % 1026,5 hPa 0,0 l/m 4,5 km/h (1 Bft) S-SW 203 0 min 0,000 mm 0,0 UV-I 0 W/m 2,2 C 3,1 C 4,8 km/h (1 Bft) 97,78 %
21.02.2019 00:44 3,2 C 5,6 C 1,7 C 94 % 1026,6 hPa 0,0 l/m 3,7 km/h (1 Bft) S-SW 203 0 min 0,000 mm 0,0 UV-I 0 W/m 2,3 C 3,2 C 4,8 km/h (1 Bft) 97,87 %
21.02.2019 00:46 3,2 C 5,6 C 1,7 C 94 % 1026,6 hPa 0,0 l/m 3,8 km/h (1 Bft) S-SW 203 0 min 0,000 mm 0,0 UV-I 0 W/m 2,3 C 3,2 C 6,4 km/h (2 Bft) 98,00 %
21.02.2019 00:48 3,2 C 5,6 C 1,7 C 93 % 1026,5 hPa 0,0 l/m 3,9 km/h (1 Bft) S-SW 202 0 min 0,000 mm 0,0 UV-I 0 W/m 2,2 C 3,2 C 4,8 km/h (1 Bft) 100,00 %
21.02.2019 00:50 3,2 C 5,6 C 1,7 C 93 % 1026,5 hPa 0,0 l/m 3,7 km/h (1 Bft) S-SW 202 0 min 0,000 mm 0,0 UV-I 0 W/m 2,2 C 3,2 C 4,8 km/h (1 Bft) 100,00 %
21.02.2019 00:52 3,2 C 5,6 C 1,7 C 93 % 1026,5 hPa 0,0 l/m 3,9 km/h (1 Bft) S-SW 202 0 min 0,000 mm 0,0 UV-I 0 W/m 2,2 C 3,2 C 4,8 km/h (1 Bft) 100,00 %
21.02.2019 00:54 3,2 C 5,6 C 1,7 C 93 % 1026,5 hPa 0,0 l/m 3,6 km/h (1 Bft) S-SW 202 0 min 0,000 mm 0,0 UV-I 0 W/m 2,2 C 3,2 C 4,8 km/h (1 Bft) 100,00 %
21.02.2019 00:56 3,2 C 5,6 C 1,7 C 93 % 1026,5 hPa 0,0 l/m 3,4 km/h (1 Bft) S-SW 202 0 min 0,000 mm 0,0 UV-I 0 W/m 2,2 C 3,2 C 6,4 km/h (2 Bft) 100,00 %
21.02.2019 00:58 3,2 C 5,6 C 1,7 C 93 % 1026,5 hPa 0,0 l/m 3,9 km/h (1 Bft) S-SW 202 0 min 0,000 mm 0,0 UV-I 0 W/m 2,2 C 3,2 C 4,8 km/h (1 Bft) 98,00 %
21.02.2019 01:00 3,3 C 5,6 C 1,7 C 93 % 1026,5 hPa 0,0 l/m 3,9 km/h (1 Bft) S-SW 202 0 min 0,000 mm 0,0 UV-I 0 W/m 2,3 C 3,3 C 4,8 km/h (1 Bft) 96,23 %
21.02.2019 01:02 3,3 C 5,6 C 1,7 C 93 % 1026,5 hPa 0,0 l/m 2,9 km/h (1 Bft) S-SW 202 0 min 0,000 mm 0,0 UV-I 0 W/m 2,3 C 3,3 C 4,8 km/h (1 Bft) 100,00 %
21.02.2019 01:04 3,3 C 5,6 C 1,7 C 93 % 1026,5 hPa 0,0 l/m 2,9 km/h (1 Bft) S-SW 202 0 min 0,000 mm 0,0 UV-I 0 W/m 2,3 C 3,3 C 3,2 km/h (1 Bft) 95,74 %
21.02.2019 01:06 3,3 C 5,6 C 1,7 C 93 % 1026,4 hPa 0,0 l/m 3,0 km/h (1 Bft) S-SW 202 0 min 0,000 mm 0,0 UV-I 0 W/m 2,3 C 3,3 C 4,8 km/h (1 Bft) 100,00 %
21.02.2019 01:08 3,3 C 5,6 C 1,7 C 93 % 1026,5 hPa 0,0 l/m 2,8 km/h (1 Bft) S-SW 202 0 min 0,000 mm 0,0 UV-I 0 W/m 2,3 C 3,3 C 3,2 km/h (1 Bft) 100,00 %
21.02.2019 01:10 3,2 C 5,6 C 1,1 C 93 % 1026,5 hPa 0,0 l/m 2,5 km/h (1 Bft) S-SW 202 0 min 0,000 mm 0,0 UV-I 0 W/m 2,2 C 3,2 C 3,2 km/h (1 Bft) 95,74 %
21.02.2019 01:12 3,2 C 5,6 C 1,1 C 93 % 1026,5 hPa 0,0 l/m 2,3 km/h (1 Bft) S-SW 202 0 min 0,000 mm 0,0 UV-I 0 W/m 2,2 C 3,2 C 4,8 km/h (1 Bft) 100,00 %
21.02.2019 01:14 3,2 C 5,6 C 1,1 C 93 % 1026,5 hPa 0,0 l/m 2,1 km/h (1 Bft) S-SW 202 0 min 0,000 mm 0,0 UV-I 0 W/m 2,2 C 3,2 C 3,2 km/h (1 Bft) 95,74 %
21.02.2019 01:16 3,2 C 5,6 C 1,1 C 93 % 1026,6 hPa 0,0 l/m 1,8 km/h (1 Bft) S-SW 202 0 min 0,000 mm 0,0 UV-I 0 W/m 2,2 C 3,2 C 3,2 km/h (1 Bft) 96,23 %
21.02.2019 01:18 3,2 C 5,6 C 1,1 C 93 % 1026,6 hPa 0,0 l/m 0,8 km/h (0 Bft) S-SW 202 0 min 0,000 mm 0,0 UV-I 0 W/m 2,2 C 3,2 C 1,6 km/h (1 Bft) 94,87 %
21.02.2019 01:20 3,2 C 5,6 C 1,1 C 93 % 1026,6 hPa 0,0 l/m 0,9 km/h (0 Bft) S-SW 202 0 min 0,000 mm 0,0 UV-I 0 W/m 2,2 C 3,2 C 3,2 km/h (1 Bft) 98,18 %
21.02.2019 01:22 3,2 C 5,6 C 1,1 C 93 % 1026,7 hPa 0,0 l/m 1,1 km/h (1 Bft) S-SW 202 0 min 0,000 mm 0,0 UV-I 0 W/m 2,2 C 3,2 C 3,2 km/h (1 Bft) 95,24 %
21.02.2019 01:24 3,2 C 5,6 C 1,1 C 93 % 1026,6 hPa 0,0 l/m 2,7 km/h (1 Bft) S-SW 202 0 min 0,000 mm 0,0 UV-I 0 W/m 2,2 C 3,2 C 3,2 km/h (1 Bft) 95,74 %
21.02.2019 01:26 3,3 C 5,6 C 1,1 C 93 % 1026,6 hPa 0,0 l/m 4,0 km/h (1 Bft) S-SW 202 0 min 0,000 mm 0,0 UV-I 0 W/m 2,3 C 3,3 C 4,8 km/h (1 Bft) 98,11 %
21.02.2019 01:28 3,4 C 5,6 C 1,1 C 93 % 1026,6 hPa 0,0 l/m 3,1 km/h (1 Bft) S-SW 202 0 min 0,000 mm 0,0 UV-I 0 W/m 2,4 C 3,4 C 4,8 km/h (1 Bft) 94,74 %
21.02.2019 01:30 3,5 C 5,6 C 1,1 C 93 % 1026,6 hPa 0,0 l/m 3,5 km/h (1 Bft) S-SW 202 0 min 0,000 mm 0,0 UV-I 0 W/m 2,5 C 3,5 C 4,8 km/h (1 Bft) 94,00 %
21.02.2019 01:32 3,6 C 5,6 C 1,7 C 93 % 1026,6 hPa 0,0 l/m 4,0 km/h (1 Bft) S-SW 202 0 min 0,000 mm 0,0 UV-I 0 W/m 2,6 C 3,6 C 4,8 km/h (1 Bft) 93,62 %
21.02.2019 01:34 3,6 C 5,6 C 1,7 C 93 % 1026,6 hPa 0,0 l/m 3,4 km/h (1 Bft) S-SW 202 0 min 0,000 mm 0,0 UV-I 0 W/m 2,6 C 3,6 C 4,8 km/h (1 Bft) 95,45 %
21.02.2019 01:36 3,7 C 5,6 C 2,2 C 93 % 1026,6 hPa 0,0 l/m 3,3 km/h (1 Bft) S-SW 202 0 min 0,000 mm 0,0 UV-I 0 W/m 2,7 C 3,7 C 4,8 km/h (1 Bft) 95,45 %
21.02.2019 01:38 3,7 C 5,6 C 2,2 C 92 % 1026,6 hPa 0,0 l/m 4,5 km/h (1 Bft) S-SW 202 0 min 0,000 mm 0,0 UV-I 0 W/m 2,5 C 3,7 C 6,4 km/h (2 Bft) 96,00 %
21.02.2019 01:40 3,6 C 5,6 C 2,2 C 92 % 1026,6 hPa 0,0 l/m 5,4 km/h (1 Bft) S-SW 202 0 min 0,000 mm 0,0 UV-I 0 W/m 2,4 C 3,6 C 6,4 km/h (2 Bft) 93,62 %
21.02.2019 01:42 3,6 C 5,6 C 2,2 C 92 % 1026,6 hPa 0,0 l/m 5,9 km/h (2 Bft) S-SW 202 0 min 0,000 mm 0,0 UV-I 0 W/m 2,4 C 3,6 C 6,4 km/h (2 Bft) 93,62 %
21.02.2019 01:44 3,7 C 5,6 C 2,2 C 92 % 1026,7 hPa 0,0 l/m 5,5 km/h (1 Bft) S-SW 203 0 min 0,000 mm 0,0 UV-I 0 W/m 2,5 C 3,7 C 6,4 km/h (2 Bft) 95,45 %
21.02.2019 01:46 3,7 C 5,6 C 2,2 C 92 % 1026,6 hPa 0,0 l/m 5,5 km/h (1 Bft) S-SW 197 0 min 0,000 mm 0,0 UV-I 0 W/m 2,5 C 3,7 C 8,0 km/h (2 Bft) 93,62 %
21.02.2019 01:48 3,6 C 5,6 C 2,2 C 92 % 1026,7 hPa 0,0 l/m 4,5 km/h (1 Bft) S-SW 199 0 min 0,000 mm 0,0 UV-I 0 W/m 2,4 C 3,6 C 6,4 km/h (2 Bft) 93,62 %
21.02.2019 01:50 3,6 C 5,6 C 2,2 C 92 % 1026,6 hPa 0,0 l/m 4,8 km/h (1 Bft) S-SW 199 0 min 0,000 mm 0,0 UV-I 0 W/m 2,4 C 3,6 C 6,4 km/h (2 Bft) 92,00 %
21.02.2019 01:52 3,7 C 5,6 C 2,2 C 92 % 1026,6 hPa 0,0 l/m 5,5 km/h (1 Bft) S-SW 200 0 min 0,000 mm 0,0 UV-I 0 W/m 2,5 C 3,7 C 6,4 km/h (2 Bft) 91,49 %
21.02.2019 01:54 3,7 C 5,6 C 2,2 C 92 % 1026,6 hPa 0,0 l/m 4,5 km/h (1 Bft) S-SW 199 0 min 0,000 mm 0,0 UV-I 0 W/m 2,5 C 3,7 C 6,4 km/h (2 Bft) 95,74 %
21.02.2019 01:56 3,7 C 5,6 C 2,2 C 92 % 1026,6 hPa 0,0 l/m 3,7 km/h (1 Bft) S-SW 199 0 min 0,000 mm 0,0 UV-I 0 W/m 2,5 C 3,7 C 4,8 km/h (1 Bft) 94,44 %
21.02.2019 01:58 3,8 C 5,6 C 2,8 C 92 % 1026,6 hPa 0,0 l/m 4,3 km/h (1 Bft) S-SW 200 0 min 0,000 mm 0,0 UV-I 0 W/m 2,6 C 3,8 C 6,4 km/h (2 Bft) 100,00 %
21.02.2019 02:00 3,8 C 5,6 C 2,8 C 92 % 1026,6 hPa 0,0 l/m 4,2 km/h (1 Bft) S-SW 204 0 min 0,000 mm 0,0 UV-I 0 W/m 2,6 C 3,8 C 4,8 km/h (1 Bft) 100,00 %
21.02.2019 02:02 3,8 C 5,6 C 2,2 C 92 % 1026,5 hPa 0,0 l/m 3,1 km/h (1 Bft) S-SW 204 0 min 0,000 mm 0,0 UV-I 0 W/m 2,6 C 3,8 C 4,8 km/h (1 Bft) 95,12 %
21.02.2019 02:04 3,8 C 5,6 C 2,2 C 92 % 1026,5 hPa 0,0 l/m 2,0 km/h (1 Bft) S-SW 204 0 min 0,000 mm 0,0 UV-I 0 W/m 2,6 C 3,8 C 4,8 km/h (1 Bft) 100,00 %
21.02.2019 02:06 3,7 C 5,6 C 2,2 C 92 % 1026,5 hPa 0,0 l/m 2,0 km/h (1 Bft) S-SW 204 0 min 0,000 mm 0,0 UV-I 0 W/m 2,5 C 3,7 C 3,2 km/h (1 Bft) 100,00 %
21.02.2019 02:08 3,7 C 5,6 C 1,7 C 91 % 1026,5 hPa 0,0 l/m 3,0 km/h (1 Bft) S-SW 207 0 min 0,000 mm 0,0 UV-I 0 W/m 2,4 C 3,7 C 4,8 km/h (1 Bft) 100,00 %
21.02.2019 02:10 3,6 C 5,6 C 1,7 C 92 % 1026,5 hPa 0,0 l/m 3,1 km/h (1 Bft) S-SW 207 0 min 0,000 mm 0,0 UV-I 0 W/m 2,4 C 3,6 C 4,8 km/h (1 Bft) 97,87 %
21.02.2019 02:12 3,5 C 5,6 C 1,7 C 92 % 1026,5 hPa 0,0 l/m 2,2 km/h (1 Bft) S-SW 207 0 min 0,000 mm 0,0 UV-I 0 W/m 2,3 C 3,5 C 3,2 km/h (1 Bft) 100,00 %
21.02.2019 02:14 3,4 C 5,6 C 1,7 C 92 % 1026,5 hPa 0,0 l/m 3,3 km/h (1 Bft) S-SW 207 0 min 0,000 mm 0,0 UV-I 0 W/m 2,2 C 3,4 C 4,8 km/h (1 Bft) 98,21 %
21.02.2019 02:16 3,4 C 5,6 C 1,7 C 92 % 1026,6 hPa 0,0 l/m 4,3 km/h (1 Bft) S-SW 207 0 min 0,000 mm 0,0 UV-I 0 W/m 2,2 C 3,4 C 4,8 km/h (1 Bft) 97,37 %
21.02.2019 02:18 3,5 C 5,6 C 1,7 C 92 % 1026,6 hPa 0,0 l/m 3,7 km/h (1 Bft) S-SW 207 0 min 0,000 mm 0,0 UV-I 0 W/m 2,3 C 3,5 C 4,8 km/h (1 Bft) 100,00 %
21.02.2019 02:20 3,5 C 5,6 C 1,7 C 92 % 1026,6 hPa 0,0 l/m 3,1 km/h (1 Bft) S-SW 207 0 min 0,000 mm 0,0 UV-I 0 W/m 2,3 C 3,5 C 4,8 km/h (1 Bft) 100,00 %
21.02.2019 02:22 3,4 C 5,6 C 1,7 C 92 % 1026,6 hPa 0,0 l/m 3,6 km/h (1 Bft) S-SW 207 0 min 0,000 mm 0,0 UV-I 0 W/m 2,2 C 3,4 C 4,8 km/h (1 Bft) 100,00 %
21.02.2019 02:24 3,4 C 5,6 C 1,7 C 92 % 1026,6 hPa 0,0 l/m 2,2 km/h (1 Bft) S-SW 207 0 min 0,000 mm 0,0 UV-I 0 W/m 2,2 C 3,4 C 3,2 km/h (1 Bft) 100,00 %
21.02.2019 02:26 3,3 C 5,6 C 1,7 C 92 % 1026,6 hPa 0,0 l/m 2,1 km/h (1 Bft) S-SW 207 0 min 0,000 mm 0,0 UV-I 0 W/m 2,1 C 3,3 C 3,2 km/h (1 Bft) 98,00 %
21.02.2019 02:28 3,2 C 5,6 C 1,1 C 92 % 1026,6 hPa 0,0 l/m 2,6 km/h (1 Bft) S-SW 207 0 min 0,000 mm 0,0 UV-I 0 W/m 2,0 C 3,2 C 3,2 km/h (1 Bft) 100,00 %
21.02.2019 02:30 3,2 C 5,6 C 1,7 C 92 % 1026,6 hPa 0,0 l/m 3,3 km/h (1 Bft) S-SW 207 0 min 0,000 mm 0,0 UV-I 0 W/m 2,0 C 3,2 C 4,8 km/h (1 Bft) 100,00 %
21.02.2019 02:32 3,2 C 5,6 C 1,7 C 92 % 1026,7 hPa 0,0 l/m 3,5 km/h (1 Bft) S-SW 207 0 min 0,000 mm 0,0 UV-I 0 W/m 2,0 C 3,2 C 4,8 km/h (1 Bft) 100,00 %
21.02.2019 02:34 3,2 C 5,6 C 1,7 C 93 % 1026,6 hPa 0,0 l/m 3,2 km/h (1 Bft) S-SW 207 0 min 0,000 mm 0,0 UV-I 0 W/m 2,2 C 3,2 C 4,8 km/h (1 Bft) 94,44 %
21.02.2019 02:36 3,1 C 5,6 C 1,7 C 93 % 1026,5 hPa 0,0 l/m 3,7 km/h (1 Bft) S-SW 207 0 min 0,000 mm 0,0 UV-I 0 W/m 2,1 C 3,1 C 4,8 km/h (1 Bft) 98,11 %
21.02.2019 02:38 3,1 C 5,6 C 1,7 C 93 % 1026,5 hPa 0,0 l/m 4,7 km/h (1 Bft) S-SW 198 0 min 0,000 mm 0,0 UV-I 0 W/m 2,1 C 3,1 C 6,4 km/h (2 Bft) 100,00 %
21.02.2019 02:40 3,1 C 5,6 C 1,7 C 93 % 1026,5 hPa 0,0 l/m 4,3 km/h (1 Bft) S-SW 199 0 min 0,000 mm 0,0 UV-I 0 W/m 2,1 C 3,1 C 6,4 km/h (2 Bft) 100,00 %
21.02.2019 02:42 3,1 C 5,6 C 1,7 C 93 % 1026,4 hPa 0,0 l/m 5,6 km/h (1 Bft) S-SW 209 0 min 0,000 mm 0,0 UV-I 0 W/m 2,1 C 3,1 C 8,0 km/h (2 Bft) 100,00 %
21.02.2019 02:44 3,2 C 5,6 C 1,7 C 93 % 1026,4 hPa 0,0 l/m 5,0 km/h (1 Bft) S-SW 209 0 min 0,000 mm 0,0 UV-I 0 W/m 2,2 C 3,2 C 6,4 km/h (2 Bft) 94,00 %
21.02.2019 02:46 3,3 C 5,6 C 2,2 C 93 % 1026,5 hPa 0,0 l/m 5,1 km/h (1 Bft) SW 223 0 min 0,000 mm 0,0 UV-I 0 W/m 2,3 C 3,3 C 6,4 km/h (2 Bft) 98,00 %
21.02.2019 02:48 3,4 C 5,6 C 2,2 C 93 % 1026,5 hPa 0,0 l/m 4,8 km/h (1 Bft) SW 221 0 min 0,000 mm 0,0 UV-I 0 W/m 2,4 C 3,4 C 8,0 km/h (2 Bft) 96,00 %
21.02.2019 02:50 3,6 C 5,6 C 2,2 C 93 % 1026,5 hPa 0,0 l/m 5,1 km/h (1 Bft) SW 228 0 min 0,000 mm 0,0 UV-I 0 W/m 2,6 C 3,6 C 6,4 km/h (2 Bft) 94,74 %
21.02.2019 02:52 3,7 C 5,6 C 2,2 C 93 % 1026,6 hPa 0,0 l/m 5,2 km/h (1 Bft) SW 231 0 min 0,000 mm 0,0 UV-I 0 W/m 2,7 C 3,7 C 6,4 km/h (2 Bft) 96,00 %
21.02.2019 02:54 3,7 C 5,6 C 2,2 C 93 % 1026,6 hPa 0,0 l/m 5,0 km/h (1 Bft) SW 214 0 min 0,000 mm 0,0 UV-I 0 W/m 2,7 C 3,7 C 8,0 km/h (2 Bft) 93,62 %
21.02.2019 02:56 3,7 C 5,6 C 2,2 C 92 % 1026,6 hPa 0,0 l/m 5,0 km/h (1 Bft) SW 215 0 min 0,000 mm 0,0 UV-I 0 W/m 2,5 C 3,7 C 8,0 km/h (2 Bft) 91,67 %
21.02.2019 02:58 3,7 C 5,6 C 2,2 C 92 % 1026,5 hPa 0,0 l/m 3,7 km/h (1 Bft) SW 215 0 min 0,000 mm 0,0 UV-I 0 W/m 2,5 C 3,7 C 4,8 km/h (1 Bft) 95,89 %
21.02.2019 03:00 3,6 C 5,6 C 2,2 C 92 % 1026,5 hPa 0,0 l/m 3,2 km/h (1 Bft) SW 215 0 min 0,000 mm 0,0 UV-I 0 W/m 2,4 C 3,6 C 4,8 km/h (1 Bft) 96,23 %
21.02.2019 03:02 3,4 C 5,6 C 1,7 C 92 % 1026,6 hPa 0,0 l/m 1,8 km/h (1 Bft) SW 215 0 min 0,000 mm 0,0 UV-I 0 W/m 2,2 C 3,4 C 3,2 km/h (1 Bft) 94,00 %
21.02.2019 03:04 3,4 C 5,6 C 1,1 C 92 % 1026,5 hPa 0,0 l/m 1,0 km/h (0 Bft) SW 215 0 min 0,000 mm 0,0 UV-I 0 W/m 2,2 C 3,4 C 3,2 km/h (1 Bft) 97,37 %
21.02.2019 03:06 3,5 C 5,6 C 1,1 C 92 % 1026,5 hPa 0,0 l/m 1,9 km/h (1 Bft) SW 215 0 min 0,000 mm 0,0 UV-I 0 W/m 2,3 C 3,5 C 3,2 km/h (1 Bft) 94,34 %
21.02.2019 03:08 3,5 C 5,6 C 0,6 C 92 % 1026,5 hPa 0,0 l/m 1,9 km/h (1 Bft) SW 215 0 min 0,000 mm 0,0 UV-I 0 W/m 2,3 C 3,5 C 3,2 km/h (1 Bft) 94,00 %
21.02.2019 03:10 3,5 C 5,6 C 0,6 C 92 % 1026,6 hPa 0,0 l/m 0,4 km/h (0 Bft) SW 215 0 min 0,000 mm 0,0 UV-I 0 W/m 2,3 C 3,5 C 1,6 km/h (1 Bft) 95,24 %
21.02.2019 03:12 3,3 C 5,6 C 0,6 C 92 % 1026,5 hPa 0,0 l/m 0,3 km/h (0 Bft) SW 215 0 min 0,000 mm 0,0 UV-I 0 W/m 2,1 C 3,3 C 1,6 km/h (1 Bft) 96,15 %
21.02.2019 03:14 3,2 C 5,6 C 0,6 C 92 % 1026,5 hPa 0,0 l/m 0,1 km/h (0 Bft) SW 215 0 min 0,000 mm 0,0 UV-I 0 W/m 2,0 C 3,2 C 1,6 km/h (1 Bft) 95,24 %
21.02.2019 03:16 3,1 C 5,6 C 0,6 C 92 % 1026,6 hPa 0,0 l/m 0,0 km/h (0 Bft) SW 215 0 min 0,000 mm 0,0 UV-I 0 W/m 1,9 C 3,1 C 0,0 km/h (0 Bft) 97,56 %
21.02.2019 03:18 2,9 C 5,6 C 0,6 C 92 % 1026,5 hPa 0,0 l/m 0,0 km/h (0 Bft) SW 215 0 min 0,000 mm 0,0 UV-I 0 W/m 1,7 C 2,9 C 0,0 km/h (0 Bft) 96,23 %
21.02.2019 03:20 2,9 C 5,6 C 0,6 C 93 % 1026,5 hPa 0,0 l/m 0,0 km/h (0 Bft) SW 215 0 min 0,000 mm 0,0 UV-I 0 W/m 1,9 C 2,9 C 0,0 km/h (0 Bft) 98,11 %
21.02.2019 03:22 2,9 C 5,6 C 0,6 C 93 % 1026,4 hPa 0,0 l/m 0,0 km/h (0 Bft) SW 215 0 min 0,000 mm 0,0 UV-I 0 W/m 1,9 C 2,9 C 0,0 km/h (0 Bft) 97,37 %
21.02.2019 03:24 2,9 C 5,6 C 0,6 C 93 % 1026,5 hPa 0,0 l/m 0,3 km/h (0 Bft) SW 215 0 min 0,000 mm 0,0 UV-I 0 W/m 1,9 C 2,9 C 1,6 km/h (1 Bft) 94,64 %
21.02.2019 03:26 3,0 C 5,6 C 0,0 C 93 % 1026,6 hPa 0,0 l/m 1,0 km/h (0 Bft) SW 215 0 min 0,000 mm 0,0 UV-I 0 W/m 2,0 C 3,0 C 1,6 km/h (1 Bft) 95,74 %
21.02.2019 03:28 3,1 C 5,6 C 0,0 C 93 % 1026,6 hPa 0,0 l/m 0,9 km/h (0 Bft) SW 215 0 min 0,000 mm 0,0 UV-I 0 W/m 2,1 C 3,1 C 1,6 km/h (1 Bft) 97,87 %
21.02.2019 03:30 3,2 C 5,6 C 0,0 C 93 % 1026,6 hPa 0,0 l/m 0,9 km/h (0 Bft) SW 215 0 min 0,000 mm 0,0 UV-I 0 W/m 2,2 C 3,2 C 3,2 km/h (1 Bft) 97,56 %
21.02.2019 03:32 3,2 C 5,6 C 0,0 C 93 % 1026,6 hPa 0,0 l/m 2,0 km/h (1 Bft) SW 215 0 min 0,000 mm 0,0 UV-I 0 W/m 2,2 C 3,2 C 3,2 km/h (1 Bft) 92,11 %
21.02.2019 03:34 3,1 C 5,6 C 0,6 C 93 % 1026,7 hPa 0,0 l/m 2,0 km/h (1 Bft) SW 215 0 min 0,000 mm 0,0 UV-I 0 W/m 2,1 C 3,1 C 3,2 km/h (1 Bft) 98,21 %
21.02.2019 03:36 3,1 C 5,6 C 0,6 C 93 % 1026,7 hPa 0,0 l/m 0,9 km/h (0 Bft) SW 215 0 min 0,000 mm 0,0 UV-I 0 W/m 2,1 C 3,1 C 1,6 km/h (1 Bft) 96,23 %
21.02.2019 03:38 3,1 C 5,6 C 0,6 C 93 % 1026,7 hPa 0,0 l/m 0,5 km/h (0 Bft) SW 215 0 min 0,000 mm 0,0 UV-I 0 W/m 2,1 C 3,1 C 1,6 km/h (1 Bft) 95,74 %
21.02.2019 03:40 3,0 C 5,6 C 0,0 C 93 % 1026,7 hPa 0,0 l/m 0,1 km/h (0 Bft) SW 215 0 min 0,000 mm 0,0 UV-I 0 W/m 2,0 C 3,0 C 1,6 km/h (1 Bft) 94,74 %
21.02.2019 03:42 3,1 C 5,6 C 0,0 C 93 % 1026,7 hPa 0,0 l/m 0,0 km/h (0 Bft) SW 215 0 min 0,000 mm 0,0 UV-I 0 W/m 2,1 C 3,1 C 0,0 km/h (0 Bft) 93,62 %
21.02.2019 03:44 3,1 C 5,6 C 0,0 C 93 % 1026,7 hPa 0,0 l/m 0,0 km/h (0 Bft) SW 215 0 min 0,000 mm 0,0 UV-I 0 W/m 2,1 C 3,1 C 0,0 km/h (0 Bft) 95,74 %
21.02.2019 03:46 3,0 C 5,6 C 0,6 C 93 % 1026,8 hPa 0,0 l/m 0,0 km/h (0 Bft) SW 215 0 min 0,000 mm 0,0 UV-I 0 W/m 2,0 C 3,0 C 0,0 km/h (0 Bft) 95,83 %
21.02.2019 03:48 2,9 C 5,6 C 0,6 C 93 % 1026,8 hPa 0,0 l/m 0,0 km/h (0 Bft) SW 215 0 min 0,000 mm 0,0 UV-I 0 W/m 1,9 C 2,9 C 0,0 km/h (0 Bft) 95,74 %
21.02.2019 03:50 2,9 C 5,6 C 0,6 C 93 % 1026,9 hPa 0,0 l/m 0,9 km/h (0 Bft) SW 215 0 min 0,000 mm 0,0 UV-I 0 W/m 1,9 C 2,9 C 1,6 km/h (1 Bft) 96,00 %
21.02.2019 03:52 3,1 C 5,6 C 0,6 C 94 % 1026,9 hPa 0,0 l/m 1,5 km/h (1 Bft) SW 215 0 min 0,000 mm 0,0 UV-I 0 W/m 2,2 C 3,1 C 3,2 km/h (1 Bft) 93,62 %
21.02.2019 03:54 3,1 C 5,6 C 0,6 C 94 % 1026,9 hPa 0,0 l/m 0,3 km/h (0 Bft) SW 215 0 min 0,000 mm 0,0 UV-I 0 W/m 2,2 C 3,1 C 1,6 km/h (1 Bft) 96,00 %
21.02.2019 03:56 3,0 C 5,6 C 0,6 C 93 % 1026,8 hPa 0,0 l/m 0,0 km/h (0 Bft) SW 215 0 min 0,000 mm 0,0 UV-I 0 W/m 2,0 C 3,0 C 0,0 km/h (0 Bft) 93,62 %
21.02.2019 03:58 2,9 C 5,6 C 0,6 C 93 % 1026,9 hPa 0,0 l/m 0,0 km/h (0 Bft) SW 215 0 min 0,000 mm 0,0 UV-I 0 W/m 1,9 C 2,9 C 0,0 km/h (0 Bft) 93,62 %
21.02.2019 04:00 2,9 C 5,6 C 0,6 C 93 % 1026,9 hPa 0,0 l/m 0,7 km/h (0 Bft) SW 215 0 min 0,000 mm 0,0 UV-I 0 W/m 1,9 C 2,9 C 3,2 km/h (1 Bft) 93,62 %
21.02.2019 04:02 2,9 C 5,6 C 0,6 C 94 % 1026,9 hPa 0,0 l/m 1,5 km/h (1 Bft) SW 215 0 min 0,000 mm 0,0 UV-I 0 W/m 2,0 C 2,9 C 3,2 km/h (1 Bft) 92,31 %
21.02.2019 04:04 3,0 C 5,6 C 0,6 C 94 % 1026,9 hPa 0,0 l/m 2,0 km/h (1 Bft) SW 215 0 min 0,000 mm 0,0 UV-I 0 W/m 2,1 C 3,0 C 3,2 km/h (1 Bft) 96,92 %
21.02.2019 04:06 2,9 C 5,6 C 0,6 C 93 % 1026,9 hPa 0,0 l/m 2,8 km/h (1 Bft) SW 215 0 min 0,000 mm 0,0 UV-I 0 W/m 1,9 C 2,9 C 3,2 km/h (1 Bft) 95,74 %
21.02.2019 04:08 2,7 C 5,6 C 0,6 C 93 % 1026,9 hPa 0,0 l/m 1,8 km/h (1 Bft) SW 215 0 min 0,000 mm 0,0 UV-I 0 W/m 1,7 C 2,7 C 3,2 km/h (1 Bft) 96,00 %
21.02.2019 04:10 2,6 C 5,6 C 0,6 C 93 % 1026,9 hPa 0,0 l/m 1,3 km/h (1 Bft) SW 215 0 min 0,000 mm 0,0 UV-I 0 W/m 1,6 C 2,6 C 3,2 km/h (1 Bft) 97,37 %
21.02.2019 04:12 2,8 C 5,6 C 0,6 C 94 % 1026,9 hPa 0,0 l/m 1,5 km/h (1 Bft) SW 215 0 min 0,000 mm 0,0 UV-I 0 W/m 1,9 C 2,8 C 3,2 km/h (1 Bft) 91,49 %
21.02.2019 04:14 2,9 C 5,6 C 0,0 C 94 % 1026,9 hPa 0,0 l/m 1,3 km/h (1 Bft) SW 215 0 min 0,000 mm 0,0 UV-I 0 W/m 2,0 C 2,9 C 1,6 km/h (1 Bft) 95,74 %
21.02.2019 04:16 3,0 C 5,6 C 0,6 C 94 % 1026,9 hPa 0,0 l/m 1,2 km/h (1 Bft) SW 215 0 min 0,000 mm 0,0 UV-I 0 W/m 2,1 C 3,0 C 1,6 km/h (1 Bft) 96,00 %
21.02.2019 04:18 3,1 C 5,6 C 0,6 C 94 % 1026,9 hPa 0,0 l/m 1,4 km/h (1 Bft) SW 215 0 min 0,000 mm 0,0 UV-I 0 W/m 2,2 C 3,1 C 3,2 km/h (1 Bft) 98,00 %
21.02.2019 04:20 3,1 C 5,6 C 0,6 C 93 % 1026,9 hPa 0,0 l/m 0,9 km/h (0 Bft) SW 215 0 min 0,000 mm 0,0 UV-I 0 W/m 2,1 C 3,1 C 1,6 km/h (1 Bft) 96,00 %
21.02.2019 04:22 2,9 C 5,6 C 0,6 C 93 % 1026,9 hPa 0,0 l/m 1,6 km/h (1 Bft) SW 215 0 min 0,000 mm 0,0 UV-I 0 W/m 1,9 C 2,9 C 3,2 km/h (1 Bft) 95,74 %
21.02.2019 04:24 2,8 C 5,6 C 0,6 C 93 % 1027,0 hPa 0,0 l/m 1,6 km/h (1 Bft) SW 215 0 min 0,000 mm 0,0 UV-I 0 W/m 1,8 C 2,8 C 1,6 km/h (1 Bft) 97,56 %
21.02.2019 04:26 2,8 C 5,6 C 0,6 C 93 % 1026,9 hPa 0,0 l/m 2,2 km/h (1 Bft) SW 215 0 min 0,000 mm 0,0 UV-I 0 W/m 1,8 C 2,8 C 3,2 km/h (1 Bft) 97,87 %
21.02.2019 04:28 2,8 C 5,6 C 1,1 C 94 % 1027,0 hPa 0,0 l/m 2,7 km/h (1 Bft) SW 215 0 min 0,000 mm 0,0 UV-I 0 W/m 1,9 C 2,8 C 3,2 km/h (1 Bft) 94,00 %
21.02.2019 04:30 2,8 C 5,6 C 1,1 C 94 % 1027,0 hPa 0,0 l/m 3,4 km/h (1 Bft) SW 215 0 min 0,000 mm 0,0 UV-I 0 W/m 1,9 C 2,8 C 4,8 km/h (1 Bft) 100,00 %
21.02.2019 04:32 2,8 C 5,6 C 1,1 C 93 % 1027,0 hPa 0,0 l/m 4,2 km/h (1 Bft) SW 215 0 min 0,000 mm 0,0 UV-I 0 W/m 1,8 C 2,8 C 4,8 km/h (1 Bft) 100,00 %
21.02.2019 04:34 2,7 C 5,6 C 1,1 C 93 % 1027,0 hPa 0,0 l/m 4,7 km/h (1 Bft) SW 215 0 min 0,000 mm 0,0 UV-I 0 W/m 1,7 C 2,7 C 4,8 km/h (1 Bft) 95,74 %
21.02.2019 04:36 2,7 C 5,6 C 1,1 C 93 % 1027,0 hPa 0,0 l/m 4,4 km/h (1 Bft) SW 215 0 min 0,000 mm 0,0 UV-I 0 W/m 1,7 C 2,7 C 6,4 km/h (2 Bft) 100,00 %
21.02.2019 04:38 2,7 C 5,6 C 1,1 C 94 % 1027,0 hPa 0,0 l/m 3,7 km/h (1 Bft) SW 215 0 min 0,000 mm 0,0 UV-I 0 W/m 1,8 C 2,7 C 4,8 km/h (1 Bft) 97,56 %
21.02.2019 04:40 2,7 C 5,6 C 1,1 C 94 % 1027,1 hPa 0,0 l/m 3,4 km/h (1 Bft) SW 215 0 min 0,000 mm 0,0 UV-I 0 W/m 1,8 C 2,7 C 4,8 km/h (1 Bft) 100,00 %
21.02.2019 04:42 2,8 C 5,6 C 1,1 C 94 % 1027,0 hPa 0,0 l/m 4,9 km/h (1 Bft) S-SW 194 0 min 0,000 mm 0,0 UV-I 0 W/m 1,9 C 2,8 C 6,4 km/h (2 Bft) 98,00 %
21.02.2019 04:44 2,9 C 5,6 C 1,1 C 94 % 1027,0 hPa 0,0 l/m 4,5 km/h (1 Bft) S-SW 194 0 min 0,000 mm 0,0 UV-I 0 W/m 2,0 C 2,9 C 6,4 km/h (2 Bft) 100,00 %
21.02.2019 04:46 2,9 C 5,6 C 1,1 C 94 % 1027,1 hPa 0,0 l/m 3,1 km/h (1 Bft) S-SW 194 0 min 0,000 mm 0,0 UV-I 0 W/m 2,0 C 2,9 C 4,8 km/h (1 Bft) 100,00 %
21.02.2019 04:48 3,0 C 5,6 C 1,1 C 94 % 1027,1 hPa 0,0 l/m 3,4 km/h (1 Bft) S-SW 196 0 min 0,000 mm 0,0 UV-I 0 W/m 2,1 C 3,0 C 4,8 km/h (1 Bft) 100,00 %
21.02.2019 04:50 3,0 C 5,6 C 1,1 C 94 % 1027,1 hPa 0,0 l/m 3,7 km/h (1 Bft) S-SW 196 0 min 0,000 mm 0,0 UV-I 0 W/m 2,1 C 3,0 C 4,8 km/h (1 Bft) 100,00 %
21.02.2019 04:52 3,0 C 5,6 C 1,1 C 94 % 1027,1 hPa 0,0 l/m 3,5 km/h (1 Bft) S-SW 196 0 min 0,000 mm 0,0 UV-I 0 W/m 2,1 C 3,0 C 4,8 km/h (1 Bft) 100,00 %
21.02.2019 04:54 2,8 C 5,6 C 1,1 C 93 % 1027,1 hPa 0,0 l/m 3,1 km/h (1 Bft) S-SW 196 0 min 0,000 mm 0,0 UV-I 0 W/m 1,8 C 2,8 C 4,8 km/h (1 Bft) 98,00 %
21.02.2019 04:56 2,8 C 5,6 C 1,1 C 93 % 1027,0 hPa 0,0 l/m 3,5 km/h (1 Bft) S-SW 196 0 min 0,000 mm 0,0 UV-I 0 W/m 1,8 C 2,8 C 4,8 km/h (1 Bft) 97,14 %
21.02.2019 04:58 2,8 C 5,6 C 1,1 C 94 % 1027,1 hPa 0,0 l/m 4,4 km/h (1 Bft) S-SW 196 0 min 0,000 mm 0,0 UV-I 0 W/m 1,9 C 2,8 C 6,4 km/h (2 Bft) 100,00 %
21.02.2019 05:00 2,7 C 5,6 C 1,1 C 93 % 1027,0 hPa 0,0 l/m 4,4 km/h (1 Bft) S-SW 196 0 min 0,000 mm 0,0 UV-I 0 W/m 1,7 C 2,7 C 6,4 km/h (2 Bft) 100,00 %
21.02.2019 05:02 2,7 C 5,6 C 1,1 C 94 % 1027,1 hPa 0,0 l/m 4,1 km/h (1 Bft) S-SW 196 0 min 0,000 mm 0,0 UV-I 0 W/m 1,8 C 2,7 C 4,8 km/h (1 Bft) 100,00 %
21.02.2019 05:04 2,8 C 5,6 C 1,1 C 94 % 1027,0 hPa 0,0 l/m 3,8 km/h (1 Bft) S-SW 196 0 min 0,000 mm 0,0 UV-I 0 W/m 1,9 C 2,8 C 4,8 km/h (1 Bft) 100,00 %
21.02.2019 05:06 2,8 C 5,6 C 1,1 C 94 % 1027,0 hPa 0,0 l/m 4,2 km/h (1 Bft) S-SW 195 0 min 0,000 mm 0,0 UV-I 0 W/m 1,9 C 2,8 C 4,8 km/h (1 Bft) 100,00 %
21.02.2019 05:08 2,8 C 5,6 C 1,1 C 94 % 1027,0 hPa 0,0 l/m 4,2 km/h (1 Bft) S-SW 195 0 min 0,000 mm 0,0 UV-I 0 W/m 1,9 C 2,8 C 6,4 km/h (2 Bft) 100,00 %
21.02.2019 05:10 2,7 C 5,6 C 1,1 C 94 % 1027,0 hPa 0,0 l/m 3,7 km/h (1 Bft) S 186 0 min 0,000 mm 0,0 UV-I 0 W/m 1,8 C 2,7 C 6,4 km/h (2 Bft) 100,00 %
21.02.2019 05:12 2,7 C 5,6 C 1,1 C 94 % 1027,0 hPa 0,0 l/m 4,2 km/h (1 Bft) S-SW 194 0 min 0,000 mm 0,0 UV-I 0 W/m 1,8 C 2,7 C 4,8 km/h (1 Bft) 95,74 %
21.02.2019 05:14 2,7 C 5,6 C 1,1 C 94 % 1027,0 hPa 0,0 l/m 4,3 km/h (1 Bft) S-SW 192 0 min 0,000 mm 0,0 UV-I 0 W/m 1,8 C 2,7 C 6,4 km/h (2 Bft) 97,87 %
21.02.2019 05:16 2,7 C 5,6 C 1,1 C 94 % 1027,0 hPa 0,0 l/m 2,7 km/h (1 Bft) S-SW 192 0 min 0,000 mm 0,0 UV-I 0 W/m 1,8 C 2,7 C 4,8 km/h (1 Bft) 100,00 %
21.02.2019 05:18 2,8 C 5,6 C 1,1 C 94 % 1027,0 hPa 0,0 l/m 2,8 km/h (1 Bft) S-SW 192 0 min 0,000 mm 0,0 UV-I 0 W/m 1,9 C 2,8 C 4,8 km/h (1 Bft) 100,00 %
21.02.2019 05:20 2,8 C 5,6 C 1,1 C 94 % 1027,0 hPa 0,0 l/m 2,7 km/h (1 Bft) S-SW 192 0 min 0,000 mm 0,0 UV-I 0 W/m 1,9 C 2,8 C 4,8 km/h (1 Bft) 95,12 %
21.02.2019 05:22 2,9 C 5,6 C 0,6 C 94 % 1027,0 hPa 0,0 l/m 2,0 km/h (1 Bft) S-SW 192 0 min 0,000 mm 0,0 UV-I 0 W/m 2,0 C 2,9 C 3,2 km/h (1 Bft) 96,23 %
21.02.2019 05:24 3,0 C 5,6 C 0,6 C 94 % 1027,1 hPa 0,0 l/m 2,0 km/h (1 Bft) S-SW 192 0 min 0,000 mm 0,0 UV-I 0 W/m 2,1 C 3,0 C 3,2 km/h (1 Bft) 98,11 %
21.02.2019 05:26 2,9 C 5,6 C 1,1 C 94 % 1027,1 hPa 0,0 l/m 2,0 km/h (1 Bft) S-SW 192 0 min 0,000 mm 0,0 UV-I 0 W/m 2,0 C 2,9 C 3,2 km/h (1 Bft) 97,56 %
21.02.2019 05:28 2,8 C 5,6 C 1,1 C 94 % 1027,0 hPa 0,0 l/m 2,4 km/h (1 Bft) S-SW 192 0 min 0,000 mm 0,0 UV-I 0 W/m 1,9 C 2,8 C 3,2 km/h (1 Bft) 97,14 %
21.02.2019 05:30 2,8 C 5,6 C 1,1 C 93 % 1027,0 hPa 0,0 l/m 3,9 km/h (1 Bft) S-SW 192 0 min 0,000 mm 0,0 UV-I 0 W/m 1,8 C 2,8 C 4,8 km/h (1 Bft) 96,43 %
21.02.2019 05:32 2,7 C 5,6 C 1,7 C 94 % 1027,0 hPa 0,0 l/m 4,0 km/h (1 Bft) S-SW 192 0 min 0,000 mm 0,0 UV-I 0 W/m 1,8 C 2,7 C 4,8 km/h (1 Bft) 95,74 %
21.02.2019 05:34 2,8 C 5,6 C 1,7 C 94 % 1026,9 hPa 0,0 l/m 3,2 km/h (1 Bft) S-SW 192 0 min 0,000 mm 0,0 UV-I 0 W/m 1,9 C 2,8 C 4,8 km/h (1 Bft) 94,00 %
21.02.2019 05:36 2,8 C 5,6 C 1,1 C 94 % 1026,9 hPa 0,0 l/m 2,2 km/h (1 Bft) S-SW 192 0 min 0,000 mm 0,0 UV-I 0 W/m 1,9 C 2,8 C 3,2 km/h (1 Bft) 97,73 %
21.02.2019 05:38 2,8 C 5,6 C 1,1 C 94 % 1026,9 hPa 0,0 l/m 1,2 km/h (1 Bft) S-SW 192 0 min 0,000 mm 0,0 UV-I 0 W/m 1,9 C 2,8 C 1,6 km/h (1 Bft) 98,11 %
21.02.2019 05:40 2,8 C 5,6 C 1,1 C 94 % 1026,9 hPa 0,0 l/m 2,3 km/h (1 Bft) S-SW 192 0 min 0,000 mm 0,0 UV-I 0 W/m 1,9 C 2,8 C 3,2 km/h (1 Bft) 94,74 %
21.02.2019 05:42 2,9 C 5,6 C 0,6 C 94 % 1026,9 hPa 0,0 l/m 3,5 km/h (1 Bft) S-SW 192 0 min 0,000 mm 0,0 UV-I 0 W/m 2,0 C 2,9 C 4,8 km/h (1 Bft) 100,00 %
21.02.2019 05:44 3,0 C 5,6 C 0,6 C 94 % 1027,0 hPa 0,0 l/m 3,6 km/h (1 Bft) S-SW 192 0 min 0,000 mm 0,0 UV-I 0 W/m 2,1 C 3,0 C 4,8 km/h (1 Bft) 100,00 %
21.02.2019 05:46 2,9 C 5,6 C 1,1 C 94 % 1027,0 hPa 0,0 l/m 2,5 km/h (1 Bft) S-SW 192 0 min 0,000 mm 0,0 UV-I 0 W/m 2,0 C 2,9 C 3,2 km/h (1 Bft) 98,11 %
21.02.2019 05:48 2,8 C 5,6 C 1,1 C 94 % 1027,0 hPa 0,0 l/m 3,0 km/h (1 Bft) S-SW 192 0 min 0,000 mm 0,0 UV-I 0 W/m 1,9 C 2,8 C 3,2 km/h (1 Bft) 97,87 %
21.02.2019 05:50 2,7 C 5,6 C 0,6 C 93 % 1027,0 hPa 0,0 l/m 2,4 km/h (1 Bft) S-SW 192 0 min 0,000 mm 0,0 UV-I 0 W/m 1,7 C 2,7 C 3,2 km/h (1 Bft) 98,11 %
21.02.2019 05:52 2,6 C 5,6 C 0,6 C 94 % 1026,9 hPa 0,0 l/m 2,5 km/h (1 Bft) S-SW 192 0 min 0,000 mm 0,0 UV-I 0 W/m 1,7 C 2,6 C 3,2 km/h (1 Bft) 100,00 %
21.02.2019 05:54 2,6 C 5,6 C 0,6 C 94 % 1026,9 hPa 0,0 l/m 2,5 km/h (1 Bft) S-SW 192 0 min 0,000 mm 0,0 UV-I 0 W/m 1,7 C 2,6 C 3,2 km/h (1 Bft) 100,00 %
21.02.2019 05:56 2,6 C 5,6 C 0,6 C 94 % 1026,9 hPa 0,0 l/m 3,5 km/h (1 Bft) S-SW 192 0 min 0,000 mm 0,0 UV-I 0 W/m 1,7 C 2,6 C 4,8 km/h (1 Bft) 98,00 %
21.02.2019 05:58 2,5 C 5,6 C 1,1 C 93 % 1026,9 hPa 0,0 l/m 4,3 km/h (1 Bft) S-SW 193 0 min 0,000 mm 0,0 UV-I 0 W/m 1,5 C 2,5 C 4,8 km/h (1 Bft) 100,00 %
21.02.2019 06:00 2,4 C 5,6 C 1,1 C 94 % 1027,0 hPa 0,0 l/m 3,7 km/h (1 Bft) S-SW 193 0 min 0,000 mm 0,0 UV-I 0 W/m 1,5 C 2,4 C 4,8 km/h (1 Bft) 96,00 %
21.02.2019 06:02 2,4 C 5,6 C 1,1 C 94 % 1027,0 hPa 0,0 l/m 3,5 km/h (1 Bft) S-SW 209 0 min 0,000 mm 0,0 UV-I 0 W/m 1,5 C 2,4 C 4,8 km/h (1 Bft) 89,47 %
21.02.2019 06:04 2,4 C 5,6 C 0,6 C 94 % 1027,0 hPa 0,0 l/m 3,6 km/h (1 Bft) S-SW 209 0 min 0,000 mm 0,0 UV-I 0 W/m 1,5 C 2,4 C 4,8 km/h (1 Bft) 98,21 %
21.02.2019 06:06 2,4 C 5,6 C 0,6 C 94 % 1027,0 hPa 0,0 l/m 3,6 km/h (1 Bft) S-SW 209 0 min 0,000 mm 0,0 UV-I 0 W/m 1,5 C 2,4 C 4,8 km/h (1 Bft) 97,56 %
21.02.2019 06:08 2,5 C 5,6 C 0,6 C 94 % 1027,0 hPa 0,0 l/m 4,7 km/h (1 Bft) SW 235 0 min 0,000 mm 0,0 UV-I 0 W/m 1,6 C 2,5 C 6,4 km/h (2 Bft) 96,00 %
21.02.2019 06:10 2,6 C 5,6 C 1,1 C 94 % 1027,0 hPa 0,0 l/m 3,8 km/h (1 Bft) SW 235 0 min 0,000 mm 0,0 UV-I 0 W/m 1,7 C 2,6 C 4,8 km/h (1 Bft) 96,00 %
21.02.2019 06:12 2,7 C 5,6 C 1,1 C 94 % 1027,0 hPa 0,0 l/m 3,1 km/h (1 Bft) W-SW 255 0 min 0,000 mm 0,0 UV-I 0 W/m 1,8 C 2,7 C 4,8 km/h (1 Bft) 100,00 %
21.02.2019 06:14 2,8 C 5,6 C 1,7 C 95 % 1027,0 hPa 0,0 l/m 3,0 km/h (1 Bft) W-SW 256 0 min 0,000 mm 0,0 UV-I 0 W/m 2,1 C 2,8 C 4,8 km/h (1 Bft) 96,00 %
21.02.2019 06:16 2,8 C 5,6 C 1,7 C 94 % 1027,0 hPa 0,0 l/m 2,6 km/h (1 Bft) W 267 0 min 0,000 mm 0,0 UV-I 0 W/m 1,9 C 2,8 C 4,8 km/h (1 Bft) 98,00 %
21.02.2019 06:18 2,9 C 5,6 C 1,7 C 94 % 1027,1 hPa 0,0 l/m 3,7 km/h (1 Bft) W 267 0 min 0,000 mm 0,0 UV-I 0 W/m 2,0 C 2,9 C 4,8 km/h (1 Bft) 98,00 %
21.02.2019 06:20 3,0 C 5,6 C 1,7 C 94 % 1027,0 hPa 0,0 l/m 2,6 km/h (1 Bft) W 268 0 min 0,000 mm 0,0 UV-I 0 W/m 2,1 C 3,0 C 4,8 km/h (1 Bft) 97,87 %
21.02.2019 06:22 3,0 C 5,6 C 1,7 C 94 % 1027,1 hPa 0,0 l/m 2,6 km/h (1 Bft) W 268 0 min 0,000 mm 0,0 UV-I 0 W/m 2,1 C 3,0 C 3,2 km/h (1 Bft) 97,92 %
21.02.2019 06:24 3,1 C 5,6 C 1,1 C 94 % 1027,1 hPa 0,0 l/m 3,3 km/h (1 Bft) W 267 0 min 0,000 mm 0,0 UV-I 0 W/m 2,2 C 3,1 C 4,8 km/h (1 Bft) 97,56 %
21.02.2019 06:26 3,1 C 5,6 C 1,7 C 94 % 1027,1 hPa 0,0 l/m 2,2 km/h (1 Bft) W 267 0 min 0,000 mm 0,0 UV-I 0 W/m 2,2 C 3,1 C 3,2 km/h (1 Bft) 96,23 %
21.02.2019 06:28 3,1 C 5,6 C 1,7 C 94 % 1027,1 hPa 0,0 l/m 1,6 km/h (1 Bft) W 267 0 min 0,000 mm 0,0 UV-I 0 W/m 2,2 C 3,1 C 3,2 km/h (1 Bft) 97,87 %
21.02.2019 06:30 3,1 C 5,6 C 1,7 C 94 % 1027,1 hPa 0,0 l/m 1,0 km/h (0 Bft) W 267 0 min 0,000 mm 0,0 UV-I 0 W/m 2,2 C 3,1 C 1,6 km/h (1 Bft) 95,74 %
21.02.2019 06:32 3,1 C 5,6 C 1,7 C 94 % 1027,1 hPa 0,0 l/m 0,9 km/h (0 Bft) W 267 0 min 0,000 mm 0,0 UV-I 0 W/m 2,2 C 3,1 C 1,6 km/h (1 Bft) 97,37 %
21.02.2019 06:34 3,1 C 5,6 C 1,7 C 94 % 1027,1 hPa 0,0 l/m 1,7 km/h (1 Bft) W 267 0 min 0,000 mm 0,0 UV-I 0 W/m 2,2 C 3,1 C 3,2 km/h (1 Bft) 98,00 %
21.02.2019 06:36 3,0 C 5,6 C 1,7 C 94 % 1027,1 hPa 0,0 l/m 2,5 km/h (1 Bft) W 267 0 min 0,000 mm 0,0 UV-I 0 W/m 2,1 C 3,0 C 3,2 km/h (1 Bft) 96,00 %
21.02.2019 06:38 2,9 C 5,6 C 1,7 C 94 % 1027,1 hPa 0,0 l/m 2,0 km/h (1 Bft) W 267 0 min 0,000 mm 0,0 UV-I 0 W/m 2,0 C 2,9 C 3,2 km/h (1 Bft) 92,00 %
21.02.2019 06:40 3,0 C 5,6 C 1,7 C 94 % 1027,1 hPa 0,0 l/m 1,2 km/h (1 Bft) W 267 0 min 0,000 mm 0,0 UV-I 0 W/m 2,1 C 3,0 C 1,6 km/h (1 Bft) 97,37 %
21.02.2019 06:42 3,0 C 5,6 C 1,7 C 94 % 1027,1 hPa 0,0 l/m 0,1 km/h (0 Bft) W 267 0 min 0,000 mm 0,0 UV-I 0 W/m 2,1 C 3,0 C 1,6 km/h (1 Bft) 95,74 %
21.02.2019 06:44 3,0 C 5,6 C 1,7 C 94 % 1027,1 hPa 0,0 l/m 1,6 km/h (1 Bft) W 267 0 min 0,000 mm 0,0 UV-I 0 W/m 2,1 C 3,0 C 3,2 km/h (1 Bft) 96,00 %
21.02.2019 06:46 3,1 C 5,6 C 1,7 C 94 % 1027,1 hPa 0,0 l/m 3,2 km/h (1 Bft) W 267 0 min 0,000 mm 0,0 UV-I 0 W/m 2,2 C 3,1 C 4,8 km/h (1 Bft) 98,00 %
21.02.2019 06:48 3,1 C 5,6 C 1,7 C 94 % 1027,0 hPa 0,0 l/m 3,4 km/h (1 Bft) W 266 0 min 0,000 mm 0,0 UV-I 0 W/m 2,2 C 3,1 C 4,8 km/h (1 Bft) 94,00 %
21.02.2019 06:50 2,9 C 5,6 C 1,7 C 93 % 1027,1 hPa 0,0 l/m 4,3 km/h (1 Bft) S 186 0 min 0,000 mm 0,0 UV-I 0 W/m 1,9 C 2,9 C 6,4 km/h (2 Bft) 97,37 %
21.02.2019 06:52 2,9 C 5,6 C 1,7 C 94 % 1027,1 hPa 0,0 l/m 4,3 km/h (1 Bft) S 175 0 min 0,000 mm 0,0 UV-I 0 W/m 2,0 C 2,9 C 4,8 km/h (1 Bft) 98,11 %
21.02.2019 06:54 2,9 C 5,6 C 1,7 C 94 % 1027,1 hPa 0,0 l/m 4,2 km/h (1 Bft) S 177 0 min 0,000 mm 0,0 UV-I 0 W/m 2,0 C 2,9 C 4,8 km/h (1 Bft) 98,00 %
21.02.2019 06:56 2,9 C 5,6 C 1,7 C 94 % 1027,1 hPa 0,0 l/m 3,7 km/h (1 Bft) S 178 0 min 0,000 mm 0,0 UV-I 1 W/m 2,0 C 2,9 C 4,8 km/h (1 Bft) 93,62 %
21.02.2019 06:58 2,9 C 5,6 C 1,7 C 94 % 1027,2 hPa 0,0 l/m 3,7 km/h (1 Bft) S 179 0 min 0,000 mm 0,0 UV-I 5 W/m 2,0 C 2,9 C 4,8 km/h (1 Bft) 100,00 %
21.02.2019 07:00 2,9 C 5,6 C 2,2 C 94 % 1027,1 hPa 0,0 l/m 3,9 km/h (1 Bft) S 180 0 min 0,000 mm 0,0 UV-I 5 W/m 2,0 C 2,9 C 4,8 km/h (1 Bft) 97,22 %
21.02.2019 07:02 3,0 C 5,6 C 2,2 C 94 % 1027,2 hPa 0,0 l/m 3,1 km/h (1 Bft) S 180 0 min 0,000 mm 0,0 UV-I 5 W/m 2,1 C 3,0 C 4,8 km/h (1 Bft) 94,00 %
21.02.2019 07:04 3,1 C 5,6 C 1,7 C 94 % 1027,2 hPa 0,0 l/m 2,9 km/h (1 Bft) S-SW 198 0 min 0,000 mm 0,0 UV-I 5 W/m 2,2 C 3,1 C 4,8 km/h (1 Bft) 98,11 %
21.02.2019 07:06 3,0 C 5,6 C 1,7 C 94 % 1027,2 hPa 0,0 l/m 4,1 km/h (1 Bft) SW 223 0 min 0,000 mm 0,0 UV-I 7 W/m 2,1 C 3,0 C 4,8 km/h (1 Bft) 97,87 %
21.02.2019 07:08 3,0 C 5,6 C 1,7 C 94 % 1027,2 hPa 0,0 l/m 3,8 km/h (1 Bft) SW 223 0 min 0,000 mm 0,0 UV-I 7 W/m 2,1 C 3,0 C 4,8 km/h (1 Bft) 100,00 %
21.02.2019 07:10 3,1 C 5,6 C 2,2 C 94 % 1027,2 hPa 0,0 l/m 3,0 km/h (1 Bft) SW 223 0 min 0,000 mm 0,0 UV-I 7 W/m 2,2 C 3,1 C 4,8 km/h (1 Bft) 97,87 %
21.02.2019 07:12 3,0 C 5,6 C 2,2 C 94 % 1027,2 hPa 0,0 l/m 2,1 km/h (1 Bft) SW 223 0 min 0,000 mm 0,0 UV-I 8 W/m 2,1 C 3,0 C 3,2 km/h (1 Bft) 97,87 %
21.02.2019 07:14 3,0 C 5,6 C 2,2 C 94 % 1027,2 hPa 0,0 l/m 3,3 km/h (1 Bft) SW 223 0 min 0,000 mm 0,0 UV-I 9 W/m 2,1 C 3,0 C 4,8 km/h (1 Bft) 97,14 %
21.02.2019 07:16 3,1 C 5,6 C 2,2 C 94 % 1027,2 hPa 0,0 l/m 3,4 km/h (1 Bft) S-SW 209 0 min 0,000 mm 0,0 UV-I 9 W/m 2,2 C 3,1 C 4,8 km/h (1 Bft) 98,21 %
21.02.2019 07:18 3,1 C 5,6 C 2,2 C 94 % 1027,3 hPa 0,0 l/m 3,1 km/h (1 Bft) S-SW 210 0 min 0,000 mm 0,0 UV-I 9 W/m 2,2 C 3,1 C 4,8 km/h (1 Bft) 96,00 %
21.02.2019 07:20 3,1 C 5,6 C 2,2 C 94 % 1027,3 hPa 0,0 l/m 2,9 km/h (1 Bft) S-SW 210 0 min 0,000 mm 0,0 UV-I 10 W/m 2,2 C 3,1 C 3,2 km/h (1 Bft) 97,37 %
21.02.2019 07:22 3,1 C 5,6 C 2,2 C 94 % 1027,4 hPa 0,0 l/m 3,4 km/h (1 Bft) S-SW 210 0 min 0,000 mm 0,0 UV-I 11 W/m 2,2 C 3,1 C 4,8 km/h (1 Bft) 94,00 %
21.02.2019 07:24 3,1 C 5,6 C 2,2 C 94 % 1027,4 hPa 0,0 l/m 3,3 km/h (1 Bft) S-SW 210 0 min 0,000 mm 0,0 UV-I 11 W/m 2,2 C 3,1 C 4,8 km/h (1 Bft) 98,00 %
21.02.2019 07:26 3,2 C 5,6 C 2,2 C 94 % 1027,5 hPa 0,0 l/m 3,3 km/h (1 Bft) S-SW 210 0 min 0,000 mm 0,0 UV-I 12 W/m 2,3 C 3,2 C 4,8 km/h (1 Bft) 95,83 %
21.02.2019 07:28 3,2 C 5,6 C 2,2 C 94 % 1027,5 hPa 0,0 l/m 3,2 km/h (1 Bft) S-SW 211 0 min 0,000 mm 0,0 UV-I 12 W/m 2,3 C 3,2 C 4,8 km/h (1 Bft) 96,72 %
21.02.2019 07:30 3,2 C 5,6 C 2,2 C 94 % 1027,5 hPa 0,0 l/m 3,5 km/h (1 Bft) S-SW 211 0 min 0,000 mm 0,0 UV-I 13 W/m 2,3 C 3,2 C 4,8 km/h (1 Bft) 98,00 %
21.02.2019 07:32 3,2 C 5,6 C 2,2 C 94 % 1027,6 hPa 0,0 l/m 4,1 km/h (1 Bft) S-SW 211 0 min 0,000 mm 0,0 UV-I 14 W/m 2,3 C 3,2 C 4,8 km/h (1 Bft) 97,87 %
21.02.2019 07:34 3,2 C 5,6 C 2,2 C 93 % 1027,6 hPa 0,0 l/m 4,3 km/h (1 Bft) S-SW 211 0 min 0,000 mm 0,0 UV-I 14 W/m 2,2 C 3,2 C 4,8 km/h (1 Bft) 96,23 %
21.02.2019 07:36 3,2 C 5,6 C 2,8 C 93 % 1027,5 hPa 0,0 l/m 3,9 km/h (1 Bft) S-SW 210 0 min 0,000 mm 0,0 UV-I 15 W/m 2,2 C 3,2 C 4,8 km/h (1 Bft) 100,00 %
21.02.2019 07:38 3,2 C 5,6 C 2,8 C 93 % 1027,6 hPa 0,0 l/m 4,0 km/h (1 Bft) S-SW 210 0 min 0,000 mm 0,0 UV-I 16 W/m 2,2 C 3,2 C 4,8 km/h (1 Bft) 96,72 %
21.02.2019 07:40 3,2 C 5,6 C 2,8 C 94 % 1027,6 hPa 0,0 l/m 3,2 km/h (1 Bft) S-SW 210 0 min 0,000 mm 0,0 UV-I 16 W/m 2,3 C 3,2 C 4,8 km/h (1 Bft) 97,92 %
21.02.2019 07:42 3,3 C 5,6 C 2,8 C 93 % 1027,6 hPa 0,0 l/m 2,2 km/h (1 Bft) S-SW 210 0 min 0,000 mm 0,0 UV-I 16 W/m 2,3 C 3,3 C 3,2 km/h (1 Bft) 98,00 %
21.02.2019 07:44 3,3 C 5,6 C 2,8 C 93 % 1027,6 hPa 0,0 l/m 3,8 km/h (1 Bft) S-SW 209 0 min 0,000 mm 0,0 UV-I 18 W/m 2,3 C 3,3 C 4,8 km/h (1 Bft) 98,00 %
21.02.2019 07:46 3,3 C 5,6 C 2,8 C 93 % 1027,6 hPa 0,0 l/m 3,7 km/h (1 Bft) S-SW 209 0 min 0,000 mm 0,0 UV-I 19 W/m 2,3 C 3,3 C 4,8 km/h (1 Bft) 97,87 %
21.02.2019 07:48 3,3 C 5,6 C 2,8 C 93 % 1027,7 hPa 0,0 l/m 2,8 km/h (1 Bft) S-SW 210 0 min 0,000 mm 0,0 UV-I 22 W/m 2,3 C 3,3 C 4,8 km/h (1 Bft) 97,56 %
21.02.2019 07:50 3,3 C 5,6 C 2,8 C 93 % 1027,7 hPa 0,0 l/m 2,7 km/h (1 Bft) S-SW 210 0 min 0,000 mm 0,0 UV-I 24 W/m 2,3 C 3,3 C 4,8 km/h (1 Bft) 98,11 %
21.02.2019 07:52 3,3 C 5,6 C 2,8 C 93 % 1027,7 hPa 0,0 l/m 2,6 km/h (1 Bft) S-SW 210 0 min 0,000 mm 0,0 UV-I 26 W/m 2,3 C 3,3 C 3,2 km/h (1 Bft) 95,45 %
21.02.2019 07:54 3,3 C 5,6 C 2,2 C 93 % 1027,7 hPa 0,0 l/m 3,1 km/h (1 Bft) S-SW 211 0 min 0,000 mm 0,0 UV-I 28 W/m 2,3 C 3,3 C 4,8 km/h (1 Bft) 95,74 %
21.02.2019 07:56 3,3 C 5,6 C 2,8 C 93 % 1027,7 hPa 0,0 l/m 4,2 km/h (1 Bft) S-SW 201 0 min 0,000 mm 0,0 UV-I 31 W/m 2,3 C 3,3 C 6,4 km/h (2 Bft) 91,43 %
21.02.2019 07:58 3,3 C 5,6 C 2,8 C 93 % 1027,7 hPa 0,0 l/m 4,1 km/h (1 Bft) S-SW 202 0 min 0,000 mm 0,0 UV-I 35 W/m 2,3 C 3,3 C 4,8 km/h (1 Bft) 94,34 %
21.02.2019 08:00 3,3 C 5,6 C 2,8 C 93 % 1027,7 hPa 0,0 l/m 3,3 km/h (1 Bft) S-SW 202 0 min 0,000 mm 0,0 UV-I 41 W/m 2,3 C 3,3 C 4,8 km/h (1 Bft) 91,49 %
21.02.2019 08:02 3,3 C 5,6 C 2,8 C 93 % 1027,7 hPa 0,0 l/m 2,4 km/h (1 Bft) S-SW 202 0 min 0,000 mm 0,0 UV-I 44 W/m 2,3 C 3,3 C 3,2 km/h (1 Bft) 94,74 %
21.02.2019 08:04 3,3 C 5,6 C 3,3 C 93 % 1027,8 hPa 0,0 l/m 3,1 km/h (1 Bft) S-SW 202 0 min 0,000 mm 0,0 UV-I 46 W/m 2,3 C 3,3 C 4,8 km/h (1 Bft) 90,57 %
21.02.2019 08:06 3,4 C 5,6 C 3,3 C 93 % 1027,8 hPa 0,0 l/m 2,8 km/h (1 Bft) S-SW 202 0 min 0,000 mm 0,0 UV-I 43 W/m 2,4 C 3,4 C 3,2 km/h (1 Bft) 96,00 %
21.02.2019 08:08 3,4 C 5,6 C 3,3 C 93 % 1027,9 hPa 0,0 l/m 2,2 km/h (1 Bft) S-SW 202 0 min 0,000 mm 0,0 UV-I 41 W/m 2,4 C 3,4 C 3,2 km/h (1 Bft) 94,34 %
21.02.2019 08:10 3,4 C 5,6 C 3,3 C 93 % 1027,9 hPa 0,0 l/m 2,3 km/h (1 Bft) S-SW 202 0 min 0,000 mm 0,0 UV-I 41 W/m 2,4 C 3,4 C 4,8 km/h (1 Bft) 94,44 %
21.02.2019 08:12 3,4 C 5,6 C 3,3 C 93 % 1027,9 hPa 0,0 l/m 2,6 km/h (1 Bft) S-SW 202 0 min 0,000 mm 0,0 UV-I 40 W/m 2,4 C 3,4 C 3,2 km/h (1 Bft) 98,08 %
21.02.2019 08:14 3,5 C 5,6 C 3,3 C 93 % 1028,0 hPa 0,0 l/m 2,4 km/h (1 Bft) S-SW 202 0 min 0,000 mm 0,0 UV-I 44 W/m 2,5 C 3,5 C 3,2 km/h (1 Bft) 96,00 %
21.02.2019 08:16 3,6 C 5,6 C 3,3 C 93 % 1028,0 hPa 0,0 l/m 3,2 km/h (1 Bft) S-SW 202 0 min 0,000 mm 0,0 UV-I 47 W/m 2,6 C 3,6 C 4,8 km/h (1 Bft) 98,00 %
21.02.2019 08:18 3,6 C 5,6 C 3,3 C 93 % 1027,9 hPa 0,0 l/m 3,7 km/h (1 Bft) S-SW 202 0 min 0,000 mm 0,0 UV-I 48 W/m 2,6 C 3,6 C 4,8 km/h (1 Bft) 94,44 %
21.02.2019 08:20 3,6 C 5,6 C 3,9 C 93 % 1027,9 hPa 0,0 l/m 3,0 km/h (1 Bft) S-SW 202 0 min 0,000 mm 0,0 UV-I 53 W/m 2,6 C 3,6 C 4,8 km/h (1 Bft) 95,74 %
21.02.2019 08:22 3,6 C 5,6 C 3,9 C 93 % 1027,9 hPa 0,0 l/m 3,8 km/h (1 Bft) S-SW 202 0 min 0,000 mm 0,0 UV-I 56 W/m 2,6 C 3,6 C 4,8 km/h (1 Bft) 95,74 %
21.02.2019 08:24 3,5 C 5,6 C 3,9 C 93 % 1027,9 hPa 0,0 l/m 4,6 km/h (1 Bft) S-SW 209 0 min 0,000 mm 0,0 UV-I 64 W/m 2,5 C 3,5 C 6,4 km/h (2 Bft) 94,00 %
21.02.2019 08:26 3,6 C 5,6 C 3,9 C 93 % 1027,9 hPa 0,0 l/m 3,8 km/h (1 Bft) S-SW 209 0 min 0,000 mm 0,0 UV-I 73 W/m 2,6 C 3,6 C 4,8 km/h (1 Bft) 95,74 %
21.02.2019 08:28 3,6 C 5,6 C 3,9 C 93 % 1027,8 hPa 0,0 l/m 2,6 km/h (1 Bft) S-SW 208 0 min 0,000 mm 0,0 UV-I 83 W/m 2,6 C 3,6 C 4,8 km/h (1 Bft) 92,00 %
21.02.2019 08:30 3,7 C 5,6 C 4,4 C 93 % 1027,8 hPa 0,0 l/m 2,3 km/h (1 Bft) S-SW 208 0 min 0,000 mm 0,0 UV-I 91 W/m 2,7 C 3,7 C 4,8 km/h (1 Bft) 94,00 %
21.02.2019 08:32 3,7 C 5,6 C 4,4 C 93 % 1027,8 hPa 0,0 l/m 2,3 km/h (1 Bft) S-SW 208 0 min 0,000 mm 0,0 UV-I 96 W/m 2,7 C 3,7 C 4,8 km/h (1 Bft) 93,62 %
21.02.2019 08:34 3,8 C 5,6 C 4,4 C 93 % 1027,9 hPa 0,0 l/m 3,1 km/h (1 Bft) S-SW 208 0 min 0,000 mm 0,0 UV-I 99 W/m 2,8 C 3,8 C 4,8 km/h (1 Bft) 97,14 %
21.02.2019 08:36 3,8 C 5,6 C 5,0 C 93 % 1027,8 hPa 0,0 l/m 2,6 km/h (1 Bft) S-SW 208 0 min 0,000 mm 0,0 UV-I 101 W/m 2,8 C 3,8 C 4,8 km/h (1 Bft) 98,11 %
21.02.2019 08:38 3,9 C 5,6 C 5,0 C 93 % 1027,8 hPa 0,0 l/m 2,1 km/h (1 Bft) S-SW 208 0 min 0,000 mm 0,0 UV-I 107 W/m 2,9 C 3,9 C 3,2 km/h (1 Bft) 96,00 %
21.02.2019 08:40 4,0 C 5,6 C 5,6 C 93 % 1027,8 hPa 0,0 l/m 2,2 km/h (1 Bft) S-SW 208 0 min 0,000 mm 0,0 UV-I 116 W/m 3,0 C 4,0 C 3,2 km/h (1 Bft) 97,87 %
21.02.2019 08:42 4,1 C 5,6 C 5,6 C 92 % 1027,8 hPa 0,0 l/m 2,7 km/h (1 Bft) S-SW 208 0 min 0,000 mm 0,0 UV-I 117 W/m 2,9 C 4,1 C 4,8 km/h (1 Bft) 98,00 %
21.02.2019 08:44 4,2 C 5,6 C 5,6 C 92 % 1027,8 hPa 0,0 l/m 1,7 km/h (1 Bft) S-SW 208 0 min 0,000 mm 0,0 UV-I 112 W/m 3,0 C 4,2 C 3,2 km/h (1 Bft) 94,74 %
21.02.2019 08:46 4,2 C 5,6 C 5,6 C 92 % 1027,9 hPa 0,0 l/m 2,0 km/h (1 Bft) S-SW 208 0 min 0,000 mm 0,0 UV-I 110 W/m 3,0 C 4,2 C 3,2 km/h (1 Bft) 96,30 %
21.02.2019 08:48 4,3 C 5,6 C 6,1 C 92 % 1027,9 hPa 0,0 l/m 3,8 km/h (1 Bft) S-SW 208 0 min 0,000 mm 0,0 UV-I 123 W/m 3,1 C 4,3 C 6,4 km/h (2 Bft) 97,01 %
21.02.2019 08:50 4,3 C 5,6 C 6,1 C 92 % 1027,8 hPa 0,0 l/m 2,9 km/h (1 Bft) S-SW 208 0 min 0,000 mm 0,0 UV-I 140 W/m 3,1 C 4,3 C 4,8 km/h (1 Bft) 98,11 %
21.02.2019 08:52 4,4 C 5,6 C 6,7 C 92 % 1027,9 hPa 0,0 l/m 2,5 km/h (1 Bft) S-SW 208 2 min 0,000 mm 0,0 UV-I 173 W/m 3,2 C 4,4 C 4,8 km/h (1 Bft) 97,87 %
21.02.2019 08:54 4,5 C 5,6 C 6,7 C 92 % 1027,8 hPa 0,0 l/m 3,2 km/h (1 Bft) S-SW 210 2 min 0,000 mm 0,0 UV-I 197 W/m 3,3 C 4,5 C 4,8 km/h (1 Bft) 97,22 %
21.02.2019 08:56 4,7 C 5,6 C 7,2 C 91 % 1027,9 hPa 0,0 l/m 4,2 km/h (1 Bft) S-SW 213 2 min 0,000 mm 0,0 UV-I 171 W/m 3,4 C 4,7 C 6,4 km/h (2 Bft) 98,00 %
21.02.2019 08:58 4,8 C 5,6 C 7,2 C 91 % 1027,9 hPa 0,0 l/m 4,2 km/h (1 Bft) S-SW 212 0 min 0,000 mm 0,0 UV-I 116 W/m 3,5 C 4,8 C 4,8 km/h (1 Bft) 100,00 %
21.02.2019 09:00 4,8 C 5,6 C 6,7 C 91 % 1027,9 hPa 0,0 l/m 3,7 km/h (1 Bft) S-SW 212 0 min 0,000 mm 0,0 UV-I 100 W/m 3,5 C 4,8 C 6,4 km/h (2 Bft) 94,34 %
21.02.2019 09:02 4,8 C 5,6 C 6,7 C 91 % 1027,9 hPa 0,0 l/m 3,6 km/h (1 Bft) SW 232 0 min 0,025 mm 0,0 UV-I 113 W/m 3,5 C 4,8 C 4,8 km/h (1 Bft) 94,00 %
21.02.2019 09:04 4,8 C 5,6 C 6,7 C 90 % 1027,9 hPa 0,0 l/m 5,2 km/h (1 Bft) S-SW 202 0 min 0,000 mm 0,0 UV-I 117 W/m 3,3 C 4,8 C 6,4 km/h (2 Bft) 100,00 %
21.02.2019 09:06 4,8 C 5,6 C 6,7 C 91 % 1027,9 hPa 0,0 l/m 3,9 km/h (1 Bft) S-SW 208 0 min 0,000 mm 0,0 UV-I 119 W/m 3,5 C 4,8 C 6,4 km/h (2 Bft) 95,74 %
21.02.2019 09:08 4,8 C 5,6 C 7,2 C 91 % 1028,0 hPa 0,0 l/m 4,4 km/h (1 Bft) SW 227 0 min 0,000 mm 0,0 UV-I 132 W/m 3,5 C 4,8 C 6,4 km/h (2 Bft) 98,11 %
21.02.2019 09:10 4,9 C 5,6 C 7,2 C 91 % 1028,0 hPa 0,0 l/m 4,7 km/h (1 Bft) W-SW 246 0 min 0,000 mm 0,0 UV-I 165 W/m 3,6 C 4,9 C 6,4 km/h (2 Bft) 97,87 %
21.02.2019 09:12 5,0 C 5,6 C 7,2 C 91 % 1028,0 hPa 0,0 l/m 3,9 km/h (1 Bft) W-SW 245 0 min 0,000 mm 0,0 UV-I 151 W/m 3,7 C 5,0 C 6,4 km/h (2 Bft) 97,37 %
21.02.2019 09:14 5,1 C 5,6 C 7,2 C 90 % 1028,0 hPa 0,0 l/m 2,9 km/h (1 Bft) W-SW 246 0 min 0,000 mm 0,0 UV-I 145 W/m 3,6 C 5,1 C 4,8 km/h (1 Bft) 98,11 %
21.02.2019 09:16 5,2 C 5,6 C 7,2 C 90 % 1028,0 hPa 0,0 l/m 4,4 km/h (1 Bft) W-SW 257 0 min 0,000 mm 0,0 UV-I 134 W/m 3,7 C 5,2 C 6,4 km/h (2 Bft) 97,73 %
21.02.2019 09:18 5,2 C 5,6 C 7,2 C 90 % 1028,0 hPa 0,0 l/m 3,7 km/h (1 Bft) SW 227 0 min 0,000 mm 0,0 UV-I 129 W/m 3,7 C 5,2 C 4,8 km/h (1 Bft) 95,74 %
21.02.2019 09:20 5,2 C 5,6 C 7,8 C 90 % 1028,0 hPa 0,0 l/m 2,6 km/h (1 Bft) SW 227 0 min 0,000 mm 0,0 UV-I 126 W/m 3,7 C 5,2 C 3,2 km/h (1 Bft) 97,73 %
21.02.2019 09:22 5,3 C 5,6 C 7,8 C 90 % 1028,1 hPa 0,0 l/m 4,6 km/h (1 Bft) W 277 0 min 0,000 mm 0,0 UV-I 149 W/m 3,8 C 5,3 C 9,7 km/h (2 Bft) 96,23 %
21.02.2019 09:24 5,4 C 5,6 C 7,8 C 90 % 1028,1 hPa 0,0 l/m 6,2 km/h (2 Bft) W 279 0 min 0,000 mm 0,0 UV-I 161 W/m 3,9 C 5,4 C 11,3 km/h (2 Bft) 100,00 %
21.02.2019 09:26 5,5 C 5,6 C 8,3 C 89 % 1028,1 hPa 0,0 l/m 3,8 km/h (1 Bft) W 278 0 min 0,000 mm 0,0 UV-I 168 W/m 3,8 C 5,5 C 4,8 km/h (1 Bft) 94,64 %
21.02.2019 09:28 5,6 C 5,6 C 8,3 C 89 % 1028,1 hPa 0,0 l/m 4,8 km/h (1 Bft) W-SW 258 0 min 0,000 mm 0,0 UV-I 167 W/m 3,9 C 5,6 C 9,7 km/h (2 Bft) 100,00 %
21.02.2019 09:30 5,6 C 5,6 C 8,3 C 88 % 1028,1 hPa 0,0 l/m 4,9 km/h (1 Bft) W-SW 251 0 min 0,000 mm 0,0 UV-I 179 W/m 3,8 C 5,6 C 6,4 km/h (2 Bft) 100,00 %
21.02.2019 09:32 5,7 C 5,6 C 8,3 C 88 % 1028,2 hPa 0,0 l/m 5,6 km/h (1 Bft) W 268 0 min 0,000 mm 0,0 UV-I 188 W/m 3,9 C 5,7 C 11,3 km/h (2 Bft) 98,00 %
21.02.2019 09:34 5,7 C 5,6 C 8,3 C 88 % 1028,1 hPa 0,0 l/m 4,3 km/h (1 Bft) W-SW 257 0 min 0,000 mm 0,0 UV-I 173 W/m 3,9 C 5,7 C 6,4 km/h (2 Bft) 100,00 %
21.02.2019 09:36 5,7 C 5,6 C 8,9 C 87 % 1028,1 hPa 0,0 l/m 4,3 km/h (1 Bft) W-SW 254 0 min 0,000 mm 0,0 UV-I 173 W/m 3,7 C 5,7 C 6,4 km/h (2 Bft) 100,00 %
21.02.2019 09:38 5,7 C 5,6 C 8,3 C 87 % 1028,2 hPa 0,0 l/m 4,8 km/h (1 Bft) W-SW 254 0 min 0,000 mm 0,0 UV-I 150 W/m 3,7 C 5,7 C 6,4 km/h (2 Bft) 97,87 %
21.02.2019 09:40 5,8 C 5,6 C 8,3 C 87 % 1028,2 hPa 0,0 l/m 4,3 km/h (1 Bft) W 260 0 min 0,000 mm 0,0 UV-I 123 W/m 3,8 C 5,8 C 6,4 km/h (2 Bft) 100,00 %
21.02.2019 09:42 5,8 C 5,6 C 8,3 C 87 % 1028,2 hPa 0,0 l/m 3,2 km/h (1 Bft) W 260 0 min 0,000 mm 0,0 UV-I 126 W/m 3,8 C 5,8 C 4,8 km/h (1 Bft) 100,00 %
21.02.2019 09:44 5,8 C 5,6 C 8,3 C 87 % 1028,2 hPa 0,0 l/m 3,9 km/h (1 Bft) W-SW 246 0 min 0,000 mm 0,0 UV-I 126 W/m 3,8 C 5,8 C 6,4 km/h (2 Bft) 100,00 %
21.02.2019 09:46 5,9 C 5,6 C 7,8 C 87 % 1028,2 hPa 0,0 l/m 3,6 km/h (1 Bft) W 274 0 min 0,000 mm 0,0 UV-I 113 W/m 3,9 C 5,9 C 6,4 km/h (2 Bft) 100,00 %
21.02.2019 09:48 5,9 C 5,6 C 7,8 C 87 % 1028,3 hPa 0,0 l/m 4,6 km/h (1 Bft) W-SW 252 0 min 0,000 mm 0,0 UV-I 116 W/m 3,9 C 5,9 C 6,4 km/h (2 Bft) 97,37 %
21.02.2019 09:50 5,9 C 5,6 C 7,8 C 87 % 1028,3 hPa 0,0 l/m 8,7 km/h (2 Bft) W 267 0 min 0,000 mm 0,0 UV-I 116 W/m 3,9 C 4,0 C 11,3 km/h (2 Bft) 100,00 %
21.02.2019 09:52 5,9 C 5,6 C 7,8 C 86 % 1028,2 hPa 0,0 l/m 5,7 km/h (1 Bft) W-NW 284 0 min 0,000 mm 0,0 UV-I 114 W/m 3,7 C 5,9 C 9,7 km/h (2 Bft) 100,00 %
21.02.2019 09:54 5,9 C 5,6 C 7,8 C 86 % 1028,2 hPa 0,0 l/m 2,3 km/h (1 Bft) W-NW 284 0 min 0,000 mm 0,0 UV-I 122 W/m 3,7 C 5,9 C 3,2 km/h (1 Bft) 97,56 %
21.02.2019 09:56 5,9 C 5,6 C 7,8 C 87 % 1028,2 hPa 0,0 l/m 2,7 km/h (1 Bft) W-NW 284 0 min 0,000 mm 0,0 UV-I 137 W/m 3,9 C 5,9 C 4,8 km/h (1 Bft) 100,00 %
21.02.2019 09:58 6,0 C 5,6 C 8,3 C 87 % 1028,2 hPa 0,0 l/m 2,0 km/h (1 Bft) W-NW 284 0 min 0,000 mm 0,0 UV-I 146 W/m 4,0 C 6,0 C 3,2 km/h (1 Bft) 100,00 %
21.02.2019 10:00 6,1 C 5,6 C 8,3 C 86 % 1028,2 hPa 0,0 l/m 2,9 km/h (1 Bft) W-NW 286 0 min 0,051 mm 0,0 UV-I 153 W/m 3,9 C 6,1 C 4,8 km/h (1 Bft) 100,00 %
21.02.2019 10:02 6,1 C 5,6 C 8,9 C 86 % 1028,2 hPa 0,0 l/m 4,0 km/h (1 Bft) W 260 0 min 0,000 mm 0,4 UV-I 167 W/m 3,9 C 6,1 C 6,4 km/h (2 Bft) 100,00 %
21.02.2019 10:04 6,1 C 5,6 C 8,9 C 86 % 1028,2 hPa 0,0 l/m 3,6 km/h (1 Bft) W 263 0 min 0,000 mm 0,5 UV-I 179 W/m 3,9 C 6,1 C 6,4 km/h (2 Bft) 98,00 %
21.02.2019 10:06 6,2 C 5,6 C 9,4 C 87 % 1028,1 hPa 0,0 l/m 4,1 km/h (1 Bft) SW 233 0 min 0,000 mm 0,6 UV-I 182 W/m 4,2 C 6,2 C 6,4 km/h (2 Bft) 97,56 %
21.02.2019 10:09 6,3 C 5,6 C 9,4 C 86 % 1028,1 hPa 0,0 l/m 3,9 km/h (1 Bft) W-SW 239 0 min 0,000 mm 0,6 UV-I 190 W/m 4,1 C 6,3 C 6,4 km/h (2 Bft) 97,50 %
21.02.2019 10:10 6,3 C 5,6 C 9,4 C 86 % 1028,1 hPa 0,0 l/m 4,1 km/h (1 Bft) SW 232 0 min 0,000 mm 0,6 UV-I 202 W/m 4,1 C 6,3 C 4,8 km/h (1 Bft) 100,00 %
21.02.2019 10:12 6,4 C 5,6 C 10,0 C 86 % 1028,2 hPa 0,0 l/m 5,1 km/h (1 Bft) W-SW 240 0 min 0,000 mm 0,6 UV-I 212 W/m 4,2 C 6,4 C 8,0 km/h (2 Bft) 98,11 %
21.02.2019 10:14 6,4 C 5,6 C 10,0 C 85 % 1028,2 hPa 0,0 l/m 5,5 km/h (1 Bft) W 273 0 min 0,000 mm 0,6 UV-I 228 W/m 4,1 C 6,4 C 8,0 km/h (2 Bft) 97,73 %
21.02.2019 10:16 6,5 C 5,6 C 10,6 C 85 % 1028,2 hPa 0,0 l/m 5,1 km/h (1 Bft) W 259 0 min 0,000 mm 0,7 UV-I 234 W/m 4,2 C 6,5 C 9,7 km/h (2 Bft) 96,00 %
21.02.2019 10:18 6,6 C 5,6 C 10,6 C 85 % 1028,2 hPa 0,0 l/m 6,4 km/h (2 Bft) W-SW 238 2 min 0,000 mm 0,7 UV-I 245 W/m 4,3 C 6,6 C 8,0 km/h (2 Bft) 96,00 %
21.02.2019 10:20 6,7 C 5,6 C 11,1 C 86 % 1028,1 hPa 0,0 l/m 3,8 km/h (1 Bft) W-NW 282 2 min 0,000 mm 0,7 UV-I 257 W/m 4,5 C 6,7 C 6,4 km/h (2 Bft) 95,65 %
21.02.2019 10:22 6,8 C 5,6 C 11,1 C 85 % 1028,1 hPa 0,0 l/m 5,7 km/h (1 Bft) W-SW 238 2 min 0,000 mm 0,7 UV-I 262 W/m 4,5 C 6,8 C 8,0 km/h (2 Bft) 88,14 %
21.02.2019 10:24 6,8 C 5,6 C 11,1 C 85 % 1028,2 hPa 0,0 l/m 5,5 km/h (1 Bft) W 279 2 min 0,000 mm 0,7 UV-I 258 W/m 4,5 C 6,8 C 8,0 km/h (2 Bft) 96,23 %
21.02.2019 10:26 6,9 C 5,6 C 11,7 C 85 % 1028,2 hPa 0,0 l/m 5,7 km/h (1 Bft) W-SW 240 0 min 0,000 mm 0,7 UV-I 245 W/m 4,6 C 6,9 C 8,0 km/h (2 Bft) 95,74 %
21.02.2019 10:28 7,0 C 5,6 C 11,7 C 84 % 1028,2 hPa 0,0 l/m 4,9 km/h (1 Bft) W 261 0 min 0,000 mm 0,7 UV-I 244 W/m 4,5 C 7,0 C 8,0 km/h (2 Bft) 93,62 %
21.02.2019 10:30 7,1 C 5,6 C 11,7 C 85 % 1028,2 hPa 0,0 l/m 4,9 km/h (1 Bft) W 275 0 min 0,000 mm 0,8 UV-I 242 W/m 4,8 C 7,1 C 6,4 km/h (2 Bft) 93,62 %
21.02.2019 10:32 7,2 C 5,6 C 11,7 C 84 % 1028,2 hPa 0,0 l/m 4,3 km/h (1 Bft) SW 222 0 min 0,000 mm 0,7 UV-I 210 W/m 4,7 C 7,2 C 6,4 km/h (2 Bft) 95,74 %
21.02.2019 10:34 7,3 C 5,6 C 11,7 C 84 % 1028,2 hPa 0,0 l/m 4,7 km/h (1 Bft) SW 227 0 min 0,000 mm 0,8 UV-I 208 W/m 4,8 C 7,3 C 6,4 km/h (2 Bft) 95,12 %
21.02.2019 10:36 7,3 C 5,6 C 11,7 C 84 % 1028,2 hPa 0,0 l/m 4,8 km/h (1 Bft) W-SW 244 0 min 0,000 mm 0,8 UV-I 231 W/m 4,8 C 7,3 C 8,0 km/h (2 Bft) 96,00 %
21.02.2019 10:38 7,4 C 5,6 C 12,2 C 83 % 1028,2 hPa 0,0 l/m 5,3 km/h (1 Bft) SW 225 2 min 0,000 mm 0,8 UV-I 279 W/m 4,7 C 7,4 C 8,0 km/h (2 Bft) 96,00 %
21.02.2019 10:40 7,4 C 5,6 C 12,8 C 83 % 1028,2 hPa 0,0 l/m 6,2 km/h (2 Bft) SW 227 2 min 0,000 mm 0,9 UV-I 308 W/m 4,7 C 7,4 C 9,7 km/h (2 Bft) 91,49 %
21.02.2019 10:42 7,6 C 5,6 C 14,4 C 82 % 1028,2 hPa 0,0 l/m 4,8 km/h (1 Bft) W-SW 240 2 min 0,000 mm 1,0 UV-I 409 W/m 4,7 C 7,6 C 6,4 km/h (2 Bft) 94,74 %
21.02.2019 10:44 7,7 C 5,6 C 15,0 C 82 % 1028,2 hPa 0,0 l/m 7,5 km/h (2 Bft) W-SW 238 2 min 0,000 mm 1,0 UV-I 475 W/m 4,8 C 6,8 C 11,3 km/h (2 Bft) 92,00 %
21.02.2019 10:46 7,8 C 5,6 C 15,6 C 81 % 1028,2 hPa 0,0 l/m 7,7 km/h (2 Bft) W 266 2 min 0,000 mm 0,9 UV-I 446 W/m 4,7 C 6,8 C 12,9 km/h (3 Bft) 96,00 %
21.02.2019 10:48 7,9 C 5,6 C 14,4 C 80 % 1028,2 hPa 0,0 l/m 7,7 km/h (2 Bft) W-SW 240 2 min 0,000 mm 0,9 UV-I 337 W/m 4,7 C 6,9 C 12,9 km/h (3 Bft) 90,48 %
21.02.2019 10:50 7,9 C 5,6 C 13,9 C 79 % 1028,2 hPa 0,0 l/m 7,9 km/h (2 Bft) W-SW 255 2 min 0,000 mm 0,9 UV-I 304 W/m 4,5 C 6,7 C 12,9 km/h (3 Bft) 78,00 %
21.02.2019 10:52 7,9 C 5,6 C 13,3 C 79 % 1028,2 hPa 0,0 l/m 10,1 km/h (2 Bft) W 270 2 min 0,000 mm 0,9 UV-I 293 W/m 4,5 C 5,2 C 14,5 km/h (3 Bft) 80,85 %
21.02.2019 10:54 7,9 C 5,6 C 13,9 C 79 % 1028,2 hPa 0,0 l/m 5,2 km/h (1 Bft) W-SW 243 2 min 0,000 mm 0,9 UV-I 297 W/m 4,5 C 7,9 C 9,7 km/h (2 Bft) 28,00 %
21.02.2019 10:56 8,2 C 5,6 C 14,4 C 80 % 1028,3 hPa 0,0 l/m 4,0 km/h (1 Bft) W 259 2 min 0,000 mm 1,0 UV-I 415 W/m 5,0 C 8,2 C 11,3 km/h (2 Bft) 84,00 %
21.02.2019 10:58 8,3 C 5,6 C 15,6 C 80 % 1028,3 hPa 0,0 l/m 6,4 km/h (2 Bft) NW 317 2 min 0,000 mm 1,0 UV-I 419 W/m 5,1 C 8,3 C 9,7 km/h (2 Bft) 80,49 %
21.02.2019 11:00 8,5 C 5,6 C 16,1 C 79 % 1028,3 hPa 0,0 l/m 7,8 km/h (2 Bft) W-NW 284 2 min 0,000 mm 1,0 UV-I 422 W/m 5,1 C 7,4 C 12,9 km/h (3 Bft) 64,15 %
21.02.2019 11:02 8,6 C 5,6 C 16,7 C 79 % 1028,3 hPa 0,0 l/m 6,5 km/h (2 Bft) NW 311 2 min 0,127 mm 1,0 UV-I 447 W/m 5,2 C 8,5 C 11,3 km/h (2 Bft) 92,11 %
21.02.2019 11:04 8,7 C 5,6 C 16,1 C 77 % 1028,3 hPa 0,0 l/m 7,6 km/h (2 Bft) W-SW 256 2 min 0,000 mm 1,0 UV-I 363 W/m 4,9 C 7,8 C 12,9 km/h (3 Bft) 84,00 %
21.02.2019 11:06 8,7 C 5,6 C 16,1 C 77 % 1028,3 hPa 0,0 l/m 7,7 km/h (2 Bft) W-NW 296 2 min 0,000 mm 1,0 UV-I 396 W/m 4,9 C 7,7 C 14,5 km/h (3 Bft) 46,81 %
21.02.2019 11:08 8,8 C 5,6 C 16,1 C 78 % 1028,4 hPa 0,0 l/m 7,2 km/h (2 Bft) W-SW 244 2 min 0,000 mm 1,1 UV-I 392 W/m 5,2 C 8,2 C 11,3 km/h (2 Bft) 40,00 %
21.02.2019 11:10 8,8 C 5,6 C 15,6 C 77 % 1028,4 hPa 0,0 l/m 5,5 km/h (1 Bft) W 281 2 min 0,000 mm 1,0 UV-I 381 W/m 5,0 C 8,8 C 11,3 km/h (2 Bft) 80,49 %
21.02.2019 11:12 8,8 C 5,6 C 15,6 C 77 % 1028,4 hPa 0,0 l/m 4,5 km/h (1 Bft) W 265 2 min 0,000 mm 1,0 UV-I 373 W/m 5,0 C 8,8 C 11,3 km/h (2 Bft) 88,68 %
21.02.2019 11:14 8,9 C 5,6 C 15,6 C 77 % 1028,4 hPa 0,0 l/m 6,2 km/h (2 Bft) W-NW 299 2 min 0,000 mm 1,0 UV-I 359 W/m 5,1 C 8,9 C 12,9 km/h (3 Bft) 65,85 %
21.02.2019 11:16 9,2 C 5,6 C 16,1 C 78 % 1028,4 hPa 0,0 l/m 2,9 km/h (1 Bft) N-NW 327 2 min 0,000 mm 1,1 UV-I 359 W/m 5,6 C 9,2 C 9,7 km/h (2 Bft) 31,91 %
21.02.2019 11:18 9,3 C 5,6 C 16,1 C 77 % 1028,4 hPa 0,0 l/m 4,4 km/h (1 Bft) N 349 2 min 0,000 mm 1,1 UV-I 359 W/m 5,5 C 9,3 C 6,4 km/h (2 Bft) 34,00 %
21.02.2019 11:20 9,3 C 5,6 C 16,7 C 77 % 1028,5 hPa 0,0 l/m 3,0 km/h (1 Bft) NW 309 2 min 0,000 mm 1,1 UV-I 390 W/m 5,5 C 9,3 C 4,8 km/h (1 Bft) 64,15 %
21.02.2019 11:22 9,4 C 5,6 C 16,7 C 77 % 1028,5 hPa 0,0 l/m 5,3 km/h (1 Bft) NW 306 2 min 0,000 mm 1,1 UV-I 383 W/m 5,6 C 9,4 C 12,9 km/h (3 Bft) 94,44 %
21.02.2019 11:24 9,4 C 5,6 C 16,1 C 77 % 1028,5 hPa 0,0 l/m 5,0 km/h (1 Bft) N 351 2 min 0,000 mm 1,1 UV-I 387 W/m 5,6 C 9,4 C 8,0 km/h (2 Bft) 32,69 %
21.02.2019 11:26 9,5 C 5,6 C 16,7 C 77 % 1028,4 hPa 0,0 l/m 4,6 km/h (1 Bft) NW 321 2 min 0,000 mm 1,1 UV-I 399 W/m 5,7 C 9,5 C 8,0 km/h (2 Bft) 17,95 %
21.02.2019 11:28 9,4 C 5,6 C 16,1 C 75 % 1028,4 hPa 0,0 l/m 6,3 km/h (2 Bft) N 355 2 min 0,000 mm 1,1 UV-I 413 W/m 5,2 C 9,4 C 12,9 km/h (3 Bft) 89,83 %
21.02.2019 11:30 9,4 C 5,6 C 16,7 C 76 % 1028,3 hPa 0,0 l/m 5,2 km/h (1 Bft) N-NW 331 2 min 0,000 mm 1,1 UV-I 408 W/m 5,4 C 9,4 C 9,7 km/h (2 Bft) 100,00 %
21.02.2019 11:32 9,5 C 5,6 C 16,7 C 76 % 1028,3 hPa 0,0 l/m 3,5 km/h (1 Bft) N 355 2 min 0,000 mm 1,0 UV-I 374 W/m 5,5 C 9,5 C 6,4 km/h (2 Bft) 78,87 %
21.02.2019 11:34 9,5 C 5,6 C 16,1 C 76 % 1028,2 hPa 0,0 l/m 6,2 km/h (2 Bft) N-NW 328 2 min 0,000 mm 1,0 UV-I 371 W/m 5,5 C 9,5 C 11,3 km/h (2 Bft) 6,67 %
21.02.2019 11:36 9,4 C 5,6 C 16,1 C 75 % 1028,2 hPa 0,0 l/m 4,3 km/h (1 Bft) W 262 2 min 0,000 mm 1,0 UV-I 371 W/m 5,2 C 9,4 C 9,7 km/h (2 Bft) 86,96 %
21.02.2019 11:38 9,4 C 5,6 C 16,1 C 75 % 1028,2 hPa 0,0 l/m 3,8 km/h (1 Bft) W-NW 291 2 min 0,000 mm 1,0 UV-I 368 W/m 5,2 C 9,4 C 6,4 km/h (2 Bft) 90,24 %
21.02.2019 11:40 9,7 C 5,6 C 16,1 C 76 % 1028,2 hPa 0,0 l/m 5,1 km/h (1 Bft) NW 323 2 min 0,000 mm 1,0 UV-I 358 W/m 5,7 C 9,7 C 8,0 km/h (2 Bft) 94,34 %
21.02.2019 11:42 9,8 C 5,6 C 15,6 C 75 % 1028,1 hPa 0,0 l/m 6,2 km/h (2 Bft) W 266 2 min 0,000 mm 1,0 UV-I 322 W/m 5,6 C 9,8 C 12,9 km/h (3 Bft) 95,12 %
21.02.2019 11:44 9,8 C 5,6 C 15,0 C 74 % 1028,1 hPa 0,0 l/m 6,1 km/h (2 Bft) W-NW 297 2 min 0,000 mm 1,0 UV-I 299 W/m 5,4 C 9,8 C 11,3 km/h (2 Bft) 92,45 %
21.02.2019 11:46 9,8 C 5,6 C 15,0 C 74 % 1028,1 hPa 0,0 l/m 7,8 km/h (2 Bft) W-NW 301 2 min 0,000 mm 1,0 UV-I 305 W/m 5,4 C 8,8 C 12,9 km/h (3 Bft) 90,24 %
21.02.2019 11:48 9,8 C 5,6 C 15,0 C 74 % 1028,1 hPa 0,0 l/m 5,6 km/h (1 Bft) W 274 2 min 0,000 mm 1,0 UV-I 310 W/m 5,4 C 9,8 C 9,7 km/h (2 Bft) 94,00 %
21.02.2019 11:50 9,8 C 5,6 C 15,0 C 73 % 1028,1 hPa 0,0 l/m 4,4 km/h (1 Bft) W 272 2 min 0,000 mm 1,1 UV-I 316 W/m 5,2 C 9,8 C 9,7 km/h (2 Bft) 98,00 %
21.02.2019 11:52 9,8 C 5,6 C 15,0 C 75 % 1028,1 hPa 0,0 l/m 3,7 km/h (1 Bft) W-NW 301 2 min 0,000 mm 1,1 UV-I 336 W/m 5,6 C 9,8 C 6,4 km/h (2 Bft) 97,56 %
21.02.2019 11:54 9,9 C 5,6 C 15,6 C 74 % 1028,1 hPa 0,0 l/m 6,4 km/h (2 Bft) NW 309 2 min 0,000 mm 1,1 UV-I 360 W/m 5,5 C 9,9 C 12,9 km/h (3 Bft) 97,87 %
21.02.2019 11:56 9,9 C 5,6 C 15,6 C 73 % 1028,1 hPa 0,0 l/m 5,0 km/h (1 Bft) N-NW 338 2 min 0,000 mm 1,1 UV-I 380 W/m 5,3 C 9,9 C 9,7 km/h (2 Bft) 97,37 %
21.02.2019 11:58 9,9 C 5,6 C 16,1 C 73 % 1028,1 hPa 0,0 l/m 5,7 km/h (1 Bft) N-NW 330 2 min 0,000 mm 1,1 UV-I 397 W/m 5,3 C 9,9 C 9,7 km/h (2 Bft) 98,11 %
21.02.2019 12:00 9,9 C 5,6 C 16,7 C 73 % 1028,0 hPa 0,0 l/m 3,2 km/h (1 Bft) W-NW 287 2 min 0,178 mm 1,1 UV-I 365 W/m 5,3 C 9,9 C 8,0 km/h (2 Bft) 96,67 %
21.02.2019 12:02 10,1 C 5,6 C 16,7 C 74 % 1028,0 hPa 0,0 l/m 4,9 km/h (1 Bft) N 9 2 min 0,000 mm 1,1 UV-I 365 W/m 5,7 C 10,1 C 8,0 km/h (2 Bft) 98,46 %
21.02.2019 12:04 10,1 C 5,6 C 16,1 C 74 % 1027,9 hPa 0,0 l/m 3,3 km/h (1 Bft) NW 309 2 min 0,000 mm 1,1 UV-I 340 W/m 5,7 C 10,1 C 6,4 km/h (2 Bft) 96,00 %
21.02.2019 12:06 10,3 C 5,6 C 16,7 C 75 % 1027,9 hPa 0,0 l/m 3,7 km/h (1 Bft) NW 321 2 min 0,000 mm 1,1 UV-I 364 W/m 6,1 C 10,3 C 4,8 km/h (1 Bft) 92,11 %
21.02.2019 12:08 10,4 C 5,6 C 16,1 C 73 % 1027,9 hPa 0,0 l/m 4,8 km/h (1 Bft) W 272 2 min 0,000 mm 1,1 UV-I 333 W/m 5,8 C 10,4 C 11,3 km/h (2 Bft) 98,00 %
21.02.2019 12:10 10,4 C 5,6 C 16,1 C 73 % 1027,9 hPa 0,0 l/m 6,9 km/h (2 Bft) N-NW 346 2 min 0,000 mm 1,1 UV-I 323 W/m 5,8 C 10,0 C 14,5 km/h (3 Bft) 95,74 %
21.02.2019 12:12 10,4 C 5,6 C 15,6 C 73 % 1027,8 hPa 0,0 l/m 6,1 km/h (2 Bft) W-SW 246 2 min 0,000 mm 1,1 UV-I 317 W/m 5,8 C 10,4 C 9,7 km/h (2 Bft) 98,11 %
21.02.2019 12:14 10,3 C 5,6 C 15,6 C 71 % 1027,9 hPa 0,0 l/m 10,3 km/h (2 Bft) W-NW 294 2 min 0,000 mm 1,0 UV-I 306 W/m 5,3 C 7,8 C 17,7 km/h (3 Bft) 95,45 %
21.02.2019 12:16 10,3 C 5,6 C 15,6 C 70 % 1027,9 hPa 0,0 l/m 7,9 km/h (2 Bft) W-NW 299 2 min 0,000 mm 1,1 UV-I 311 W/m 5,1 C 9,2 C 16,1 km/h (3 Bft) 95,74 %
21.02.2019 12:18 10,3 C 5,6 C 15,6 C 70 % 1027,8 hPa 0,0 l/m 8,4 km/h (2 Bft) W 271 2 min 0,000 mm 1,1 UV-I 329 W/m 5,1 C 8,9 C 14,5 km/h (3 Bft) 95,74 %
21.02.2019 12:20 10,3 C 5,6 C 15,6 C 70 % 1027,8 hPa 0,0 l/m 11,8 km/h (2 Bft) W-SW 258 2 min 0,000 mm 1,1 UV-I 339 W/m 5,1 C 7,0 C 16,1 km/h (3 Bft) 92,68 %
21.02.2019 12:22 10,3 C 5,6 C 15,0 C 70 % 1027,7 hPa 0,0 l/m 13,2 km/h (3 Bft) W 269 2 min 0,000 mm 1,1 UV-I 328 W/m 5,1 C 6,3 C 19,3 km/h (3 Bft) 95,74 %
21.02.2019 12:24 10,3 C 5,6 C 15,0 C 70 % 1027,8 hPa 0,0 l/m 9,5 km/h (2 Bft) W 268 2 min 0,000 mm 1,1 UV-I 322 W/m 5,1 C 8,2 C 17,7 km/h (3 Bft) 96,00 %
21.02.2019 12:26 10,3 C 5,6 C 15,0 C 70 % 1027,8 hPa 0,0 l/m 11,7 km/h (2 Bft) W-SW 240 2 min 0,000 mm 1,1 UV-I 322 W/m 5,1 C 7,0 C 17,7 km/h (3 Bft) 95,12 %
21.02.2019 12:28 10,4 C 5,6 C 15,6 C 70 % 1027,7 hPa 0,0 l/m 5,7 km/h (1 Bft) W-NW 290 2 min 0,000 mm 1,1 UV-I 326 W/m 5,2 C 10,4 C 12,9 km/h (3 Bft) 98,11 %
21.02.2019 12:30 10,6 C 5,6 C 15,6 C 70 % 1027,7 hPa 0,0 l/m 3,7 km/h (1 Bft) NW 316 2 min 0,000 mm 1,1 UV-I 318 W/m 5,4 C 10,6 C 8,0 km/h (2 Bft) 96,00 %
21.02.2019 12:32 10,6 C 5,6 C 15,6 C 71 % 1027,8 hPa 0,0 l/m 6,7 km/h (2 Bft) W-NW 297 2 min 0,000 mm 1,1 UV-I 314 W/m 5,6 C 10,4 C 12,9 km/h (3 Bft) 95,74 %
21.02.2019 12:34 10,5 C 5,6 C 15,0 C 69 % 1027,7 hPa 0,0 l/m 9,9 km/h (2 Bft) W 277 2 min 0,000 mm 1,1 UV-I 301 W/m 5,1 C 8,2 C 16,1 km/h (3 Bft) 98,00 %
21.02.2019 12:36 10,5 C 5,6 C 15,0 C 70 % 1027,7 hPa 0,0 l/m 6,9 km/h (2 Bft) NW 326 0 min 0,000 mm 1,0 UV-I 265 W/m 5,3 C 10,2 C 14,5 km/h (3 Bft) 100,00 %
21.02.2019 12:38 10,4 C 5,6 C 14,4 C 71 % 1027,7 hPa 0,0 l/m 5,7 km/h (1 Bft) NW 304 0 min 0,000 mm 1,0 UV-I 246 W/m 5,4 C 10,4 C 11,3 km/h (2 Bft) 97,87 %
21.02.2019 12:40 10,4 C 5,6 C 14,4 C 70 % 1027,8 hPa 0,0 l/m 6,4 km/h (2 Bft) W 267 0 min 0,000 mm 1,0 UV-I 261 W/m 5,2 C 10,4 C 12,9 km/h (3 Bft) 100,00 %
21.02.2019 12:42 10,3 C 5,6 C 14,4 C 71 % 1027,7 hPa 0,0 l/m 5,5 km/h (1 Bft) SW 218 0 min 0,000 mm 1,0 UV-I 261 W/m 5,3 C 10,3 C 14,5 km/h (3 Bft) 97,87 %
21.02.2019 12:44 10,4 C 5,6 C 14,4 C 71 % 1027,7 hPa 0,0 l/m 3,1 km/h (1 Bft) N-NW 333 0 min 0,000 mm 1,0 UV-I 258 W/m 5,4 C 10,4 C 8,0 km/h (2 Bft) 100,00 %
21.02.2019 12:46 10,4 C 5,6 C 14,4 C 71 % 1027,7 hPa 0,0 l/m 5,1 km/h (1 Bft) W-NW 298 0 min 0,000 mm 1,0 UV-I 265 W/m 5,4 C 10,4 C 11,3 km/h (2 Bft) 100,00 %
21.02.2019 12:48 10,4 C 5,6 C 14,4 C 70 % 1027,6 hPa 0,0 l/m 5,4 km/h (1 Bft) N-NW 334 0 min 0,000 mm 1,0 UV-I 279 W/m 5,2 C 10,4 C 9,7 km/h (2 Bft) 98,00 %
21.02.2019 12:50 10,3 C 5,6 C 13,9 C 72 % 1027,6 hPa 0,0 l/m 6,7 km/h (2 Bft) N-NW 338 0 min 0,000 mm 1,0 UV-I 260 W/m 5,5 C 10,1 C 11,3 km/h (2 Bft) 97,37 %
21.02.2019 12:56 10,5 C 5,6 C 15,0 C 71 % 1027,5 hPa 0,0 l/m 7,0 km/h (2 Bft) W 280 6 min 0,000 mm 1,2 UV-I 311 W/m 5,5 C 10,1 C 11,3 km/h (2 Bft) 97,86 %
21.02.2019 12:58 10,7 C 5,6 C 15,6 C 70 % 1027,5 hPa 0,0 l/m 4,8 km/h (1 Bft) W 273 2 min 0,000 mm 1,2 UV-I 316 W/m 5,5 C 10,7 C 6,4 km/h (2 Bft) 100,00 %
21.02.2019 13:00 10,9 C 5,6 C 16,7 C 70 % 1027,5 hPa 0,0 l/m 2,9 km/h (1 Bft) W 261 2 min 0,000 mm 1,3 UV-I 339 W/m 5,6 C 10,9 C 4,8 km/h (1 Bft) 98,18 %
21.02.2019 13:02 11,2 C 5,6 C 17,2 C 70 % 1027,5 hPa 0,0 l/m 6,6 km/h (2 Bft) W-NW 287 2 min 0,178 mm 1,3 UV-I 457 W/m 5,9 C 11,1 C 12,9 km/h (3 Bft) 97,62 %
21.02.2019 13:04 11,2 C 5,6 C 17,2 C 67 % 1027,4 hPa 0,0 l/m 7,2 km/h (2 Bft) NW 319 2 min 0,000 mm 1,3 UV-I 504 W/m 5,3 C 10,6 C 12,9 km/h (3 Bft) 93,18 %
21.02.2019 13:06 11,3 C 5,6 C 17,8 C 69 % 1027,4 hPa 0,0 l/m 6,4 km/h (2 Bft) W-NW 297 2 min 0,000 mm 1,3 UV-I 542 W/m 5,8 C 11,3 C 11,3 km/h (2 Bft) 95,74 %
21.02.2019 13:08 11,3 C 5,6 C 17,8 C 68 % 1027,4 hPa 0,0 l/m 4,7 km/h (1 Bft) NW 323 2 min 0,000 mm 1,2 UV-I 502 W/m 5,6 C 11,3 C 6,4 km/h (2 Bft) 96,43 %
21.02.2019 13:10 11,3 C 5,6 C 17,2 C 67 % 1027,4 hPa 0,0 l/m 8,7 km/h (2 Bft) W 280 2 min 0,000 mm 1,0 UV-I 357 W/m 5,4 C 9,8 C 16,1 km/h (3 Bft) 96,55 %
21.02.2019 13:12 11,2 C 5,6 C 16,7 C 67 % 1027,4 hPa 0,0 l/m 11,2 km/h (2 Bft) W 263 2 min 0,000 mm 0,9 UV-I 296 W/m 5,3 C 8,3 C 20,9 km/h (4 Bft) 96,92 %
21.02.2019 13:14 11,1 C 5,6 C 15,0 C 67 % 1027,4 hPa 0,0 l/m 15,1 km/h (3 Bft) W 259 0 min 0,000 mm 0,9 UV-I 271 W/m 5,2 C 6,4 C 27,4 km/h (4 Bft) 95,74 %
21.02.2019 13:16 10,9 C 5,6 C 14,4 C 68 % 1027,3 hPa 0,0 l/m 9,0 km/h (2 Bft) W-NW 292 0 min 0,000 mm 0,9 UV-I 244 W/m 5,2 C 9,2 C 16,1 km/h (3 Bft) 95,12 %
21.02.2019 13:18 10,8 C 5,6 C 14,4 C 68 % 1027,3 hPa 0,0 l/m 5,5 km/h (1 Bft) W-NW 298 0 min 0,000 mm 0,8 UV-I 224 W/m 5,1 C 10,8 C 12,9 km/h (3 Bft) 92,11 %
21.02.2019 13:20 10,9 C 5,6 C 13,9 C 70 % 1027,4 hPa 0,0 l/m 5,3 km/h (1 Bft) NW 306 0 min 0,000 mm 0,8 UV-I 210 W/m 5,6 C 10,9 C 11,3 km/h (2 Bft) 98,11 %
21.02.2019 13:22 10,8 C 5,6 C 13,9 C 69 % 1027,2 hPa 0,0 l/m 4,6 km/h (1 Bft) W 280 0 min 0,000 mm 0,8 UV-I 206 W/m 5,3 C 10,8 C 6,4 km/h (2 Bft) 98,00 %
21.02.2019 13:24 10,7 C 5,6 C 13,9 C 69 % 1027,2 hPa 0,0 l/m 4,9 km/h (1 Bft) W-NW 294 0 min 0,000 mm 0,8 UV-I 217 W/m 5,2 C 10,7 C 12,9 km/h (3 Bft) 97,73 %
21.02.2019 13:26 10,7 C 5,6 C 13,9 C 70 % 1027,2 hPa 0,0 l/m 6,2 km/h (2 Bft) W 278 0 min 0,000 mm 0,8 UV-I 241 W/m 5,5 C 10,7 C 14,5 km/h (3 Bft) 96,00 %
21.02.2019 13:28 10,7 C 5,6 C 13,9 C 69 % 1027,2 hPa 0,0 l/m 6,3 km/h (2 Bft) W-NW 287 0 min 0,000 mm 0,9 UV-I 256 W/m 5,2 C 10,7 C 14,5 km/h (3 Bft) 97,37 %
21.02.2019 13:30 10,7 C 5,6 C 13,9 C 70 % 1027,2 hPa 0,0 l/m 7,8 km/h (2 Bft) W 261 0 min 0,000 mm 0,9 UV-I 259 W/m 5,5 C 9,7 C 14,5 km/h (3 Bft) 98,21 %
21.02.2019 13:32 10,8 C 5,6 C 14,4 C 70 % 1027,1 hPa 0,0 l/m 6,8 km/h (2 Bft) W-SW 249 0 min 0,000 mm 0,8 UV-I 247 W/m 5,6 C 10,5 C 11,3 km/h (2 Bft) 98,00 %
21.02.2019 13:34 10,8 C 5,6 C 14,4 C 69 % 1027,1 hPa 0,0 l/m 10,8 km/h (2 Bft) W 265 0 min 0,000 mm 0,8 UV-I 256 W/m 5,3 C 8,0 C 17,7 km/h (3 Bft) 97,87 %
21.02.2019 13:36 10,9 C 5,6 C 14,4 C 69 % 1027,2 hPa 0,0 l/m 6,4 km/h (2 Bft) W 269 2 min 0,000 mm 0,9 UV-I 274 W/m 5,4 C 10,9 C 11,3 km/h (2 Bft) 91,67 %
21.02.2019 13:38 10,9 C 5,6 C 15,0 C 69 % 1027,2 hPa 0,0 l/m 8,1 km/h (2 Bft) W-SW 243 2 min 0,000 mm 0,9 UV-I 310 W/m 5,4 C 9,7 C 14,5 km/h (3 Bft) 100,00 %
21.02.2019 13:40 11,0 C 5,6 C 15,0 C 68 % 1027,2 hPa 0,0 l/m 12,2 km/h (2 Bft) W-NW 284 2 min 0,000 mm 0,9 UV-I 382 W/m 5,3 C 7,6 C 17,7 km/h (3 Bft) 100,00 %
21.02.2019 13:42 11,1 C 5,6 C 15,6 C 68 % 1027,2 hPa 0,0 l/m 12,7 km/h (3 Bft) W 260 2 min 0,000 mm 1,0 UV-I 426 W/m 5,4 C 7,5 C 20,9 km/h (4 Bft) 98,21 %
21.02.2019 13:44 11,2 C 5,6 C 15,6 C 67 % 1027,1 hPa 0,0 l/m 16,9 km/h (3 Bft) W-SW 255 2 min 0,000 mm 0,9 UV-I 409 W/m 5,3 C 5,9 C 29,0 km/h (5 Bft) 93,62 %
21.02.2019 13:46 11,3 C 5,6 C 15,0 C 67 % 1027,1 hPa 0,0 l/m 17,3 km/h (3 Bft) W 272 2 min 0,000 mm 0,9 UV-I 338 W/m 5,4 C 5,9 C 29,0 km/h (5 Bft) 95,12 %
21.02.2019 13:48 11,3 C 5,6 C 15,0 C 67 % 1027,2 hPa 0,0 l/m 12,8 km/h (3 Bft) W 280 2 min 0,000 mm 0,8 UV-I 286 W/m 5,4 C 7,6 C 19,3 km/h (3 Bft) 94,64 %
21.02.2019 13:50 11,2 C 5,6 C 14,4 C 67 % 1027,1 hPa 0,0 l/m 15,3 km/h (3 Bft) W-SW 250 2 min 0,000 mm 0,8 UV-I 280 W/m 5,3 C 6,5 C 24,1 km/h (4 Bft) 96,15 %
21.02.2019 13:52 11,2 C 5,6 C 14,4 C 66 % 1027,2 hPa 0,0 l/m 15,7 km/h (3 Bft) W 279 2 min 0,000 mm 0,8 UV-I 281 W/m 5,1 C 6,3 C 20,9 km/h (4 Bft) 96,77 %
21.02.2019 13:54 11,2 C 5,6 C 14,4 C 66 % 1027,1 hPa 0,0 l/m 13,5 km/h (3 Bft) NW 315 2 min 0,000 mm 0,8 UV-I 282 W/m 5,1 C 7,2 C 19,3 km/h (3 Bft) 96,00 %
21.02.2019 13:56 11,2 C 5,6 C 14,4 C 67 % 1027,1 hPa 0,0 l/m 8,2 km/h (2 Bft) W 265 2 min 0,000 mm 0,8 UV-I 300 W/m 5,3 C 10,0 C 17,7 km/h (3 Bft) 93,62 %
21.02.2019 13:58 11,3 C 5,6 C 15,0 C 67 % 1027,1 hPa 0,0 l/m 11,6 km/h (2 Bft) W-NW 291 2 min 0,000 mm 0,8 UV-I 386 W/m 5,4 C 8,2 C 17,7 km/h (3 Bft) 94,34 %
21.02.2019 14:00 11,4 C 5,6 C 15,6 C 66 % 1027,1 hPa 0,0 l/m 7,3 km/h (2 Bft) W-NW 291 2 min 0,178 mm 0,8 UV-I 420 W/m 5,3 C 10,8 C 16,1 km/h (3 Bft) 92,11 %
21.02.2019 14:02 11,4 C 5,6 C 15,0 C 66 % 1027,1 hPa 0,0 l/m 13,8 km/h (3 Bft) W 265 2 min 0,000 mm 0,8 UV-I 315 W/m 5,3 C 7,3 C 20,9 km/h (4 Bft) 90,00 %
21.02.2019 14:04 11,4 C 5,6 C 15,0 C 66 % 1027,1 hPa 0,0 l/m 11,2 km/h (2 Bft) W 280 2 min 0,000 mm 0,7 UV-I 288 W/m 5,3 C 8,5 C 19,3 km/h (3 Bft) 96,00 %
21.02.2019 14:06 11,4 C 5,6 C 14,4 C 66 % 1027,0 hPa 0,0 l/m 13,8 km/h (3 Bft) W 266 2 min 0,000 mm 0,7 UV-I 277 W/m 5,3 C 7,3 C 20,9 km/h (4 Bft) 92,00 %
21.02.2019 14:08 11,3 C 5,6 C 14,4 C 65 % 1027,0 hPa 0,0 l/m 13,2 km/h (3 Bft) NW 304 2 min 0,000 mm 0,7 UV-I 258 W/m 5,0 C 7,5 C 22,5 km/h (4 Bft) 94,74 %
21.02.2019 14:10 11,3 C 5,6 C 14,4 C 67 % 1027,0 hPa 0,0 l/m 11,7 km/h (2 Bft) W 259 2 min 0,000 mm 0,7 UV-I 249 W/m 5,4 C 8,2 C 27,4 km/h (4 Bft) 94,64 %
21.02.2019 14:12 11,3 C 5,6 C 13,9 C 65 % 1027,0 hPa 0,0 l/m 18,3 km/h (3 Bft) NW 317 0 min 0,000 mm 0,6 UV-I 242 W/m 5,0 C 5,5 C 25,7 km/h (4 Bft) 92,11 %
21.02.2019 14:14 11,3 C 5,6 C 13,9 C 65 % 1027,0 hPa 0,0 l/m 20,0 km/h (4 Bft) W 267 0 min 0,000 mm 0,6 UV-I 224 W/m 5,0 C 5,0 C 29,0 km/h (5 Bft) 96,08 %
21.02.2019 14:16 11,2 C 5,6 C 13,3 C 66 % 1027,0 hPa 0,0 l/m 17,9 km/h (3 Bft) W 261 0 min 0,000 mm 0,6 UV-I 209 W/m 5,1 C 5,5 C 27,4 km/h (4 Bft) 71,05 %
21.02.2019 14:18 11,1 C 5,6 C 13,3 C 67 % 1027,0 hPa 0,0 l/m 11,5 km/h (2 Bft) W-NW 286 0 min 0,000 mm 0,5 UV-I 196 W/m 5,2 C 8,0 C 17,7 km/h (3 Bft) 93,22 %
21.02.2019 14:20 11,1 C 5,6 C 13,3 C 66 % 1027,0 hPa 0,0 l/m 13,6 km/h (3 Bft) W 273 0 min 0,000 mm 0,5 UV-I 192 W/m 5,0 C 7,1 C 22,5 km/h (4 Bft) 91,43 %
21.02.2019 14:22 11,1 C 5,6 C 12,8 C 66 % 1027,0 hPa 0,0 l/m 17,1 km/h (3 Bft) W-NW 282 0 min 0,000 mm 0,5 UV-I 193 W/m 5,0 C 5,7 C 24,1 km/h (4 Bft) 96,43 %
21.02.2019 14:24 11,0 C 5,6 C 12,8 C 67 % 1027,0 hPa 0,0 l/m 15,0 km/h (3 Bft) W 266 0 min 0,000 mm 0,5 UV-I 192 W/m 5,1 C 6,3 C 19,3 km/h (3 Bft) 98,00 %
21.02.2019 14:26 10,9 C 5,6 C 13,3 C 67 % 1027,0 hPa 0,0 l/m 9,7 km/h (2 Bft) W 262 0 min 0,000 mm 0,5 UV-I 194 W/m 5,0 C 8,8 C 20,9 km/h (4 Bft) 94,74 %
21.02.2019 14:28 10,9 C 5,6 C 13,3 C 66 % 1026,9 hPa 0,0 l/m 11,8 km/h (2 Bft) W 259 0 min 0,000 mm 0,5 UV-I 201 W/m 4,8 C 7,6 C 16,1 km/h (3 Bft) 94,00 %
21.02.2019 14:30 10,9 C 5,6 C 13,3 C 67 % 1027,0 hPa 0,0 l/m 9,9 km/h (2 Bft) W 268 0 min 0,000 mm 0,5 UV-I 202 W/m 5,0 C 8,6 C 20,9 km/h (4 Bft) 94,34 %
21.02.2019 14:32 10,9 C 5,6 C 13,3 C 67 % 1027,0 hPa 0,0 l/m 13,1 km/h (3 Bft) W 273 0 min 0,000 mm 0,5 UV-I 197 W/m 5,0 C 7,0 C 19,3 km/h (3 Bft) 94,74 %
21.02.2019 14:34 10,9 C 5,6 C 13,3 C 67 % 1026,9 hPa 0,0 l/m 14,7 km/h (3 Bft) W 264 0 min 0,000 mm 0,5 UV-I 193 W/m 5,0 C 6,3 C 20,9 km/h (4 Bft) 90,00 %
21.02.2019 14:36 10,9 C 5,6 C 13,3 C 67 % 1027,0 hPa 0,0 l/m 12,8 km/h (3 Bft) W-SW 254 0 min 0,000 mm 0,5 UV-I 195 W/m 5,0 C 7,2 C 22,5 km/h (4 Bft) 96,23 %
21.02.2019 14:38 10,9 C 5,6 C 13,3 C 67 % 1027,0 hPa 0,0 l/m 16,9 km/h (3 Bft) W-NW 292 0 min 0,000 mm 0,5 UV-I 204 W/m 5,0 C 5,5 C 20,9 km/h (4 Bft) 94,74 %
21.02.2019 14:40 10,9 C 5,6 C 13,3 C 67 % 1026,9 hPa 0,0 l/m 11,7 km/h (2 Bft) W 270 0 min 0,000 mm 0,5 UV-I 199 W/m 5,0 C 7,7 C 17,7 km/h (3 Bft) 92,45 %
21.02.2019 14:42 10,9 C 5,6 C 13,3 C 67 % 1026,9 hPa 0,0 l/m 12,0 km/h (2 Bft) W-NW 290 0 min 0,000 mm 0,4 UV-I 212 W/m 5,0 C 7,6 C 17,7 km/h (3 Bft) 92,11 %
21.02.2019 14:44 11,0 C 5,6 C 13,3 C 67 % 1026,9 hPa 0,0 l/m 16,1 km/h (3 Bft) W 266 0 min 0,000 mm 0,0 UV-I 201 W/m 5,1 C 5,9 C 22,5 km/h (4 Bft) 96,23 %
21.02.2019 14:46 11,0 C 5,6 C 13,3 C 67 % 1026,9 hPa 0,0 l/m 14,3 km/h (3 Bft) W-NW 288 0 min 0,000 mm 0,3 UV-I 195 W/m 5,1 C 6,6 C 24,1 km/h (4 Bft) 95,74 %
21.02.2019 14:48 11,1 C 5,6 C 13,3 C 67 % 1026,9 hPa 0,0 l/m 10,7 km/h (2 Bft) W-SW 248 0 min 0,000 mm 0,4 UV-I 197 W/m 5,2 C 8,4 C 17,7 km/h (3 Bft) 95,74 %
21.02.2019 14:50 11,1 C 5,6 C 13,3 C 67 % 1026,9 hPa 0,0 l/m 8,6 km/h (2 Bft) W 263 0 min 0,000 mm 0,0 UV-I 198 W/m 5,2 C 9,6 C 12,9 km/h (3 Bft) 94,00 %
21.02.2019 14:52 11,2 C 5,6 C 13,3 C 67 % 1026,9 hPa 0,0 l/m 8,2 km/h (2 Bft) NW 311 0 min 0,000 mm 0,0 UV-I 195 W/m 5,3 C 10,0 C 16,1 km/h (3 Bft) 94,87 %
21.02.2019 14:54 11,2 C 5,6 C 13,9 C 69 % 1026,9 hPa 0,0 l/m 3,5 km/h (1 Bft) W 277 0 min 0,000 mm 0,0 UV-I 194 W/m 5,7 C 11,2 C 6,4 km/h (2 Bft) 94,34 %
21.02.2019 14:56 11,2 C 5,6 C 13,9 C 69 % 1026,9 hPa 0,0 l/m 5,1 km/h (1 Bft) W-NW 286 0 min 0,000 mm 0,0 UV-I 201 W/m 5,7 C 11,2 C 12,9 km/h (3 Bft) 97,73 %
21.02.2019 14:58 11,1 C 5,6 C 13,9 C 69 % 1026,9 hPa 0,0 l/m 5,3 km/h (1 Bft) W-SW 242 2 min 0,000 mm 0,0 UV-I 216 W/m 5,6 C 11,1 C 12,9 km/h (3 Bft) 95,74 %
21.02.2019 15:00 11,0 C 5,6 C 13,9 C 69 % 1026,9 hPa 0,0 l/m 3,3 km/h (1 Bft) N-NW 331 2 min 0,000 mm 0,2 UV-I 218 W/m 5,5 C 11,0 C 6,4 km/h (2 Bft) 98,00 %
21.02.2019 15:02 11,0 C 5,6 C 13,9 C 70 % 1027,0 hPa 0,0 l/m 4,7 km/h (1 Bft) N-NW 335 2 min 0,152 mm 0,5 UV-I 236 W/m 5,7 C 11,0 C 12,9 km/h (3 Bft) 100,00 %
21.02.2019 15:04 11,0 C 5,6 C 13,9 C 70 % 1027,0 hPa 0,0 l/m 3,6 km/h (1 Bft) NW 304 0 min 0,000 mm 0,2 UV-I 195 W/m 5,7 C 11,0 C 12,9 km/h (3 Bft) 97,87 %
21.02.2019 15:06 11,0 C 5,6 C 13,9 C 70 % 1027,0 hPa 0,0 l/m 4,3 km/h (1 Bft) NW 307 0 min 0,000 mm 0,0 UV-I 180 W/m 5,7 C 11,0 C 8,0 km/h (2 Bft) 100,00 %
21.02.2019 15:09 10,9 C 5,6 C 13,3 C 69 % 1027,0 hPa 0,0 l/m 6,4 km/h (2 Bft) W-SW 253 0 min 0,000 mm 0,0 UV-I 185 W/m 5,4 C 10,9 C 12,9 km/h (3 Bft) 98,53 %
21.02.2019 15:10 10,9 C 5,6 C 13,3 C 69 % 1027,0 hPa 0,0 l/m 4,4 km/h (1 Bft) W-NW 292 0 min 0,000 mm 0,0 UV-I 188 W/m 5,4 C 10,9 C 6,4 km/h (2 Bft) 96,77 %
21.02.2019 15:12 10,9 C 5,6 C 13,9 C 70 % 1027,0 hPa 0,0 l/m 2,6 km/h (1 Bft) W-NW 298 2 min 0,000 mm 0,0 UV-I 191 W/m 5,6 C 10,9 C 6,4 km/h (2 Bft) 98,00 %
21.02.2019 15:14 10,9 C 5,6 C 13,9 C 70 % 1027,0 hPa 0,0 l/m 3,7 km/h (1 Bft) W-NW 302 0 min 0,000 mm 0,0 UV-I 186 W/m 5,6 C 10,9 C 11,3 km/h (2 Bft) 100,00 %
21.02.2019 15:16 10,9 C 5,6 C 13,9 C 69 % 1027,0 hPa 0,0 l/m 8,4 km/h (2 Bft) W 279 2 min 0,000 mm 0,0 UV-I 194 W/m 5,4 C 9,5 C 12,9 km/h (3 Bft) 98,00 %
21.02.2019 15:18 10,9 C 5,6 C 13,3 C 69 % 1027,1 hPa 0,0 l/m 7,3 km/h (2 Bft) W 273 0 min 0,000 mm 0,0 UV-I 166 W/m 5,4 C 10,3 C 12,9 km/h (3 Bft) 97,37 %
21.02.2019 15:20 10,9 C 5,6 C 13,3 C 70 % 1027,0 hPa 0,0 l/m 5,7 km/h (1 Bft) NW 305 0 min 0,000 mm 0,0 UV-I 156 W/m 5,6 C 10,9 C 12,9 km/h (3 Bft) 98,21 %
21.02.2019 15:22 11,0 C 5,6 C 13,3 C 70 % 1027,1 hPa 0,0 l/m 4,7 km/h (1 Bft) W-SW 248 0 min 0,000 mm 0,0 UV-I 136 W/m 5,7 C 11,0 C 9,7 km/h (2 Bft) 100,00 %
21.02.2019 15:24 10,9 C 5,6 C 12,8 C 70 % 1027,1 hPa 0,0 l/m 8,0 km/h (2 Bft) W 264 0 min 0,000 mm 0,0 UV-I 138 W/m 5,6 C 9,8 C 12,9 km/h (3 Bft) 100,00 %
21.02.2019 15:26 10,8 C 5,6 C 12,8 C 70 % 1027,1 hPa 0,0 l/m 4,5 km/h (1 Bft) N-NW 338 0 min 0,000 mm 0,0 UV-I 145 W/m 5,6 C 10,8 C 9,7 km/h (2 Bft) 100,00 %
21.02.2019 15:28 10,8 C 5,6 C 12,2 C 71 % 1027,1 hPa 0,0 l/m 6,6 km/h (2 Bft) NW 317 0 min 0,000 mm 0,0 UV-I 120 W/m 5,8 C 10,7 C 14,5 km/h (3 Bft) 100,00 %
21.02.2019 15:30 10,7 C 5,6 C 12,2 C 72 % 1027,1 hPa 0,0 l/m 7,6 km/h (2 Bft) NW 325 0 min 0,000 mm 0,0 UV-I 94 W/m 5,9 C 9,9 C 14,5 km/h (3 Bft) 100,00 %
21.02.2019 15:32 10,4 C 5,6 C 11,7 C 72 % 1027,1 hPa 0,0 l/m 8,4 km/h (2 Bft) N-NW 344 0 min 0,000 mm 0,0 UV-I 91 W/m 5,6 C 9,0 C 16,1 km/h (3 Bft) 100,00 %
21.02.2019 15:34 10,2 C 5,6 C 11,1 C 73 % 1027,1 hPa 0,0 l/m 8,5 km/h (2 Bft) N 350 0 min 0,000 mm 0,0 UV-I 91 W/m 5,6 C 8,7 C 16,1 km/h (3 Bft) 100,00 %
21.02.2019 15:36 10,1 C 5,6 C 11,1 C 73 % 1027,1 hPa 0,0 l/m 6,6 km/h (2 Bft) NW 317 0 min 0,000 mm 0,0 UV-I 95 W/m 5,5 C 10,0 C 12,9 km/h (3 Bft) 97,62 %
21.02.2019 15:38 9,9 C 5,6 C 10,6 C 73 % 1027,1 hPa 0,0 l/m 4,6 km/h (1 Bft) NW 319 0 min 0,000 mm 0,0 UV-I 97 W/m 5,3 C 9,9 C 11,3 km/h (2 Bft) 100,00 %
21.02.2019 15:40 9,9 C 5,6 C 11,1 C 75 % 1027,1 hPa 0,0 l/m 4,6 km/h (1 Bft) NW 308 0 min 0,000 mm 0,0 UV-I 92 W/m 5,7 C 9,9 C 11,3 km/h (2 Bft) 100,00 %
21.02.2019 15:42 9,9 C 5,6 C 11,1 C 74 % 1027,0 hPa 0,0 l/m 3,5 km/h (1 Bft) W-NW 284 0 min 0,000 mm 0,0 UV-I 90 W/m 5,5 C 9,9 C 6,4 km/h (2 Bft) 98,11 %
21.02.2019 15:44 9,8 C 5,6 C 11,1 C 75 % 1027,1 hPa 0,0 l/m 2,8 km/h (1 Bft) W-NW 287 0 min 0,000 mm 0,0 UV-I 90 W/m 5,6 C 9,8 C 4,8 km/h (1 Bft) 100,00 %
21.02.2019 15:46 9,8 C 5,6 C 11,1 C 74 % 1027,1 hPa 0,0 l/m 2,9 km/h (1 Bft) W 263 0 min 0,000 mm 0,0 UV-I 91 W/m 5,4 C 9,8 C 4,8 km/h (1 Bft) 100,00 %
21.02.2019 15:48 9,8 C 5,6 C 11,1 C 75 % 1027,0 hPa 0,0 l/m 4,2 km/h (1 Bft) W 277 0 min 0,000 mm 0,0 UV-I 92 W/m 5,6 C 9,8 C 8,0 km/h (2 Bft) 97,14 %
21.02.2019 15:50 9,7 C 5,6 C 10,6 C 74 % 1027,0 hPa 0,0 l/m 5,2 km/h (1 Bft) NW 316 0 min 0,000 mm 0,0 UV-I 88 W/m 5,3 C 9,7 C 11,3 km/h (2 Bft) 98,46 %
21.02.2019 15:52 9,7 C 5,6 C 10,6 C 74 % 1027,0 hPa 0,0 l/m 3,9 km/h (1 Bft) W 279 0 min 0,000 mm 0,0 UV-I 83 W/m 5,3 C 9,7 C 6,4 km/h (2 Bft) 94,74 %
21.02.2019 15:54 9,7 C 5,6 C 10,6 C 75 % 1027,0 hPa 0,0 l/m 2,9 km/h (1 Bft) W-NW 295 0 min 0,000 mm 0,0 UV-I 77 W/m 5,5 C 9,7 C 8,0 km/h (2 Bft) 95,74 %
21.02.2019 15:56 9,7 C 5,6 C 10,6 C 74 % 1027,0 hPa 0,0 l/m 5,7 km/h (1 Bft) NW 323 0 min 0,000 mm 0,0 UV-I 76 W/m 5,3 C 9,7 C 9,7 km/h (2 Bft) 94,34 %
21.02.2019 15:58 9,7 C 5,6 C 10,0 C 75 % 1027,0 hPa 0,0 l/m 3,1 km/h (1 Bft) NW 305 0 min 0,000 mm 0,0 UV-I 74 W/m 5,5 C 9,7 C 4,8 km/h (1 Bft) 94,00 %
21.02.2019 16:00 9,7 C 5,6 C 10,0 C 75 % 1027,0 hPa 0,0 l/m 4,1 km/h (1 Bft) W-NW 302 0 min 0,000 mm 0,0 UV-I 71 W/m 5,5 C 9,7 C 6,4 km/h (2 Bft) 95,74 %
21.02.2019 16:02 9,6 C 5,6 C 10,0 C 75 % 1026,9 hPa 0,0 l/m 3,3 km/h (1 Bft) W-NW 284 0 min 0,076 mm 0,0 UV-I 66 W/m 5,4 C 9,6 C 8,0 km/h (2 Bft) 94,74 %
21.02.2019 16:04 9,6 C 5,6 C 10,0 C 75 % 1026,9 hPa 0,0 l/m 4,1 km/h (1 Bft) NW 326 0 min 0,000 mm 0,0 UV-I 61 W/m 5,4 C 9,6 C 6,4 km/h (2 Bft) 95,74 %
21.02.2019 16:06 9,6 C 5,6 C 10,0 C 75 % 1026,9 hPa 0,0 l/m 3,5 km/h (1 Bft) W-NW 292 0 min 0,000 mm 0,0 UV-I 57 W/m 5,4 C 9,6 C 8,0 km/h (2 Bft) 95,83 %
21.02.2019 16:08 9,6 C 5,6 C 10,0 C 75 % 1026,9 hPa 0,0 l/m 3,1 km/h (1 Bft) W 279 0 min 0,000 mm 0,0 UV-I 53 W/m 5,4 C 9,6 C 6,4 km/h (2 Bft) 96,00 %
21.02.2019 16:10 9,5 C 5,6 C 10,0 C 75 % 1026,9 hPa 0,0 l/m 1,8 km/h (1 Bft) W 279 0 min 0,000 mm 0,0 UV-I 51 W/m 5,3 C 9,5 C 3,2 km/h (1 Bft) 92,68 %
21.02.2019 16:12 9,5 C 5,6 C 9,4 C 76 % 1026,9 hPa 0,0 l/m 2,9 km/h (1 Bft) W 280 0 min 0,000 mm 0,0 UV-I 51 W/m 5,5 C 9,5 C 4,8 km/h (1 Bft) 89,36 %
21.02.2019 16:14 9,5 C 5,6 C 9,4 C 75 % 1026,9 hPa 0,0 l/m 3,5 km/h (1 Bft) W 279 0 min 0,000 mm 0,0 UV-I 49 W/m 5,3 C 9,5 C 6,4 km/h (2 Bft) 96,00 %
21.02.2019 16:16 9,4 C 5,6 C 9,4 C 76 % 1026,9 hPa 0,0 l/m 1,7 km/h (1 Bft) W 279 0 min 0,000 mm 0,0 UV-I 49 W/m 5,4 C 9,4 C 3,2 km/h (1 Bft) 95,74 %
21.02.2019 16:18 9,4 C 5,6 C 9,4 C 76 % 1026,8 hPa 0,0 l/m 0,9 km/h (0 Bft) W 279 0 min 0,000 mm 0,0 UV-I 47 W/m 5,4 C 9,4 C 1,6 km/h (1 Bft) 96,00 %
21.02.2019 16:20 9,4 C 5,6 C 9,4 C 76 % 1026,8 hPa 0,0 l/m 1,6 km/h (1 Bft) W 279 0 min 0,000 mm 0,0 UV-I 46 W/m 5,4 C 9,4 C 3,2 km/h (1 Bft) 96,00 %
21.02.2019 16:22 9,4 C 5,6 C 9,4 C 76 % 1026,8 hPa 0,0 l/m 2,2 km/h (1 Bft) W 279 0 min 0,000 mm 0,0 UV-I 41 W/m 5,4 C 9,4 C 4,8 km/h (1 Bft) 92,68 %
21.02.2019 16:24 9,4 C 5,6 C 9,4 C 76 % 1026,8 hPa 0,0 l/m 2,9 km/h (1 Bft) W 281 0 min 0,000 mm 0,0 UV-I 38 W/m 5,4 C 9,4 C 4,8 km/h (1 Bft) 100,00 %
21.02.2019 16:26 9,4 C 5,6 C 9,4 C 76 % 1026,8 hPa 0,0 l/m 2,8 km/h (1 Bft) W 279 0 min 0,000 mm 0,0 UV-I 34 W/m 5,4 C 9,4 C 4,8 km/h (1 Bft) 100,00 %
21.02.2019 16:28 9,4 C 5,6 C 9,4 C 76 % 1026,7 hPa 0,0 l/m 4,6 km/h (1 Bft) W 263 0 min 0,000 mm 0,0 UV-I 32 W/m 5,4 C 9,4 C 8,0 km/h (2 Bft) 100,00 %
21.02.2019 16:30 9,5 C 5,6 C 9,4 C 75 % 1026,7 hPa 0,0 l/m 4,4 km/h (1 Bft) W 273 0 min 0,000 mm 0,0 UV-I 27 W/m 5,3 C 9,5 C 9,7 km/h (2 Bft) 100,00 %
21.02.2019 16:32 9,5 C 5,6 C 8,9 C 75 % 1026,6 hPa 0,0 l/m 5,4 km/h (1 Bft) S-SW 209 0 min 0,000 mm 0,0 UV-I 23 W/m 5,3 C 9,5 C 9,7 km/h (2 Bft) 95,74 %
21.02.2019 16:34 9,6 C 5,6 C 8,9 C 76 % 1026,6 hPa 0,0 l/m 5,8 km/h (2 Bft) W-SW 250 0 min 0,000 mm 0,0 UV-I 19 W/m 5,6 C 9,6 C 8,0 km/h (2 Bft) 100,00 %
21.02.2019 16:36 9,6 C 5,6 C 8,9 C 75 % 1026,6 hPa 0,0 l/m 10,1 km/h (2 Bft) SW 234 0 min 0,000 mm 0,0 UV-I 18 W/m 5,4 C 7,1 C 17,7 km/h (3 Bft) 100,00 %
21.02.2019 16:38 9,6 C 5,6 C 8,9 C 75 % 1026,5 hPa 0,0 l/m 6,2 km/h (2 Bft) W-SW 252 0 min 0,000 mm 0,0 UV-I 18 W/m 5,4 C 9,6 C 9,7 km/h (2 Bft) 98,11 %
21.02.2019 16:40 9,6 C 5,6 C 8,9 C 75 % 1026,4 hPa 0,0 l/m 7,1 km/h (2 Bft) W-SW 238 0 min 0,000 mm 0,0 UV-I 18 W/m 5,4 C 9,1 C 9,7 km/h (2 Bft) 100,00 %
21.02.2019 16:42 9,6 C 5,6 C 8,9 C 75 % 1026,4 hPa 0,0 l/m 6,0 km/h (2 Bft) W-SW 248 0 min 0,000 mm 0,0 UV-I 18 W/m 5,4 C 9,6 C 9,7 km/h (2 Bft) 97,56 %
21.02.2019 16:44 9,6 C 5,6 C 8,9 C 75 % 1026,4 hPa 0,0 l/m 8,6 km/h (2 Bft) W-SW 243 0 min 0,000 mm 0,0 UV-I 18 W/m 5,4 C 8,0 C 12,9 km/h (3 Bft) 100,00 %
21.02.2019 16:46 9,6 C 5,6 C 8,9 C 75 % 1026,3 hPa 0,0 l/m 7,0 km/h (2 Bft) S-SW 213 0 min 0,000 mm 0,0 UV-I 18 W/m 5,4 C 9,2 C 11,3 km/h (2 Bft) 100,00 %
21.02.2019 16:48 9,6 C 5,6 C 8,9 C 75 % 1026,3 hPa 0,0 l/m 7,9 km/h (2 Bft) W-SW 250 0 min 0,000 mm 0,0 UV-I 20 W/m 5,4 C 8,5 C 14,5 km/h (3 Bft) 98,39 %
21.02.2019 16:50 9,6 C 5,6 C 8,9 C 75 % 1026,3 hPa 0,0 l/m 9,0 km/h (2 Bft) W-SW 240 0 min 0,000 mm 0,0 UV-I 23 W/m 5,4 C 7,8 C 14,5 km/h (3 Bft) 97,96 %
21.02.2019 16:52 9,6 C 5,6 C 8,9 C 75 % 1026,3 hPa 0,0 l/m 7,8 km/h (2 Bft) SW 217 0 min 0,000 mm 0,0 UV-I 24 W/m 5,4 C 8,6 C 12,9 km/h (3 Bft) 100,00 %
21.02.2019 16:54 9,6 C 5,6 C 8,9 C 75 % 1026,3 hPa 0,0 l/m 8,5 km/h (2 Bft) SW 218 0 min 0,000 mm 0,0 UV-I 23 W/m 5,4 C 8,1 C 12,9 km/h (3 Bft) 100,00 %
21.02.2019 16:56 9,6 C 5,6 C 8,9 C 75 % 1026,3 hPa 0,0 l/m 7,3 km/h (2 Bft) S-SW 203 0 min 0,000 mm 0,0 UV-I 23 W/m 5,4 C 8,9 C 11,3 km/h (2 Bft) 97,37 %
21.02.2019 16:58 9,6 C 5,6 C 8,9 C 74 % 1026,2 hPa 0,0 l/m 8,8 km/h (2 Bft) S-SW 207 0 min 0,000 mm 0,0 UV-I 23 W/m 5,2 C 7,9 C 14,5 km/h (3 Bft) 98,21 %
21.02.2019 17:00 9,6 C 5,6 C 8,9 C 74 % 1026,2 hPa 0,0 l/m 8,5 km/h (2 Bft) W-SW 239 0 min 0,000 mm 0,0 UV-I 23 W/m 5,2 C 8,1 C 16,1 km/h (3 Bft) 98,00 %
21.02.2019 17:02 9,6 C 5,6 C 8,9 C 74 % 1026,2 hPa 0,0 l/m 9,7 km/h (2 Bft) SW 228 0 min 0,026 mm 0,0 UV-I 23 W/m 5,2 C 7,3 C 16,1 km/h (3 Bft) 95,65 %
21.02.2019 17:04 9,6 C 5,6 C 8,9 C 74 % 1026,1 hPa 0,0 l/m 8,6 km/h (2 Bft) S-SW 209 0 min 0,000 mm 0,0 UV-I 23 W/m 5,2 C 8,0 C 12,9 km/h (3 Bft) 100,00 %
21.02.2019 17:06 9,6 C 5,6 C 8,9 C 74 % 1026,1 hPa 0,0 l/m 10,5 km/h (2 Bft) S-SW 200 0 min 0,000 mm 0,0 UV-I 21 W/m 5,2 C 6,9 C 14,5 km/h (3 Bft) 100,00 %
21.02.2019 17:08 9,6 C 5,6 C 8,9 C 74 % 1026,1 hPa 0,0 l/m 9,4 km/h (2 Bft) S-SW 207 0 min 0,000 mm 0,0 UV-I 20 W/m 5,2 C 7,5 C 12,9 km/h (3 Bft) 100,00 %
21.02.2019 17:10 9,6 C 5,6 C 8,9 C 74 % 1026,1 hPa 0,0 l/m 9,2 km/h (2 Bft) S-SW 205 0 min 0,000 mm 0,0 UV-I 21 W/m 5,2 C 7,6 C 12,9 km/h (3 Bft) 96,23 %
21.02.2019 17:12 9,6 C 5,6 C 8,9 C 74 % 1026,1 hPa 0,0 l/m 8,0 km/h (2 Bft) S-SW 200 0 min 0,000 mm 0,0 UV-I 20 W/m 5,2 C 8,4 C 11,3 km/h (2 Bft) 100,00 %
21.02.2019 17:14 9,6 C 5,6 C 8,9 C 74 % 1026,1 hPa 0,0 l/m 5,6 km/h (1 Bft) W-SW 246 0 min 0,000 mm 0,0 UV-I 21 W/m 5,2 C 9,6 C 11,3 km/h (2 Bft) 98,00 %
21.02.2019 17:16 9,6 C 5,6 C 8,9 C 74 % 1026,1 hPa 0,0 l/m 8,3 km/h (2 Bft) W-SW 243 0 min 0,000 mm 0,0 UV-I 19 W/m 5,2 C 8,2 C 12,9 km/h (3 Bft) 97,37 %
21.02.2019 17:19 9,6 C 5,6 C 8,9 C 74 % 1026,1 hPa 0,0 l/m 6,5 km/h (2 Bft) W-SW 246 3 min 0,000 mm 0,0 UV-I 18 W/m 5,2 C 9,6 C 11,3 km/h (2 Bft) 98,75 %
21.02.2019 17:20 9,6 C 5,6 C 8,9 C 74 % 1026,1 hPa 0,0 l/m 5,4 km/h (1 Bft) SW 224 1 min 0,000 mm 0,0 UV-I 16 W/m 5,2 C 9,6 C 8,0 km/h (2 Bft) 93,33 %
21.02.2019 17:22 9,6 C 5,6 C 8,9 C 74 % 1026,0 hPa 0,0 l/m 6,2 km/h (2 Bft) SW 234 2 min 0,000 mm 0,0 UV-I 16 W/m 5,2 C 9,6 C 9,7 km/h (2 Bft) 97,96 %
21.02.2019 17:24 9,5 C 5,6 C 8,3 C 74 % 1026,1 hPa 0,0 l/m 4,9 km/h (1 Bft) W-SW 237 2 min 0,000 mm 0,0 UV-I 14 W/m 5,1 C 9,5 C 8,0 km/h (2 Bft) 97,62 %
21.02.2019 17:26 9,5 C 5,6 C 8,3 C 74 % 1026,2 hPa 0,0 l/m 6,0 km/h (2 Bft) SW 232 0 min 0,000 mm 0,0 UV-I 12 W/m 5,1 C 9,5 C 9,7 km/h (2 Bft) 98,00 %
21.02.2019 17:28 9,5 C 5,6 C 8,3 C 74 % 1026,2 hPa 0,0 l/m 5,6 km/h (1 Bft) SW 229 0 min 0,000 mm 0,0 UV-I 11 W/m 5,1 C 9,5 C 9,7 km/h (2 Bft) 98,21 %
21.02.2019 17:30 9,4 C 5,6 C 8,3 C 74 % 1026,2 hPa 0,0 l/m 5,4 km/h (1 Bft) W 273 0 min 0,000 mm 0,0 UV-I 9 W/m 5,0 C 9,4 C 9,7 km/h (2 Bft) 94,29 %
21.02.2019 17:32 9,4 C 5,6 C 7,8 C 74 % 1026,3 hPa 0,0 l/m 5,4 km/h (1 Bft) W 279 0 min 0,000 mm 0,0 UV-I 7 W/m 5,0 C 9,4 C 9,7 km/h (2 Bft) 98,00 %
21.02.2019 17:34 9,3 C 5,6 C 7,8 C 75 % 1026,3 hPa 0,0 l/m 6,1 km/h (2 Bft) W 277 0 min 0,000 mm 0,0 UV-I 7 W/m 5,1 C 9,3 C 11,3 km/h (2 Bft) 97,87 %
21.02.2019 17:36 9,2 C 5,6 C 7,8 C 75 % 1026,3 hPa 0,0 l/m 5,6 km/h (1 Bft) W-SW 257 0 min 0,000 mm 0,0 UV-I 5 W/m 5,0 C 9,2 C 9,7 km/h (2 Bft) 97,87 %
21.02.2019 17:38 9,2 C 5,6 C 7,8 C 76 % 1026,3 hPa 0,0 l/m 3,1 km/h (1 Bft) W 276 0 min 0,000 mm 0,0 UV-I 5 W/m 5,2 C 9,2 C 6,4 km/h (2 Bft) 100,00 %
21.02.2019 17:40 9,0 C 5,6 C 7,2 C 76 % 1026,3 hPa 0,0 l/m 4,8 km/h (1 Bft) W 279 0 min 0,000 mm 0,0 UV-I 5 W/m 5,0 C 9,0 C 9,7 km/h (2 Bft) 95,45 %
21.02.2019 17:42 8,9 C 5,6 C 7,2 C 76 % 1026,3 hPa 0,0 l/m 3,6 km/h (1 Bft) W 279 0 min 0,000 mm 0,0 UV-I 5 W/m 4,9 C 8,9 C 6,4 km/h (2 Bft) 98,00 %
21.02.2019 17:44 8,9 C 5,6 C 7,2 C 77 % 1026,3 hPa 0,0 l/m 5,5 km/h (1 Bft) W 276 0 min 0,000 mm 0,0 UV-I 3 W/m 5,1 C 8,9 C 11,3 km/h (2 Bft) 100,00 %
21.02.2019 17:46 8,9 C 5,6 C 7,2 C 77 % 1026,3 hPa 0,0 l/m 3,2 km/h (1 Bft) NW 305 0 min 0,000 mm 0,0 UV-I 0 W/m 5,1 C 8,9 C 4,8 km/h (1 Bft) 100,00 %
21.02.2019 17:49 8,8 C 5,6 C 7,2 C 77 % 1026,4 hPa 0,0 l/m 4,0 km/h (1 Bft) W-NW 302 0 min 0,000 mm 0,0 UV-I 0 W/m 5,0 C 8,8 C 6,4 km/h (2 Bft) 98,70 %
21.02.2019 17:50 8,8 C 5,6 C 7,2 C 77 % 1026,4 hPa 0,0 l/m 2,9 km/h (1 Bft) W-NW 302 0 min 0,000 mm 0,0 UV-I 0 W/m 5,0 C 8,8 C 4,8 km/h (1 Bft) 95,65 %
21.02.2019 17:52 8,7 C 5,6 C 6,7 C 77 % 1026,4 hPa 0,0 l/m 2,4 km/h (1 Bft) W-NW 302 0 min 0,000 mm 0,0 UV-I 0 W/m 4,9 C 8,7 C 3,2 km/h (1 Bft) 95,12 %
21.02.2019 17:54 8,7 C 5,6 C 6,7 C 78 % 1026,4 hPa 0,0 l/m 2,0 km/h (1 Bft) W-NW 302 0 min 0,000 mm 0,0 UV-I 0 W/m 5,1 C 8,7 C 3,2 km/h (1 Bft) 97,87 %
21.02.2019 17:56 8,6 C 5,6 C 6,7 C 78 % 1026,3 hPa 0,0 l/m 2,8 km/h (1 Bft) W-NW 301 0 min 0,000 mm 0,0 UV-I 0 W/m 5,0 C 8,6 C 4,8 km/h (1 Bft) 97,56 %
21.02.2019 17:58 8,6 C 5,6 C 6,7 C 78 % 1026,3 hPa 0,0 l/m 3,4 km/h (1 Bft) W-NW 301 0 min 0,000 mm 0,0 UV-I 0 W/m 5,0 C 8,6 C 4,8 km/h (1 Bft) 97,22 %
21.02.2019 18:00 8,6 C 5,6 C 6,7 C 78 % 1026,3 hPa 0,0 l/m 3,6 km/h (1 Bft) W-NW 300 0 min 0,000 mm 0,0 UV-I 0 W/m 5,0 C 8,6 C 4,8 km/h (1 Bft) 96,77 %
21.02.2019 18:02 8,6 C 5,6 C 6,7 C 78 % 1026,4 hPa 0,0 l/m 4,6 km/h (1 Bft) W 266 0 min 0,025 mm 0,0 UV-I 0 W/m 5,0 C 8,6 C 11,3 km/h (2 Bft) 93,62 %
21.02.2019 18:04 8,6 C 5,6 C 6,7 C 78 % 1026,4 hPa 0,0 l/m 5,9 km/h (2 Bft) W-NW 284 0 min 0,000 mm 0,0 UV-I 0 W/m 5,0 C 8,6 C 11,3 km/h (2 Bft) 93,62 %
21.02.2019 18:06 8,7 C 5,6 C 6,7 C 78 % 1026,4 hPa 0,0 l/m 4,7 km/h (1 Bft) W-NW 284 0 min 0,000 mm 0,0 UV-I 0 W/m 5,1 C 8,7 C 6,4 km/h (2 Bft) 94,00 %
21.02.2019 18:08 8,7 C 5,6 C 6,7 C 78 % 1026,4 hPa 0,0 l/m 4,0 km/h (1 Bft) W-NW 283 0 min 0,000 mm 0,0 UV-I 0 W/m 5,1 C 8,7 C 6,4 km/h (2 Bft) 95,12 %
21.02.2019 18:10 8,8 C 5,6 C 7,2 C 77 % 1026,5 hPa 0,0 l/m 4,8 km/h (1 Bft) W 278 0 min 0,000 mm 0,0 UV-I 0 W/m 5,0 C 8,8 C 6,4 km/h (2 Bft) 91,49 %
21.02.2019 18:12 8,8 C 5,6 C 7,2 C 77 % 1026,4 hPa 0,0 l/m 3,3 km/h (1 Bft) W 278 0 min 0,000 mm 0,0 UV-I 0 W/m 5,0 C 8,8 C 4,8 km/h (1 Bft) 94,00 %
21.02.2019 18:14 8,8 C 5,6 C 7,2 C 77 % 1026,5 hPa 0,0 l/m 5,2 km/h (1 Bft) W-NW 288 0 min 0,000 mm 0,0 UV-I 0 W/m 5,0 C 8,8 C 12,9 km/h (3 Bft) 93,62 %
21.02.2019 18:16 8,8 C 5,6 C 7,2 C 77 % 1026,4 hPa 0,0 l/m 7,1 km/h (2 Bft) W 274 0 min 0,000 mm 0,0 UV-I 0 W/m 5,0 C 8,3 C 12,9 km/h (3 Bft) 95,74 %
21.02.2019 18:18 8,8 C 5,6 C 7,2 C 77 % 1026,4 hPa 0,0 l/m 5,5 km/h (1 Bft) W 269 0 min 0,000 mm 0,0 UV-I 0 W/m 5,0 C 8,8 C 8,0 km/h (2 Bft) 94,34 %
21.02.2019 18:20 8,8 C 5,6 C 7,8 C 77 % 1026,4 hPa 0,0 l/m 6,6 km/h (2 Bft) W 272 0 min 0,000 mm 0,0 UV-I 0 W/m 5,0 C 8,7 C 11,3 km/h (2 Bft) 95,12 %
21.02.2019 18:22 8,8 C 5,6 C 7,8 C 77 % 1026,4 hPa 0,0 l/m 6,9 km/h (2 Bft) W 259 0 min 0,000 mm 0,0 UV-I 0 W/m 5,0 C 8,4 C 9,7 km/h (2 Bft) 94,00 %
21.02.2019 18:24 8,9 C 5,6 C 7,8 C 76 % 1026,4 hPa 0,0 l/m 5,9 km/h (2 Bft) W-SW 245 0 min 0,000 mm 0,0 UV-I 0 W/m 4,9 C 8,9 C 9,7 km/h (2 Bft) 95,74 %
21.02.2019 18:26 8,9 C 5,6 C 7,8 C 76 % 1026,4 hPa 0,0 l/m 5,5 km/h (1 Bft) W 259 0 min 0,000 mm 0,0 UV-I 0 W/m 4,9 C 8,9 C 9,7 km/h (2 Bft) 97,56 %
21.02.2019 18:28 8,9 C 5,6 C 7,8 C 76 % 1026,4 hPa 0,0 l/m 7,3 km/h (2 Bft) W-SW 249 0 min 0,000 mm 0,0 UV-I 0 W/m 4,9 C 8,2 C 11,3 km/h (2 Bft) 92,00 %
21.02.2019 18:30 8,9 C 5,6 C 7,8 C 76 % 1026,5 hPa 0,0 l/m 5,9 km/h (2 Bft) W 265 0 min 0,000 mm 0,0 UV-I 0 W/m 4,9 C 8,9 C 9,7 km/h (2 Bft) 100,00 %
21.02.2019 18:32 8,8 C 5,6 C 7,8 C 76 % 1026,4 hPa 0,0 l/m 4,5 km/h (1 Bft) W-SW 252 0 min 0,000 mm 0,0 UV-I 0 W/m 4,8 C 8,8 C 6,4 km/h (2 Bft) 96,00 %
21.02.2019 18:34 8,8 C 5,6 C 7,8 C 77 % 1026,4 hPa 0,0 l/m 5,8 km/h (2 Bft) W 271 0 min 0,000 mm 0,0 UV-I 0 W/m 5,0 C 8,8 C 9,7 km/h (2 Bft) 94,34 %
21.02.2019 18:36 8,8 C 5,6 C 7,8 C 76 % 1026,4 hPa 0,0 l/m 5,2 km/h (1 Bft) W 265 0 min 0,000 mm 0,0 UV-I 0 W/m 4,8 C 8,8 C 9,7 km/h (2 Bft) 96,30 %
21.02.2019 18:38 8,8 C 5,6 C 7,8 C 77 % 1026,5 hPa 0,0 l/m 5,4 km/h (1 Bft) W 263 0 min 0,000 mm 0,0 UV-I 0 W/m 5,0 C 8,8 C 6,4 km/h (2 Bft) 91,04 %
21.02.2019 18:40 8,8 C 5,6 C 7,2 C 77 % 1026,5 hPa 0,0 l/m 4,6 km/h (1 Bft) W 265 0 min 0,000 mm 0,0 UV-I 0 W/m 5,0 C 8,8 C 6,4 km/h (2 Bft) 95,74 %
21.02.2019 18:42 8,7 C 5,6 C 7,2 C 77 % 1026,5 hPa 0,0 l/m 5,6 km/h (1 Bft) W 263 0 min 0,000 mm 0,0 UV-I 0 W/m 4,9 C 8,7 C 9,7 km/h (2 Bft) 95,83 %
21.02.2019 18:44 8,7 C 5,6 C 7,2 C 77 % 1026,5 hPa 0,0 l/m 4,7 km/h (1 Bft) W-SW 244 0 min 0,000 mm 0,0 UV-I 0 W/m 4,9 C 8,7 C 8,0 km/h (2 Bft) 95,12 %
21.02.2019 18:46 8,7 C 5,6 C 7,2 C 77 % 1026,5 hPa 0,0 l/m 5,9 km/h (2 Bft) W-SW 238 0 min 0,000 mm 0,0 UV-I 0 W/m 4,9 C 8,7 C 9,7 km/h (2 Bft) 94,34 %
21.02.2019 18:48 8,7 C 5,6 C 7,8 C 77 % 1026,5 hPa 0,0 l/m 6,3 km/h (2 Bft) W-SW 243 0 min 0,000 mm 0,0 UV-I 0 W/m 4,9 C 8,7 C 9,7 km/h (2 Bft) 95,12 %
21.02.2019 18:50 8,7 C 5,6 C 7,8 C 77 % 1026,4 hPa 0,0 l/m 5,9 km/h (2 Bft) W 267 0 min 0,000 mm 0,0 UV-I 0 W/m 4,9 C 8,7 C 11,3 km/h (2 Bft) 92,45 %
21.02.2019 18:52 8,7 C 5,6 C 7,8 C 77 % 1026,4 hPa 0,0 l/m 6,0 km/h (2 Bft) W-SW 254 0 min 0,000 mm 0,0 UV-I 0 W/m 4,9 C 8,7 C 11,3 km/h (2 Bft) 95,12 %
21.02.2019 18:54 8,7 C 5,6 C 7,8 C 77 % 1026,5 hPa 0,0 l/m 6,7 km/h (2 Bft) W-SW 237 0 min 0,000 mm 0,0 UV-I 0 W/m 4,9 C 8,5 C 11,3 km/h (2 Bft) 96,00 %
21.02.2019 18:56 8,6 C 5,6 C 7,8 C 77 % 1026,4 hPa 0,0 l/m 6,0 km/h (2 Bft) W-SW 257 0 min 0,000 mm 0,0 UV-I 0 W/m 4,8 C 8,6 C 9,7 km/h (2 Bft) 96,00 %
21.02.2019 18:58 8,6 C 5,6 C 7,8 C 77 % 1026,3 hPa 0,0 l/m 6,4 km/h (2 Bft) W-SW 242 0 min 0,000 mm 0,0 UV-I 0 W/m 4,8 C 8,6 C 8,0 km/h (2 Bft) 94,29 %
21.02.2019 19:00 8,6 C 5,6 C 7,8 C 78 % 1026,3 hPa 0,0 l/m 7,2 km/h (2 Bft) SW 228 0 min 0,000 mm 0,0 UV-I 0 W/m 5,0 C 8,0 C 11,3 km/h (2 Bft) 96,23 %
21.02.2019 19:02 8,6 C 5,6 C 7,2 C 78 % 1026,4 hPa 0,0 l/m 6,0 km/h (2 Bft) W 264 0 min 0,025 mm 0,0 UV-I 0 W/m 5,0 C 8,6 C 8,0 km/h (2 Bft) 95,12 %
21.02.2019 19:04 8,5 C 5,6 C 7,2 C 78 % 1026,4 hPa 0,0 l/m 7,2 km/h (2 Bft) SW 236 0 min 0,000 mm 0,0 UV-I 0 W/m 4,9 C 7,9 C 11,3 km/h (2 Bft) 94,34 %
21.02.2019 19:06 8,5 C 5,6 C 7,2 C 78 % 1026,3 hPa 0,0 l/m 8,6 km/h (2 Bft) W-SW 238 0 min 0,000 mm 0,0 UV-I 0 W/m 4,9 C 6,9 C 16,1 km/h (3 Bft) 96,23 %
21.02.2019 19:08 8,4 C 5,6 C 7,2 C 78 % 1026,3 hPa 0,0 l/m 11,0 km/h (2 Bft) SW 227 0 min 0,000 mm 0,0 UV-I 0 W/m 4,8 C 5,2 C 17,7 km/h (3 Bft) 97,14 %
21.02.2019 19:10 8,4 C 5,6 C 7,8 C 78 % 1026,3 hPa 0,0 l/m 10,4 km/h (2 Bft) SW 236 0 min 0,000 mm 0,0 UV-I 0 W/m 4,8 C 5,6 C 16,1 km/h (3 Bft) 98,21 %
21.02.2019 19:12 8,5 C 5,6 C 7,8 C 78 % 1026,4 hPa 0,0 l/m 8,8 km/h (2 Bft) W 260 0 min 0,000 mm 0,0 UV-I 0 W/m 4,9 C 6,7 C 12,9 km/h (3 Bft) 100,00 %
21.02.2019 19:14 8,6 C 5,6 C 7,8 C 78 % 1026,4 hPa 0,0 l/m 8,6 km/h (2 Bft) W 262 0 min 0,000 mm 0,0 UV-I 0 W/m 5,0 C 7,0 C 11,3 km/h (2 Bft) 97,56 %
21.02.2019 19:16 8,6 C 5,6 C 7,8 C 78 % 1026,4 hPa 0,0 l/m 8,2 km/h (2 Bft) W 266 0 min 0,000 mm 0,0 UV-I 0 W/m 5,0 C 7,2 C 11,3 km/h (2 Bft) 100,00 %
21.02.2019 19:18 8,6 C 5,6 C 7,8 C 78 % 1026,4 hPa 0,0 l/m 10,7 km/h (2 Bft) W-SW 243 0 min 0,000 mm 0,0 UV-I 0 W/m 5,0 C 5,6 C 16,1 km/h (3 Bft) 97,87 %
21.02.2019 19:20 8,6 C 5,6 C 7,8 C 78 % 1026,4 hPa 0,0 l/m 11,7 km/h (2 Bft) W-SW 254 0 min 0,000 mm 0,0 UV-I 0 W/m 5,0 C 5,1 C 17,7 km/h (3 Bft) 100,00 %
21.02.2019 19:22 8,5 C 5,6 C 7,8 C 78 % 1026,4 hPa 0,0 l/m 12,9 km/h (3 Bft) W-SW 243 0 min 0,000 mm 0,0 UV-I 0 W/m 4,9 C 4,3 C 17,7 km/h (3 Bft) 100,00 %
21.02.2019 19:24 8,6 C 5,6 C 7,8 C 78 % 1026,3 hPa 0,0 l/m 12,7 km/h (3 Bft) SW 227 0 min 0,000 mm 0,0 UV-I 0 W/m 5,0 C 4,5 C 17,7 km/h (3 Bft) 100,00 %
21.02.2019 19:26 8,6 C 5,6 C 7,8 C 78 % 1026,3 hPa 0,0 l/m 11,6 km/h (2 Bft) W-SW 237 0 min 0,000 mm 0,0 UV-I 0 W/m 5,0 C 5,1 C 14,5 km/h (3 Bft) 100,00 %
21.02.2019 19:28 8,6 C 5,6 C 7,8 C 78 % 1026,3 hPa 0,0 l/m 11,8 km/h (2 Bft) W 263 0 min 0,000 mm 0,0 UV-I 0 W/m 5,0 C 5,0 C 16,1 km/h (3 Bft) 100,00 %
21.02.2019 19:30 8,6 C 5,6 C 7,8 C 77 % 1026,3 hPa 0,0 l/m 13,2 km/h (3 Bft) SW 235 0 min 0,000 mm 0,0 UV-I 0 W/m 4,8 C 4,3 C 20,9 km/h (4 Bft) 100,00 %
21.02.2019 19:32 8,6 C 5,6 C 7,8 C 77 % 1026,4 hPa 0,0 l/m 12,5 km/h (3 Bft) W-SW 248 0 min 0,000 mm 0,0 UV-I 0 W/m 4,8 C 4,6 C 20,9 km/h (4 Bft) 100,00 %
21.02.2019 19:34 8,6 C 5,6 C 7,8 C 77 % 1026,3 hPa 0,0 l/m 14,1 km/h (3 Bft) SW 228 0 min 0,000 mm 0,0 UV-I 0 W/m 4,8 C 3,8 C 19,3 km/h (3 Bft) 97,87 %
21.02.2019 19:36 8,6 C 5,6 C 7,8 C 77 % 1026,2 hPa 0,0 l/m 15,6 km/h (3 Bft) W 259 0 min 0,000 mm 0,0 UV-I 0 W/m 4,8 C 3,2 C 20,9 km/h (4 Bft) 100,00 %
21.02.2019 19:38 8,7 C 5,6 C 7,8 C 77 % 1026,2 hPa 0,0 l/m 13,0 km/h (3 Bft) W-SW 244 0 min 0,000 mm 0,0 UV-I 0 W/m 4,9 C 4,5 C 17,7 km/h (3 Bft) 98,00 %
21.02.2019 19:40 8,7 C 5,6 C 7,8 C 77 % 1026,1 hPa 0,0 l/m 13,0 km/h (3 Bft) SW 232 0 min 0,000 mm 0,0 UV-I 0 W/m 4,9 C 4,5 C 17,7 km/h (3 Bft) 100,00 %
21.02.2019 19:42 8,6 C 5,6 C 7,8 C 77 % 1026,0 hPa 0,0 l/m 14,8 km/h (3 Bft) W-SW 238 0 min 0,000 mm 0,0 UV-I 0 W/m 4,8 C 3,5 C 19,3 km/h (3 Bft) 100,00 %
21.02.2019 19:44 8,7 C 5,6 C 7,8 C 77 % 1026,1 hPa 0,0 l/m 14,3 km/h (3 Bft) W 277 0 min 0,000 mm 0,0 UV-I 0 W/m 4,9 C 3,9 C 22,5 km/h (4 Bft) 97,56 %
21.02.2019 19:46 8,6 C 5,6 C 7,8 C 77 % 1026,2 hPa 0,0 l/m 10,6 km/h (2 Bft) W-SW 257 0 min 0,000 mm 0,0 UV-I 0 W/m 4,8 C 5,7 C 14,5 km/h (3 Bft) 98,21 %
21.02.2019 19:48 8,6 C 5,6 C 7,8 C 77 % 1026,2 hPa 0,0 l/m 8,1 km/h (2 Bft) W 267 0 min 0,000 mm 0,0 UV-I 0 W/m 4,8 C 7,3 C 12,9 km/h (3 Bft) 100,00 %
21.02.2019 19:50 8,5 C 5,6 C 7,8 C 78 % 1026,2 hPa 0,0 l/m 9,6 km/h (2 Bft) W 271 0 min 0,000 mm 0,0 UV-I 0 W/m 4,9 C 6,2 C 11,3 km/h (2 Bft) 100,00 %
21.02.2019 19:52 8,4 C 5,6 C 7,2 C 78 % 1026,2 hPa 0,0 l/m 8,8 km/h (2 Bft) W 268 0 min 0,000 mm 0,0 UV-I 0 W/m 4,8 C 6,6 C 14,5 km/h (3 Bft) 98,21 %
21.02.2019 19:54 8,4 C 5,6 C 7,2 C 78 % 1026,1 hPa 0,0 l/m 9,7 km/h (2 Bft) W-SW 253 0 min 0,000 mm 0,0 UV-I 0 W/m 4,8 C 6,0 C 14,5 km/h (3 Bft) 100,00 %
21.02.2019 19:56 8,4 C 5,6 C 7,2 C 78 % 1026,1 hPa 0,0 l/m 12,5 km/h (3 Bft) W 269 0 min 0,000 mm 0,0 UV-I 0 W/m 4,8 C 4,4 C 16,1 km/h (3 Bft) 96,00 %
21.02.2019 19:58 8,4 C 5,6 C 7,2 C 78 % 1026,1 hPa 0,0 l/m 8,6 km/h (2 Bft) W-SW 251 0 min 0,000 mm 0,0 UV-I 0 W/m 4,8 C 6,7 C 12,9 km/h (3 Bft) 92,86 %
21.02.2019 20:00 8,4 C 5,6 C 7,2 C 78 % 1026,1 hPa 0,0 l/m 10,1 km/h (2 Bft) W 265 0 min 0,000 mm 0,0 UV-I 0 W/m 4,8 C 5,8 C 14,5 km/h (3 Bft) 95,74 %
21.02.2019 20:02 8,4 C 5,6 C 7,2 C 77 % 1026,2 hPa 0,0 l/m 10,4 km/h (2 Bft) W 267 0 min 0,026 mm 0,0 UV-I 0 W/m 4,6 C 5,6 C 12,9 km/h (3 Bft) 94,00 %
21.02.2019 20:04 8,4 C 5,6 C 7,2 C 78 % 1026,2 hPa 0,0 l/m 9,4 km/h (2 Bft) W-SW 253 0 min 0,000 mm 0,0 UV-I 0 W/m 4,8 C 6,2 C 12,9 km/h (3 Bft) 93,62 %
21.02.2019 20:06 8,3 C 5,6 C 6,7 C 78 % 1026,2 hPa 0,0 l/m 8,1 km/h (2 Bft) W-SW 250 0 min 0,000 mm 0,0 UV-I 0 W/m 4,7 C 7,0 C 12,9 km/h (3 Bft) 96,00 %
21.02.2019 20:08 8,3 C 5,6 C 7,2 C 78 % 1026,2 hPa 0,0 l/m 8,5 km/h (2 Bft) SW 223 0 min 0,000 mm 0,0 UV-I 0 W/m 4,7 C 6,7 C 11,3 km/h (2 Bft) 95,74 %
21.02.2019 20:10 8,3 C 5,6 C 7,2 C 78 % 1026,2 hPa 0,0 l/m 10,1 km/h (2 Bft) W-SW 248 0 min 0,000 mm 0,0 UV-I 0 W/m 4,7 C 5,7 C 14,5 km/h (3 Bft) 92,11 %
21.02.2019 20:12 8,3 C 5,6 C 7,2 C 78 % 1026,2 hPa 0,0 l/m 8,9 km/h (2 Bft) W-SW 258 0 min 0,000 mm 0,0 UV-I 0 W/m 4,7 C 6,4 C 12,9 km/h (3 Bft) 94,23 %
21.02.2019 20:14 8,3 C 5,6 C 6,7 C 78 % 1026,2 hPa 0,0 l/m 8,1 km/h (2 Bft) W 259 0 min 0,000 mm 0,0 UV-I 0 W/m 4,7 C 7,0 C 12,9 km/h (3 Bft) 98,00 %
21.02.2019 20:16 8,3 C 5,6 C 6,7 C 78 % 1026,2 hPa 0,0 l/m 10,2 km/h (2 Bft) W-SW 251 0 min 0,000 mm 0,0 UV-I 0 W/m 4,7 C 5,6 C 14,5 km/h (3 Bft) 94,29 %
21.02.2019 20:18 8,3 C 5,6 C 6,7 C 78 % 1026,2 hPa 0,0 l/m 10,7 km/h (2 Bft) W-SW 242 0 min 0,000 mm 0,0 UV-I 0 W/m 4,7 C 5,3 C 14,5 km/h (3 Bft) 94,92 %
21.02.2019 20:20 8,2 C 5,6 C 6,7 C 78 % 1026,2 hPa 0,0 l/m 9,0 km/h (2 Bft) W 265 0 min 0,000 mm 0,0 UV-I 0 W/m 4,6 C 6,3 C 12,9 km/h (3 Bft) 95,74 %
21.02.2019 20:22 8,2 C 5,6 C 6,7 C 78 % 1026,2 hPa 0,0 l/m 10,1 km/h (2 Bft) W-SW 258 0 min 0,000 mm 0,0 UV-I 0 W/m 4,6 C 5,5 C 14,5 km/h (3 Bft) 97,37 %
21.02.2019 20:24 8,1 C 5,6 C 6,1 C 78 % 1026,3 hPa 0,0 l/m 8,4 km/h (2 Bft) W-SW 257 0 min 0,000 mm 0,0 UV-I 0 W/m 4,5 C 6,6 C 11,3 km/h (2 Bft) 98,00 %
21.02.2019 20:26 8,1 C 5,6 C 6,1 C 79 % 1026,3 hPa 0,0 l/m 7,2 km/h (2 Bft) W 263 0 min 0,000 mm 0,0 UV-I 0 W/m 4,7 C 7,5 C 9,7 km/h (2 Bft) 98,00 %
21.02.2019 20:28 8,0 C 5,6 C 6,1 C 79 % 1026,3 hPa 0,0 l/m 8,4 km/h (2 Bft) W 262 0 min 0,000 mm 0,0 UV-I 0 W/m 4,6 C 6,5 C 11,3 km/h (2 Bft) 97,56 %
21.02.2019 20:30 7,9 C 5,6 C 6,1 C 79 % 1026,2 hPa 0,0 l/m 6,4 km/h (2 Bft) W-SW 257 0 min 0,000 mm 0,0 UV-I 0 W/m 4,5 C 7,9 C 11,3 km/h (2 Bft) 96,00 %
21.02.2019 20:32 7,9 C 5,6 C 6,1 C 79 % 1026,2 hPa 0,0 l/m 7,5 km/h (2 Bft) W 262 0 min 0,000 mm 0,0 UV-I 0 W/m 4,5 C 7,0 C 11,3 km/h (2 Bft) 100,00 %
21.02.2019 20:34 7,9 C 5,6 C 6,1 C 79 % 1026,2 hPa 0,0 l/m 7,1 km/h (2 Bft) W 273 0 min 0,000 mm 0,0 UV-I 0 W/m 4,5 C 7,3 C 12,9 km/h (3 Bft) 98,00 %
21.02.2019 20:36 7,9 C 5,6 C 6,1 C 79 % 1026,3 hPa 0,0 l/m 6,7 km/h (2 Bft) W 280 0 min 0,000 mm 0,0 UV-I 0 W/m 4,5 C 7,7 C 14,5 km/h (3 Bft) 100,00 %
21.02.2019 20:39 8,1 C 5,6 C 6,7 C 79 % 1026,3 hPa 0,0 l/m 9,4 km/h (2 Bft) W-NW 282 0 min 0,000 mm 0,0 UV-I 0 W/m 4,7 C 5,9 C 14,5 km/h (3 Bft) 100,00 %
21.02.2019 20:40 8,2 C 5,6 C 6,7 C 79 % 1026,3 hPa 0,0 l/m 4,5 km/h (1 Bft) W 266 0 min 0,000 mm 0,0 UV-I 0 W/m 4,8 C 8,2 C 6,4 km/h (2 Bft) 100,00 %
21.02.2019 20:42 8,2 C 5,6 C 7,2 C 79 % 1026,4 hPa 0,0 l/m 7,9 km/h (2 Bft) W-NW 301 0 min 0,000 mm 0,0 UV-I 0 W/m 4,8 C 7,0 C 12,9 km/h (3 Bft) 98,00 %
21.02.2019 20:44 8,3 C 5,6 C 7,2 C 78 % 1026,4 hPa 0,0 l/m 8,3 km/h (2 Bft) W-NW 284 0 min 0,000 mm 0,0 UV-I 0 W/m 4,7 C 6,9 C 12,9 km/h (3 Bft) 100,00 %
21.02.2019 20:46 8,3 C 5,6 C 7,2 C 78 % 1026,5 hPa 0,0 l/m 9,3 km/h (2 Bft) W 269 0 min 0,000 mm 0,0 UV-I 0 W/m 4,7 C 6,2 C 14,5 km/h (3 Bft) 100,00 %
21.02.2019 20:48 8,4 C 5,6 C 7,2 C 78 % 1026,5 hPa 0,0 l/m 6,9 km/h (2 Bft) W-NW 285 0 min 0,000 mm 0,0 UV-I 0 W/m 4,8 C 8,0 C 12,9 km/h (3 Bft) 96,00 %
21.02.2019 20:50 8,4 C 5,6 C 7,2 C 79 % 1026,5 hPa 0,0 l/m 7,5 km/h (2 Bft) W-NW 292 0 min 0,000 mm 0,0 UV-I 0 W/m 5,0 C 7,5 C 16,1 km/h (3 Bft) 97,87 %
21.02.2019 20:52 8,5 C 5,6 C 7,2 C 79 % 1026,6 hPa 0,0 l/m 9,9 km/h (2 Bft) NW 312 0 min 0,000 mm 0,0 UV-I 0 W/m 5,1 C 6,0 C 20,9 km/h (4 Bft) 100,00 %
21.02.2019 20:54 8,6 C 5,6 C 7,8 C 79 % 1026,6 hPa 0,0 l/m 8,7 km/h (2 Bft) W-NW 299 0 min 0,000 mm 0,0 UV-I 0 W/m 5,2 C 6,9 C 14,5 km/h (3 Bft) 100,00 %
21.02.2019 20:56 8,6 C 5,6 C 7,8 C 79 % 1026,6 hPa 0,0 l/m 8,1 km/h (2 Bft) W 265 0 min 0,000 mm 0,0 UV-I 0 W/m 5,2 C 7,3 C 12,9 km/h (3 Bft) 100,00 %
21.02.2019 20:58 8,6 C 5,6 C 7,8 C 79 % 1026,7 hPa 0,0 l/m 10,5 km/h (2 Bft) W-SW 255 0 min 0,000 mm 0,0 UV-I 0 W/m 5,2 C 5,7 C 17,7 km/h (3 Bft) 97,56 %
21.02.2019 21:00 8,7 C 5,6 C 7,8 C 79 % 1026,7 hPa 0,0 l/m 10,2 km/h (2 Bft) NW 319 0 min 0,000 mm 0,0 UV-I 0 W/m 5,3 C 6,0 C 16,1 km/h (3 Bft) 98,21 %
21.02.2019 21:02 8,7 C 5,6 C 7,8 C 78 % 1026,6 hPa 0,0 l/m 8,6 km/h (2 Bft) NW 315 0 min 0,025 mm 0,0 UV-I 0 W/m 5,1 C 7,1 C 14,5 km/h (3 Bft) 100,00 %
21.02.2019 21:04 8,8 C 5,6 C 7,8 C 78 % 1026,6 hPa 0,0 l/m 9,8 km/h (2 Bft) W 274 0 min 0,000 mm 0,0 UV-I 0 W/m 5,2 C 6,4 C 14,5 km/h (3 Bft) 100,00 %
21.02.2019 21:06 8,9 C 5,6 C 8,3 C 78 % 1026,7 hPa 0,0 l/m 8,7 km/h (2 Bft) N 350 0 min 0,000 mm 0,0 UV-I 0 W/m 5,3 C 7,2 C 16,1 km/h (3 Bft) 98,00 %
21.02.2019 21:08 9,0 C 5,6 C 8,3 C 77 % 1026,7 hPa 0,0 l/m 11,8 km/h (2 Bft) W-NW 288 0 min 0,000 mm 0,0 UV-I 0 W/m 5,2 C 5,5 C 17,7 km/h (3 Bft) 100,00 %
21.02.2019 21:10 9,0 C 5,6 C 8,3 C 77 % 1026,7 hPa 0,0 l/m 10,2 km/h (2 Bft) W 281 0 min 0,000 mm 0,0 UV-I 0 W/m 5,2 C 6,4 C 17,7 km/h (3 Bft) 100,00 %
21.02.2019 21:12 9,0 C 5,6 C 8,3 C 77 % 1026,8 hPa 0,0 l/m 12,8 km/h (3 Bft) W 273 0 min 0,000 mm 0,0 UV-I 0 W/m 5,2 C 5,0 C 19,3 km/h (3 Bft) 100,00 %
21.02.2019 21:14 9,1 C 5,6 C 8,3 C 77 % 1026,8 hPa 0,0 l/m 10,8 km/h (2 Bft) SW 236 0 min 0,000 mm 0,0 UV-I 0 W/m 5,3 C 6,1 C 16,1 km/h (3 Bft) 100,00 %
21.02.2019 21:16 9,1 C 5,6 C 8,3 C 77 % 1026,8 hPa 0,0 l/m 12,2 km/h (2 Bft) W 274 0 min 0,000 mm 0,0 UV-I 0 W/m 5,3 C 5,4 C 22,5 km/h (4 Bft) 100,00 %
21.02.2019 21:18 9,1 C 5,6 C 8,3 C 77 % 1026,8 hPa 0,0 l/m 11,5 km/h (2 Bft) W 276 0 min 0,000 mm 0,0 UV-I 0 W/m 5,3 C 5,7 C 17,7 km/h (3 Bft) 96,77 %
21.02.2019 21:20 9,1 C 5,6 C 8,3 C 77 % 1026,8 hPa 0,0 l/m 11,5 km/h (2 Bft) W-NW 290 0 min 0,000 mm 0,0 UV-I 0 W/m 5,3 C 5,7 C 16,1 km/h (3 Bft) 98,11 %
21.02.2019 21:22 9,0 C 5,6 C 8,3 C 77 % 1026,8 hPa 0,0 l/m 11,7 km/h (2 Bft) NW 305 0 min 0,000 mm 0,0 UV-I 0 W/m 5,2 C 5,5 C 17,7 km/h (3 Bft) 97,73 %
21.02.2019 21:24 9,0 C 5,6 C 8,3 C 77 % 1026,8 hPa 0,0 l/m 12,0 km/h (2 Bft) W-SW 253 0 min 0,000 mm 0,0 UV-I 0 W/m 5,2 C 5,4 C 25,7 km/h (4 Bft) 96,00 %
21.02.2019 21:26 9,0 C 5,6 C 8,3 C 77 % 1026,8 hPa 0,0 l/m 12,9 km/h (3 Bft) W 274 0 min 0,000 mm 0,0 UV-I 0 W/m 5,2 C 4,9 C 19,3 km/h (3 Bft) 97,56 %
21.02.2019 21:28 9,0 C 5,6 C 8,3 C 77 % 1026,8 hPa 0,0 l/m 14,6 km/h (3 Bft) W-SW 254 0 min 0,000 mm 0,0 UV-I 0 W/m 5,2 C 4,1 C 20,9 km/h (4 Bft) 98,00 %
21.02.2019 21:30 9,0 C 5,6 C 8,3 C 77 % 1026,7 hPa 0,0 l/m 11,5 km/h (2 Bft) W-SW 254 0 min 0,000 mm 0,0 UV-I 0 W/m 5,2 C 5,6 C 17,7 km/h (3 Bft) 95,74 %
21.02.2019 21:32 9,1 C 5,6 C 8,3 C 77 % 1026,7 hPa 0,0 l/m 18,0 km/h (3 Bft) W 268 0 min 0,000 mm 0,0 UV-I 0 W/m 5,3 C 2,8 C 25,7 km/h (4 Bft) 97,87 %
21.02.2019 21:34 9,1 C 5,6 C 8,3 C 77 % 1026,6 hPa 0,0 l/m 12,3 km/h (3 Bft) W-SW 250 0 min 0,000 mm 0,0 UV-I 0 W/m 5,3 C 5,3 C 20,9 km/h (4 Bft) 97,37 %
21.02.2019 21:36 9,1 C 5,6 C 8,3 C 77 % 1026,6 hPa 0,0 l/m 13,9 km/h (3 Bft) W 279 0 min 0,000 mm 0,0 UV-I 0 W/m 5,3 C 4,5 C 20,9 km/h (4 Bft) 96,00 %
21.02.2019 21:38 9,1 C 5,6 C 8,3 C 77 % 1026,6 hPa 0,0 l/m 13,4 km/h (3 Bft) W 279 0 min 0,000 mm 0,0 UV-I 0 W/m 5,3 C 4,8 C 25,7 km/h (4 Bft) 100,00 %
21.02.2019 21:40 8,9 C 5,6 C 7,8 C 77 % 1026,6 hPa 0,0 l/m 14,6 km/h (3 Bft) W 275 0 min 0,000 mm 0,0 UV-I 0 W/m 5,1 C 4,0 C 19,3 km/h (3 Bft) 97,56 %
21.02.2019 21:42 8,9 C 5,6 C 7,8 C 77 % 1026,5 hPa 0,0 l/m 13,0 km/h (3 Bft) W-NW 285 0 min 0,000 mm 0,0 UV-I 0 W/m 5,1 C 4,7 C 19,3 km/h (3 Bft) 95,74 %
21.02.2019 21:44 8,9 C 5,6 C 7,8 C 77 % 1026,5 hPa 0,0 l/m 15,2 km/h (3 Bft) W 266 0 min 0,000 mm 0,0 UV-I 0 W/m 5,1 C 3,7 C 20,9 km/h (4 Bft) 97,44 %
21.02.2019 21:46 8,9 C 5,6 C 7,8 C 77 % 1026,5 hPa 0,0 l/m 17,2 km/h (3 Bft) W-NW 283 0 min 0,000 mm 0,0 UV-I 0 W/m 5,1 C 2,9 C 20,9 km/h (4 Bft) 98,18 %
21.02.2019 21:48 8,9 C 5,6 C 7,8 C 77 % 1026,5 hPa 0,0 l/m 17,9 km/h (3 Bft) W-SW 243 0 min 0,000 mm 0,0 UV-I 0 W/m 5,1 C 2,6 C 25,7 km/h (4 Bft) 98,11 %
21.02.2019 21:50 8,9 C 5,6 C 7,8 C 77 % 1026,5 hPa 0,0 l/m 20,4 km/h (4 Bft) W 271 0 min 0,000 mm 0,0 UV-I 0 W/m 5,1 C 1,7 C 25,7 km/h (4 Bft) 100,00 %
21.02.2019 21:52 8,9 C 5,6 C 7,8 C 77 % 1026,5 hPa 0,0 l/m 18,4 km/h (3 Bft) W-SW 247 0 min 0,000 mm 0,0 UV-I 0 W/m 5,1 C 2,4 C 27,4 km/h (4 Bft) 98,18 %
21.02.2019 21:54 8,9 C 5,6 C 7,8 C 76 % 1026,5 hPa 0,0 l/m 16,1 km/h (3 Bft) W 275 0 min 0,000 mm 0,0 UV-I 0 W/m 4,9 C 3,3 C 22,5 km/h (4 Bft) 100,00 %
21.02.2019 21:56 8,9 C 5,6 C 7,8 C 76 % 1026,5 hPa 0,0 l/m 15,7 km/h (3 Bft) W-SW 252 0 min 0,000 mm 0,0 UV-I 0 W/m 4,9 C 3,5 C 24,1 km/h (4 Bft) 98,00 %
21.02.2019 21:59 8,9 C 5,6 C 7,8 C 76 % 1026,5 hPa 0,0 l/m 13,4 km/h (3 Bft) W 263 0 min 0,000 mm 0,0 UV-I 0 W/m 4,9 C 4,5 C 20,9 km/h (4 Bft) 100,00 %
21.02.2019 22:00 8,9 C 5,6 C 7,8 C 76 % 1026,5 hPa 0,0 l/m 16,0 km/h (3 Bft) W 270 0 min 0,000 mm 0,0 UV-I 0 W/m 4,9 C 3,4 C 20,9 km/h (4 Bft) 96,30 %
21.02.2019 22:02 8,8 C 5,6 C 7,8 C 76 % 1026,5 hPa 0,0 l/m 15,3 km/h (3 Bft) W-SW 257 0 min 0,026 mm 0,0 UV-I 0 W/m 4,8 C 3,5 C 22,5 km/h (4 Bft) 94,74 %
21.02.2019 22:04 8,8 C 5,6 C 7,8 C 76 % 1026,5 hPa 0,0 l/m 13,4 km/h (3 Bft) W-SW 252 0 min 0,000 mm 0,0 UV-I 0 W/m 4,8 C 4,4 C 19,3 km/h (3 Bft) 96,43 %
21.02.2019 22:06 8,8 C 5,6 C 7,8 C 76 % 1026,5 hPa 0,0 l/m 11,9 km/h (2 Bft) W-NW 287 0 min 0,000 mm 0,0 UV-I 0 W/m 4,8 C 5,2 C 17,7 km/h (3 Bft) 97,56 %
21.02.2019 22:08 8,8 C 5,6 C 7,2 C 76 % 1026,5 hPa 0,0 l/m 13,6 km/h (3 Bft) W-SW 257 0 min 0,000 mm 0,0 UV-I 0 W/m 4,8 C 4,3 C 17,7 km/h (3 Bft) 95,12 %
21.02.2019 22:10 8,7 C 5,6 C 7,2 C 76 % 1026,5 hPa 0,0 l/m 13,0 km/h (3 Bft) W 271 0 min 0,000 mm 0,0 UV-I 0 W/m 4,7 C 4,5 C 17,7 km/h (3 Bft) 96,23 %
21.02.2019 22:12 8,7 C 5,6 C 7,2 C 76 % 1026,6 hPa 0,0 l/m 13,0 km/h (3 Bft) W 271 0 min 0,000 mm 0,0 UV-I 0 W/m 4,7 C 4,5 C 17,7 km/h (3 Bft) 95,74 %
21.02.2019 22:14 8,7 C 5,6 C 7,2 C 76 % 1026,6 hPa 0,0 l/m 13,1 km/h (3 Bft) W 279 0 min 0,000 mm 0,0 UV-I 0 W/m 4,7 C 4,5 C 16,1 km/h (3 Bft) 97,87 %
21.02.2019 22:16 8,7 C 5,6 C 7,2 C 76 % 1026,5 hPa 0,0 l/m 11,7 km/h (2 Bft) W 265 0 min 0,000 mm 0,0 UV-I 0 W/m 4,7 C 5,2 C 19,3 km/h (3 Bft) 96,00 %
21.02.2019 22:18 8,6 C 5,6 C 7,2 C 76 % 1026,5 hPa 0,0 l/m 12,5 km/h (3 Bft) W 261 0 min 0,000 mm 0,0 UV-I 0 W/m 4,6 C 4,6 C 17,7 km/h (3 Bft) 92,11 %
21.02.2019 22:20 8,6 C 5,6 C 7,2 C 76 % 1026,5 hPa 0,0 l/m 11,7 km/h (2 Bft) W 262 0 min 0,000 mm 0,0 UV-I 0 W/m 4,6 C 5,1 C 17,7 km/h (3 Bft) 94,64 %
21.02.2019 22:22 8,6 C 5,6 C 7,2 C 77 % 1026,5 hPa 0,0 l/m 10,0 km/h (2 Bft) W 267 0 min 0,000 mm 0,0 UV-I 0 W/m 4,8 C 6,0 C 14,5 km/h (3 Bft) 97,56 %
21.02.2019 22:24 8,5 C 5,6 C 7,2 C 77 % 1026,5 hPa 0,0 l/m 11,7 km/h (2 Bft) W 274 0 min 0,000 mm 0,0 UV-I 0 W/m 4,7 C 4,9 C 17,7 km/h (3 Bft) 90,00 %
21.02.2019 22:26 8,6 C 5,6 C 7,2 C 76 % 1026,6 hPa 0,0 l/m 11,1 km/h (2 Bft) W 267 0 min 0,000 mm 0,0 UV-I 0 W/m 4,6 C 5,4 C 16,1 km/h (3 Bft) 96,00 %
21.02.2019 22:28 8,5 C 5,6 C 7,2 C 76 % 1026,6 hPa 0,0 l/m 10,1 km/h (2 Bft) W 260 0 min 0,000 mm 0,0 UV-I 0 W/m 4,5 C 5,9 C 12,9 km/h (3 Bft) 96,00 %
21.02.2019 22:30 8,5 C 5,6 C 7,2 C 76 % 1026,7 hPa 0,0 l/m 7,7 km/h (2 Bft) W 261 0 min 0,000 mm 0,0 UV-I 0 W/m 4,5 C 7,5 C 12,9 km/h (3 Bft) 94,87 %
21.02.2019 22:32 8,5 C 5,6 C 7,2 C 77 % 1026,7 hPa 0,0 l/m 10,2 km/h (2 Bft) W-SW 237 0 min 0,000 mm 0,0 UV-I 0 W/m 4,7 C 5,8 C 16,1 km/h (3 Bft) 92,31 %
21.02.2019 22:34 8,5 C 5,6 C 7,2 C 76 % 1026,7 hPa 0,0 l/m 8,3 km/h (2 Bft) W-SW 238 0 min 0,000 mm 0,0 UV-I 0 W/m 4,5 C 7,1 C 12,9 km/h (3 Bft) 95,83 %
21.02.2019 22:36 8,4 C 5,6 C 7,2 C 76 % 1026,7 hPa 0,0 l/m 7,3 km/h (2 Bft) W-SW 242 0 min 0,000 mm 0,0 UV-I 0 W/m 4,4 C 7,7 C 11,3 km/h (2 Bft) 91,49 %
21.02.2019 22:39 8,4 C 5,6 C 7,2 C 76 % 1026,8 hPa 0,0 l/m 9,5 km/h (2 Bft) W-SW 240 0 min 0,000 mm 0,0 UV-I 0 W/m 4,4 C 6,1 C 14,5 km/h (3 Bft) 92,19 %
21.02.2019 22:40 8,4 C 5,6 C 7,2 C 76 % 1026,8 hPa 0,0 l/m 8,5 km/h (2 Bft) W-SW 256 0 min 0,000 mm 0,0 UV-I 0 W/m 4,4 C 6,8 C 11,3 km/h (2 Bft) 96,30 %
21.02.2019 22:42 8,4 C 5,6 C 7,2 C 77 % 1026,8 hPa 0,0 l/m 8,8 km/h (2 Bft) SW 232 0 min 0,000 mm 0,0 UV-I 0 W/m 4,6 C 6,6 C 14,5 km/h (3 Bft) 94,74 %
21.02.2019 22:44 8,3 C 5,6 C 7,2 C 78 % 1026,8 hPa 0,0 l/m 10,6 km/h (2 Bft) SW 227 0 min 0,000 mm 0,0 UV-I 0 W/m 4,7 C 5,4 C 14,5 km/h (3 Bft) 92,45 %
21.02.2019 22:46 8,2 C 5,6 C 7,2 C 79 % 1026,8 hPa 0,0 l/m 9,7 km/h (2 Bft) S-SW 212 0 min 0,000 mm 0,0 UV-I 0 W/m 4,8 C 5,8 C 17,7 km/h (3 Bft) 92,00 %
21.02.2019 22:48 8,1 C 5,6 C 7,2 C 79 % 1026,8 hPa 0,0 l/m 9,8 km/h (2 Bft) W-SW 237 0 min 0,000 mm 0,0 UV-I 0 W/m 4,7 C 5,6 C 17,7 km/h (3 Bft) 93,62 %
21.02.2019 22:50 8,1 C 5,6 C 7,2 C 79 % 1026,8 hPa 0,0 l/m 9,3 km/h (2 Bft) W 268 0 min 0,000 mm 0,0 UV-I 0 W/m 4,7 C 5,9 C 14,5 km/h (3 Bft) 92,11 %
21.02.2019 22:52 8,0 C 5,6 C 7,2 C 80 % 1026,8 hPa 0,0 l/m 9,9 km/h (2 Bft) NW 313 0 min 0,000 mm 0,0 UV-I 0 W/m 4,8 C 5,4 C 16,1 km/h (3 Bft) 96,61 %
21.02.2019 22:54 7,9 C 5,6 C 7,2 C 80 % 1026,8 hPa 0,0 l/m 12,5 km/h (3 Bft) W 269 0 min 0,000 mm 0,0 UV-I 0 W/m 4,7 C 3,8 C 17,7 km/h (3 Bft) 95,12 %
21.02.2019 22:56 7,9 C 5,6 C 7,2 C 80 % 1026,8 hPa 0,0 l/m 12,3 km/h (3 Bft) W-SW 246 0 min 0,000 mm 0,0 UV-I 0 W/m 4,7 C 3,9 C 17,7 km/h (3 Bft) 94,00 %
21.02.2019 22:58 7,9 C 5,6 C 7,2 C 80 % 1026,8 hPa 0,0 l/m 14,3 km/h (3 Bft) W-SW 248 0 min 0,000 mm 0,0 UV-I 0 W/m 4,7 C 2,9 C 20,9 km/h (4 Bft) 97,56 %
21.02.2019 23:00 7,9 C 5,6 C 7,2 C 80 % 1026,8 hPa 0,0 l/m 13,9 km/h (3 Bft) W-SW 243 0 min 0,000 mm 0,0 UV-I 0 W/m 4,7 C 3,1 C 17,7 km/h (3 Bft) 97,87 %
21.02.2019 23:02 7,8 C 5,6 C 7,2 C 81 % 1026,9 hPa 0,0 l/m 13,0 km/h (3 Bft) SW 234 0 min 0,025 mm 0,0 UV-I 0 W/m 4,7 C 3,4 C 17,7 km/h (3 Bft) 95,74 %
21.02.2019 23:04 7,8 C 5,6 C 7,2 C 81 % 1026,9 hPa 0,0 l/m 15,2 km/h (3 Bft) W-SW 248 0 min 0,000 mm 0,0 UV-I 0 W/m 4,7 C 2,4 C 20,9 km/h (4 Bft) 97,62 %
21.02.2019 23:06 7,7 C 5,6 C 7,2 C 81 % 1026,9 hPa 0,0 l/m 12,7 km/h (3 Bft) W-SW 253 0 min 0,000 mm 0,0 UV-I 0 W/m 4,7 C 3,5 C 17,7 km/h (3 Bft) 96,36 %
21.02.2019 23:09 7,7 C 5,6 C 6,7 C 81 % 1026,9 hPa 0,0 l/m 10,8 km/h (2 Bft) SW 232 0 min 0,000 mm 0,0 UV-I 0 W/m 4,7 C 4,6 C 17,7 km/h (3 Bft) 95,38 %
21.02.2019 23:10 7,6 C 5,6 C 6,7 C 81 % 1026,9 hPa 0,0 l/m 7,9 km/h (2 Bft) W-SW 244 0 min 0,000 mm 0,0 UV-I 0 W/m 4,6 C 6,4 C 11,3 km/h (2 Bft) 96,30 %
21.02.2019 23:12 7,6 C 5,6 C 6,7 C 82 % 1026,9 hPa 0,0 l/m 12,6 km/h (3 Bft) W-SW 248 0 min 0,000 mm 0,0 UV-I 0 W/m 4,7 C 3,4 C 20,9 km/h (4 Bft) 94,34 %
21.02.2019 23:14 7,5 C 5,6 C 6,7 C 82 % 1026,8 hPa 0,0 l/m 13,3 km/h (3 Bft) W-SW 254 0 min 0,000 mm 0,0 UV-I 0 W/m 4,6 C 2,9 C 20,9 km/h (4 Bft) 95,74 %
21.02.2019 23:16 7,5 C 5,6 C 6,7 C 82 % 1026,8 hPa 0,0 l/m 14,0 km/h (3 Bft) W-SW 246 0 min 0,000 mm 0,0 UV-I 0 W/m 4,6 C 2,6 C 20,9 km/h (4 Bft) 94,29 %
21.02.2019 23:19 7,4 C 5,6 C 6,7 C 82 % 1026,9 hPa 0,0 l/m 16,5 km/h (3 Bft) SW 236 0 min 0,000 mm 0,0 UV-I 0 W/m 4,5 C 1,3 C 20,9 km/h (4 Bft) 97,56 %
21.02.2019 23:20 7,4 C 5,6 C 6,7 C 82 % 1026,9 hPa 0,0 l/m 15,6 km/h (3 Bft) W 264 0 min 0,000 mm 0,0 UV-I 0 W/m 4,5 C 1,7 C 20,9 km/h (4 Bft) 100,00 %
21.02.2019 23:22 7,4 C 5,6 C 6,7 C 82 % 1027,0 hPa 0,0 l/m 15,9 km/h (3 Bft) SW 221 0 min 0,000 mm 0,0 UV-I 0 W/m 4,5 C 1,6 C 20,9 km/h (4 Bft) 98,11 %
21.02.2019 23:25 7,4 C 5,6 C 6,7 C 83 % 1026,9 hPa 0,0 l/m 13,8 km/h (3 Bft) W-SW 248 0 min 0,000 mm 0,0 UV-I 0 W/m 4,7 C 2,6 C 20,9 km/h (4 Bft) 97,06 %
21.02.2019 23:26 7,4 C 5,6 C 6,7 C 83 % 1026,9 hPa 0,0 l/m 13,0 km/h (3 Bft) W-SW 248 0 min 0,000 mm 0,0 UV-I 0 W/m 4,7 C 3,0 C 17,7 km/h (3 Bft) 96,15 %
21.02.2019 23:28 7,3 C 5,6 C 6,7 C 83 % 1026,9 hPa 0,0 l/m 13,1 km/h (3 Bft) SW 231 0 min 0,000 mm 0,0 UV-I 0 W/m 4,6 C 2,8 C 17,7 km/h (3 Bft) 100,00 %
21.02.2019 23:30 7,3 C 5,6 C 6,7 C 83 % 1026,9 hPa 0,0 l/m 11,5 km/h (2 Bft) SW 230 0 min 0,000 mm 0,0 UV-I 0 W/m 4,6 C 3,7 C 19,3 km/h (3 Bft) 100,00 %
21.02.2019 23:32 7,3 C 5,6 C 6,7 C 83 % 1026,9 hPa 0,0 l/m 10,9 km/h (2 Bft) W 261 0 min 0,000 mm 0,0 UV-I 0 W/m 4,6 C 4,0 C 19,3 km/h (3 Bft) 98,11 %
21.02.2019 23:34 7,3 C 5,6 C 6,7 C 83 % 1026,9 hPa 0,0 l/m 12,8 km/h (3 Bft) W-SW 238 0 min 0,000 mm 0,0 UV-I 0 W/m 4,6 C 3,0 C 19,3 km/h (3 Bft) 97,37 %
21.02.2019 23:36 7,3 C 5,6 C 6,7 C 83 % 1027,0 hPa 0,0 l/m 13,6 km/h (3 Bft) SW 216 0 min 0,000 mm 0,0 UV-I 0 W/m 4,6 C 2,5 C 19,3 km/h (3 Bft) 100,00 %
21.02.2019 23:38 7,2 C 5,6 C 6,7 C 83 % 1027,0 hPa 0,0 l/m 15,2 km/h (3 Bft) SW 232 0 min 0,000 mm 0,0 UV-I 0 W/m 4,5 C 1,6 C 20,9 km/h (4 Bft) 98,21 %
21.02.2019 23:40 7,2 C 5,6 C 6,7 C 83 % 1027,0 hPa 0,0 l/m 13,2 km/h (3 Bft) W-SW 242 0 min 0,000 mm 0,0 UV-I 0 W/m 4,5 C 2,6 C 17,7 km/h (3 Bft) 97,37 %
21.02.2019 23:42 7,2 C 5,6 C 6,7 C 83 % 1027,0 hPa 0,0 l/m 11,8 km/h (2 Bft) SW 215 0 min 0,000 mm 0,0 UV-I 0 W/m 4,5 C 3,4 C 20,9 km/h (4 Bft) 100,00 %
21.02.2019 23:44 7,3 C 5,6 C 6,7 C 83 % 1027,0 hPa 0,0 l/m 11,5 km/h (2 Bft) W-SW 248 0 min 0,000 mm 0,0 UV-I 0 W/m 4,6 C 3,7 C 17,7 km/h (3 Bft) 97,87 %
21.02.2019 23:46 7,3 C 5,6 C 6,7 C 83 % 1027,0 hPa 0,0 l/m 10,9 km/h (2 Bft) W 259 0 min 0,000 mm 0,0 UV-I 0 W/m 4,6 C 4,0 C 17,7 km/h (3 Bft) 100,00 %
21.02.2019 23:49 7,3 C 5,6 C 6,7 C 83 % 1026,9 hPa 0,0 l/m 11,6 km/h (2 Bft) W-SW 252 0 min 0,000 mm 0,0 UV-I 0 W/m 4,6 C 3,6 C 17,7 km/h (3 Bft) 96,77 %
21.02.2019 23:50 7,3 C 5,6 C 6,7 C 83 % 1026,9 hPa 0,0 l/m 13,2 km/h (3 Bft) W-SW 248 0 min 0,000 mm 0,0 UV-I 0 W/m 4,6 C 2,8 C 17,7 km/h (3 Bft) 100,00 %
21.02.2019 23:52 7,3 C 5,6 C 6,7 C 83 % 1026,9 hPa 0,0 l/m 9,8 km/h (2 Bft) SW 221 0 min 0,000 mm 0,0 UV-I 0 W/m 4,6 C 4,7 C 16,1 km/h (3 Bft) 98,39 %
21.02.2019 23:54 7,2 C 5,6 C 6,7 C 83 % 1027,0 hPa 0,0 l/m 13,8 km/h (3 Bft) W-SW 243 0 min 0,000 mm 0,0 UV-I 0 W/m 4,5 C 2,3 C 20,9 km/h (4 Bft) 100,00 %
21.02.2019 23:56 7,2 C 5,6 C 6,7 C 83 % 1027,0 hPa 0,0 l/m 13,1 km/h (3 Bft) W-SW 256 0 min 0,000 mm 0,0 UV-I 0 W/m 4,5 C 2,7 C 17,7 km/h (3 Bft) 98,00 %
21.02.2019 23:59 7,2 C 5,6 C 6,7 C 83 % 1026,9 hPa 0,0 l/m 10,6 km/h (2 Bft) W-SW 252 0 min 0,000 mm 0,0 UV-I 0 W/m 4,5 C 4,1 C 19,3 km/h (3 Bft) 95,89 %
_ Min-Zeit 05:58 00:00 00:28 14:08 17:22 - 03:16 - - - - - - 05:58 23:19 03:16 11:34
Minimum _ 2,4 C 5,6 C 0,0 C 65 % 1026,0 hPa - 0,0 km/h (0 Bft) - - - - - - 1,5 C 1,3 C 0,0 km/h (0 Bft) 6,67 %
_ Max-Zeit 14:00 00:00 13:06 06:14 11:20 00:00 21:50 - - 12:56 12:00 13:00 13:06 12:06 13:06 13:44 00:00
Maximum _ 11,4 C 5,6 C 17,8 C 95 % 1028,5 hPa 0,0 l/m 20,4 km/h
W (4 Bft)
- - 6 min 0,178 mm 1,3 UV-I 542 W/m 6,1 C 11,3 C 29,0 km/h
W-SW (5 Bft)
100,00 %
Durchschnitt _ 6,8 C 5,6 C 7,0 C 83 % 1027,0 hPa #0,0 l/m 6,2 km/h (2 Bft) S-SW - #3:28 h #1,143 mm 0,9 UV-I 176 W/m 3,9 C 5,8 C 9,8 km/h (2 Bft) 95,81 %